GFSSW_250_spd_000.txt.gz
Wind_Speed
65 63 64 67 80 85 82 76 73 74 78 76 73 71 70 68 61 57 54 49 51 51 48 45 49 50 51 52 51 51 49 52 55 59 63 59 57 63 66 63 61 61 61 61 62
61 62 61 65 67 80 82 78 74 73 73 80 78 74 72 70 68 63 54 56 52 51 50 44 46 49 51 52 49 48 46 54 56 57 59 57 54 58 63 65 67 68 66 62 60
61 59 56 60 63 69 81 81 77 75 73 73 77 80 77 73 72 71 62 58 55 56 52 48 45 45 50 51 50 48 45 52 56 57 57 55 53 55 59 64 69 70 67 65 62
56 58 55 56 57 63 73 78 77 76 77 77 76 74 74 77 75 75 67 62 61 60 54 51 48 45 46 50 52 46 48 52 54 58 58 57 51 52 56 63 66 68 69 70 68
56 56 55 53 55 60 64 71 70 71 74 76 77 78 78 77 78 76 71 68 65 61 57 56 53 45 43 45 49 45 50 50 52 56 57 59 53 48 52 62 64 69 69 70 71
54 55 53 52 52 56 60 62 65 66 71 74 77 79 80 80 76 77 75 72 68 64 63 58 53 52 51 51 47 47 48 48 52 54 57 56 57 51 54 59 65 66 69 71 72
51 52 52 50 52 52 55 58 63 69 75 78 79 79 80 77 77 79 75 73 72 68 64 57 59 59 58 58 55 55 52 50 52 56 59 60 52 49 57 56 63 65 66 69 72
49 49 51 51 54 52 53 56 63 73 81 84 84 83 82 78 79 78 76 75 72 71 64 61 60 63 59 65 62 59 58 59 60 59 56 63 47 54 56 60 58 67 67 66 69
45 46 49 52 54 54 53 50 51 58 67 76 82 81 80 78 77 77 76 74 72 73 69 66 68 64 65 65 66 65 60 60 61 60 60 56 52 59 58 57 57 62 66 67 66
43 46 48 52 52 49 49 46 45 53 63 72 76 76 75 73 74 75 74 74 74 73 72 72 70 67 67 73 70 71 68 65 64 61 59 55 51 56 58 57 58 61 63 66 65
40 43 47 52 51 47 45 43 42 52 66 73 74 73 73 72 71 71 70 73 76 75 74 75 75 69 74 77 75 74 73 65 65 66 63 58 52 53 57 56 54 54 60 65 66
43 42 45 52 50 47 42 42 39 51 67 73 76 75 74 72 68 66 68 70 71 75 80 80 78 79 79 80 81 84 83 74 70 72 69 67 54 55 54 51 49 50 54 61 66
49 48 45 47 54 50 44 41 37 45 61 70 75 74 75 73 73 74 77 76 77 78 82 82 83 85 89 88 85 83 82 82 78 76 73 69 57 56 54 50 48 47 49 56 62
55 55 51 49 54 54 48 44 43 39 43 63 73 75 75 75 72 75 75 76 76 79 82 83 87 90 90 87 86 84 85 88 87 85 79 77 58 58 54 49 44 44 41 48 58
66 60 62 58 49 52 58 56 47 41 34 43 50 61 64 68 67 74 73 77 78 80 79 79 79 83 83 87 88 86 91 95 96 93 86 79 65 55 61 53 42 42 44 48 53
62 66 67 63 52 52 65 58 49 45 36 33 39 44 50 53 56 62 67 66 64 63 61 67 71 74 77 82 81 83 86 89 89 90 81 82 69 55 57 55 45 46 48 52 54
47 57 68 65 58 58 59 57 55 49 41 36 38 38 37 37 40 42 45 49 56 62 66 71 78 82 83 87 86 83 84 82 79 78 61 78 71 47 52 53 49 49 52 54 55
41 47 57 67 64 60 57 51 49 51 51 45 42 40 39 37 39 42 45 51 57 63 72 80 83 84 82 79 76 70 71 67 69 66 64 71 50 50 55 56 55 56 58 57 54
35 41 43 65 64 64 59 49 42 49 49 49 46 43 40 40 39 43 48 54 58 67 75 81 78 73 71 72 72 65 67 70 67 64 60 55 45 48 57 61 59 64 58 62 61
29 34 38 62 71 69 59 52 48 44 44 43 42 41 40 38 41 43 47 50 59 64 67 70 62 49 40 47 54 56 61 65 64 62 58 51 51 50 65 73 69 67 56 61 65
26 28 37 54 66 72 58 53 49 45 39 35 36 36 35 36 39 41 42 50 50 54 49 50 54 52 43 35 37 38 39 43 49 49 51 51 49 61 76 75 74 70 60 56 61
21 26 37 52 67 69 60 57 54 45 40 37 32 33 32 36 37 35 39 36 21 15 22 33 44 42 36 29 23 23 24 25 27 35 37 43 58 77 80 74 74 72 61 57 62
17 29 35 50 63 61 60 63 53 47 44 38 36 33 35 36 31 31 13 9 8 10 8 16 25 19 12 8 11 4 1 7 14 18 23 29 38 53 71 74 76 69 58 56 61
18 18 24 34 45 51 61 62 56 52 47 41 37 37 37 33 27 16 20 11 11 7 12 16 19 20 20 25 19 18 16 6 9 15 18 22 26 33 48 61 60 62 58 56 60
21 22 24 24 33 41 53 59 57 55 49 45 42 40 36 29 25 24 21 19 12 11 9 13 24 29 30 30 27 22 20 12 5 3 10 18 23 27 33 39 46 55 57 52 51
17 26 32 35 36 43 53 61 60 57 51 48 45 42 36 29 28 34 24 23 16 7 9 13 23 26 28 29 32 26 19 15 10 13 20 23 26 28 28 31 35 45 53 53 52
19 23 26 27 31 41 52 61 63 58 54 51 47 43 36 32 33 31 27 27 17 10 8 10 17 20 20 26 23 26 23 28 20 26 23 28 30 27 27 27 33 40 43 43 45

GFSSW_250_spd_003.txt.gz
Wind_Speed
64 65 66 66 65 66 70 71 80 84 82 80 80 81 78 74 72 71 69 67 64 58 52 55 56 53 50 50 52 52 47 52 58 61 64 61 53 54 55 58 58 59 61 63 61
66 67 66 65 67 66 63 67 73 82 85 84 80 80 80 77 76 73 69 67 65 61 56 55 54 51 50 46 49 50 49 54 57 59 61 60 54 54 54 56 58 58 62 65 63
65 65 65 66 67 69 66 64 70 75 85 85 83 79 79 79 78 77 72 72 70 65 59 55 56 54 50 45 45 47 51 54 57 58 58 59 56 53 54 55 59 59 60 63 65
62 66 68 70 70 69 68 63 64 70 77 85 86 81 76 74 80 80 76 73 72 69 66 59 57 55 51 46 44 42 50 54 55 58 59 59 57 56 54 57 58 58 59 61 64
60 63 69 70 68 67 64 63 64 68 72 81 85 83 78 76 77 81 78 75 74 73 69 64 60 58 55 51 45 43 48 48 53 55 58 59 59 56 53 61 60 57 56 59 62
58 60 65 67 67 66 63 62 61 62 68 74 84 82 78 77 74 76 76 79 80 77 74 69 67 63 59 56 51 51 49 48 47 53 55 57 57 51 56 59 60 59 58 58 58
54 58 62 63 63 63 63 61 59 61 63 70 81 83 81 77 77 78 76 74 73 72 73 71 71 68 62 59 57 54 55 54 57 56 47 53 52 49 58 54 54 59 59 58 58
47 49 54 59 58 60 61 59 58 60 59 65 74 78 80 77 78 79 79 78 76 75 73 72 72 70 67 65 63 60 59 62 62 58 56 52 46 54 54 54 54 56 56 57 56
46 45 47 51 52 56 58 57 57 56 54 59 67 74 74 75 76 78 79 79 79 79 76 74 73 71 69 70 68 67 62 62 63 64 63 59 50 53 56 53 52 54 54 54 55
47 47 45 46 48 52 54 56 55 53 51 55 60 65 69 72 76 77 78 77 78 77 75 73 72 71 71 74 73 68 66 66 65 68 69 65 56 55 56 54 54 53 55 57 55
49 50 48 45 45 49 49 53 53 53 56 56 57 61 71 75 76 77 78 78 77 77 75 74 72 74 77 75 75 74 73 71 71 73 73 72 62 57 59 55 53 53 55 56 58
59 55 54 49 47 47 46 52 56 54 56 53 54 59 70 80 83 82 79 78 78 77 74 75 76 77 78 77 77 78 76 78 79 80 80 74 65 63 59 58 53 53 53 54 55
61 59 59 56 49 42 44 54 54 52 49 47 48 50 59 66 74 80 79 78 76 74 74 74 74 77 75 77 81 83 84 85 85 87 84 79 68 70 66 58 58 54 53 54 54
47 51 60 60 52 45 43 51 54 49 44 42 37 43 51 59 65 71 73 73 70 70 69 70 75 76 77 79 85 86 89 94 94 91 87 89 81 74 68 64 59 58 57 56 54
37 43 53 63 58 47 44 52 56 49 41 38 29 39 50 55 63 65 65 66 65 67 69 71 74 76 80 88 93 94 93 94 94 92 88 84 80 66 66 64 64 61 63 60 59
33 36 42 61 60 51 47 52 56 47 35 31 27 34 42 50 61 61 61 61 65 67 70 72 72 78 84 88 88 90 88 84 81 77 65 69 75 61 70 72 71 68 67 66 62
30 31 34 49 63 57 54 55 46 43 35 30 29 31 37 46 56 59 59 60 62 63 64 65 69 70 74 76 80 82 86 82 81 83 74 77 77 50 64 70 79 81 76 72 66
25 28 32 44 65 64 58 53 40 45 40 34 33 31 31 37 44 45 49 55 52 51 49 50 54 66 73 80 83 89 85 80 83 83 76 81 67 62 64 71 72 82 80 75 70
19 24 33 41 60 65 58 50 37 47 46 40 35 31 30 29 30 32 35 36 37 39 42 50 59 69 76 80 80 76 68 69 73 69 67 67 59 60 69 76 82 81 83 77 64
16 22 30 36 50 63 60 46 39 40 51 46 42 37 33 31 31 33 34 35 34 38 43 52 61 69 64 52 48 43 42 55 57 54 60 60 58 56 67 78 82 81 82 75 61
12 18 25 34 45 61 57 47 42 43 45 49 47 42 37 36 35 35 34 30 32 37 44 54 57 53 56 59 57 49 39 36 39 39 48 56 57 61 70 77 77 80 75 72 62
7 19 26 33 40 50 57 53 49 44 41 45 47 44 40 38 36 33 25 27 32 37 36 37 33 33 36 36 35 34 28 24 25 27 32 42 58 68 78 75 73 72 68 71 62
15 19 24 27 29 50 59 57 53 46 37 38 39 37 36 36 33 26 24 28 30 24 20 22 22 29 30 23 10 11 11 8 6 7 15 30 55 66 68 70 71 71 69 67 60
12 15 18 24 34 56 65 59 53 47 41 36 35 37 38 34 28 22 25 22 21 22 23 19 21 27 20 36 39 37 32 22 20 6 5 16 34 56 65 68 72 68 64 62 61
15 21 24 24 36 50 63 64 57 50 46 41 38 38 36 33 25 24 23 21 21 24 22 21 19 22 27 37 44 44 43 39 36 32 17 4 14 28 45 63 62 59 57 61 58
10 18 21 25 28 38 54 60 58 54 49 44 41 39 38 31 28 22 24 23 24 23 20 14 11 20 22 38 41 43 48 46 39 30 19 14 9 14 20 31 50 59 54 50 45
5 17 24 26 29 36 48 62 61 57 53 46 44 43 36 33 30 23 24 27 24 23 16 15 4 11 20 23 28 34 37 40 39 36 30 24 26 27 22 27 37 50 53 50 48

GFSSW_250_spd_006.txt.gz
Wind_Speed
58 59 66 69 72 73 72 71 72 74 76 79 78 79 82 80 74 74 75 69 66 68 68 70 64 62 60 61 61 59 58 59 62 65 66 64 63 59 60 59 59 59 58 62 65
55 61 65 68 70 75 74 73 73 68 76 78 82 81 79 83 85 80 76 73 72 70 70 70 68 62 58 57 58 58 55 57 59 60 61 62 60 60 58 56 58 58 57 59 62
52 57 63 67 71 73 75 76 71 71 71 77 77 82 85 83 83 89 83 81 76 74 72 69 68 66 62 57 57 54 52 52 53 56 57 61 61 58 56 57 62 61 58 58 62
49 53 60 66 71 72 73 76 75 75 69 70 72 79 81 88 85 87 87 83 82 77 74 71 69 67 63 59 55 52 54 53 51 50 54 60 59 57 55 57 58 58 60 61 62
45 51 55 61 65 71 73 75 73 72 70 70 72 72 78 85 87 89 84 86 82 78 78 75 72 69 65 61 56 54 55 53 49 48 51 52 56 55 55 58 57 57 59 61 61
43 46 53 57 61 64 69 74 75 75 72 73 73 75 78 82 89 88 86 84 83 82 79 76 74 71 69 67 61 57 55 55 54 51 50 48 52 47 59 58 56 56 57 61 61
43 46 48 57 61 64 66 71 72 75 77 77 75 70 75 79 85 89 88 85 84 82 82 79 77 74 73 70 65 60 59 59 59 57 51 50 47 48 54 52 52 54 55 56 61
43 45 49 51 56 60 66 69 69 73 73 72 70 69 71 75 81 89 87 85 81 79 79 80 81 77 74 73 73 71 67 65 65 61 55 51 53 56 57 55 48 46 52 55 57
45 47 47 51 52 54 60 65 66 69 69 68 69 67 67 73 77 86 88 85 82 80 79 78 78 78 78 78 74 74 71 70 68 66 62 59 55 60 58 56 54 51 45 50 55
55 53 52 52 52 54 54 58 59 61 62 67 69 67 66 67 73 82 87 85 83 81 79 78 76 75 78 77 74 73 72 70 71 72 70 65 57 61 63 62 58 56 51 47 52
58 56 59 58 55 52 53 49 46 54 62 66 65 65 65 65 70 75 83 85 82 80 80 79 76 79 78 76 76 75 74 74 75 77 75 72 64 60 66 66 62 61 60 54 49
51 50 51 60 59 54 50 43 49 58 58 60 63 62 62 61 65 72 78 83 83 82 80 80 79 79 81 80 79 78 79 79 80 81 80 77 69 71 66 66 68 63 64 61 57
42 41 43 48 61 58 48 46 50 55 54 58 58 57 56 56 60 67 73 77 79 78 78 77 78 80 80 79 79 80 79 81 80 81 82 84 74 79 73 70 70 70 69 66 61
35 36 37 40 55 57 49 50 49 52 54 55 55 56 53 54 56 58 62 68 71 73 74 76 75 76 77 78 78 78 79 81 84 87 88 88 81 80 79 78 75 73 74 70 70
29 30 30 35 44 56 57 54 49 55 53 54 51 51 54 52 55 57 62 68 73 75 75 73 73 73 74 75 77 80 84 87 91 93 92 91 96 79 84 83 82 82 82 79 77
24 23 26 32 41 58 60 56 52 54 51 49 49 47 50 48 53 54 56 60 66 71 75 75 71 71 73 75 78 79 81 86 91 95 92 93 100 77 88 84 86 90 90 88 87
20 17 25 32 43 58 62 57 52 46 42 46 45 45 44 44 43 43 43 46 51 55 59 55 57 60 64 67 69 74 81 85 89 94 94 90 92 66 73 81 86 93 99 99 92
15 15 27 36 39 57 59 55 44 40 46 46 44 41 37 35 32 33 36 39 38 35 37 42 51 56 62 67 70 75 78 81 87 91 93 87 86 77 77 76 80 83 89 95 92
13 12 25 33 42 53 55 50 41 41 48 46 42 36 33 30 31 30 30 29 31 36 40 46 51 57 59 57 61 66 76 82 85 78 79 75 75 78 85 85 89 92 84 84 83
9 9 22 30 36 48 53 51 41 44 51 44 39 35 31 29 28 25 23 27 31 33 38 40 37 43 49 53 60 55 62 61 64 50 56 64 68 68 75 80 93 90 87 83 80
10 3 17 27 33 47 55 50 44 49 52 45 40 35 32 29 27 23 23 23 23 25 27 31 33 40 47 44 49 51 46 49 57 51 48 44 52 53 61 73 85 91 89 82 80
9 6 19 23 32 46 53 48 46 49 54 47 40 35 32 28 27 26 24 25 23 24 25 25 34 35 30 29 30 30 33 31 47 49 44 38 46 46 54 63 73 85 86 81 81
8 6 20 27 34 46 54 49 47 46 52 50 43 37 33 29 27 25 23 22 22 23 21 24 25 24 22 26 34 31 36 24 15 24 27 29 31 36 40 49 60 67 78 80 81
8 4 21 33 42 52 57 51 47 45 45 50 45 39 36 33 28 25 24 23 22 20 20 22 18 23 15 21 30 34 37 38 28 19 15 18 22 25 31 42 53 55 66 72 76
10 6 23 32 44 60 59 56 51 44 41 45 49 44 40 36 31 26 26 24 20 18 19 18 10 17 16 15 24 33 42 44 39 35 29 15 10 16 17 29 42 50 56 60 66
8 5 20 37 45 57 61 59 51 45 40 40 41 41 40 35 31 27 26 21 17 15 17 14 12 12 13 16 19 27 37 41 46 44 32 24 12 5 6 18 33 40 49 51 54
9 3 15 27 44 57 65 64 57 49 42 40 40 42 39 36 32 28 26 19 19 15 15 18 16 12 17 10 15 20 31 38 42 47 46 38 28 10 7 15 32 36 38 42 45

GFSSW_250_spd_009.txt.gz
Wind_Speed
44 50 58 65 68 73 80 80 81 79 79 79 80 79 78 78 80 76 76 74 72 73 72 71 70 70 71 73 72 71 69 63 70 75 76 75 72 73 73 75 75 75 80 77 79
43 48 54 61 65 69 74 79 80 81 82 81 78 78 78 79 81 82 78 74 74 77 74 72 73 72 72 72 69 67 65 63 71 70 71 70 68 67 69 71 72 73 76 74 75
41 45 52 58 63 66 71 74 78 81 80 80 79 79 80 80 79 82 81 79 76 76 78 79 75 70 69 69 70 69 63 70 67 67 67 66 65 66 66 65 67 69 71 68 67
39 44 50 56 62 65 70 72 75 75 81 80 77 79 80 79 79 81 83 81 83 80 78 77 76 71 70 68 71 70 66 66 64 63 66 64 64 63 64 63 66 70 69 66 67
40 41 47 53 60 65 69 72 77 76 78 81 79 77 76 74 79 84 83 85 85 86 82 79 78 76 72 70 70 72 71 66 63 61 63 62 58 59 55 59 61 61 62 63 65
39 42 44 50 55 62 67 71 74 77 79 81 84 81 80 76 73 82 84 84 85 84 87 85 81 77 75 74 70 72 72 69 67 63 61 59 57 53 52 55 53 53 56 61 62
39 41 45 47 49 56 63 68 70 74 76 81 81 82 82 78 78 76 82 88 89 86 85 86 89 84 80 79 76 76 74 70 67 66 60 60 55 53 57 51 48 46 48 54 58
45 44 46 48 49 50 54 64 68 72 76 78 79 79 82 81 78 74 77 81 87 90 88 87 87 86 86 82 82 78 75 73 70 70 66 61 59 59 58 57 51 49 47 47 50
54 52 52 52 53 51 51 55 66 71 72 74 77 82 81 84 78 76 75 79 79 87 90 91 89 86 87 84 80 80 76 75 73 72 69 67 61 64 62 63 54 52 53 54 53
68 62 58 58 59 56 54 54 60 68 70 72 74 79 80 81 80 79 76 75 78 82 88 91 90 89 86 85 85 82 79 77 77 76 75 73 69 71 68 69 61 59 60 59 58
57 59 58 55 63 64 60 59 57 53 57 69 75 71 81 82 79 77 70 68 73 76 82 88 89 91 89 85 84 85 85 82 82 80 78 76 74 72 72 72 72 67 65 62 61
51 51 51 48 53 66 67 61 52 52 59 65 70 72 73 74 74 70 65 64 67 70 74 85 89 87 85 85 84 83 83 82 81 82 80 79 74 76 76 72 73 73 71 70 67
47 45 44 42 47 58 70 66 55 56 56 53 56 64 70 67 66 66 64 63 64 66 71 77 89 85 83 82 82 82 81 82 83 83 82 82 76 84 78 78 78 80 78 77 73
43 36 33 39 46 51 65 69 60 56 57 53 50 58 61 60 60 58 59 58 59 63 66 72 81 83 82 82 83 82 82 83 84 84 85 85 82 85 85 85 85 85 86 82 80
35 28 26 33 40 50 56 67 65 59 58 53 49 50 55 54 54 55 54 53 54 60 63 66 76 80 81 82 81 83 83 85 87 89 87 87 92 78 88 90 91 90 87 88 88
33 22 20 27 38 45 53 69 70 64 58 44 43 48 49 47 49 50 47 49 52 53 57 60 64 72 76 79 82 82 82 83 85 86 85 86 98 82 86 94 95 96 96 95 95
30 19 15 24 34 43 51 67 71 61 41 40 42 45 44 44 45 45 47 48 50 52 55 59 64 67 70 73 75 75 75 78 81 84 84 92 102 93 92 101 100 101 102 103 100
27 15 10 16 31 38 48 62 60 42 41 36 42 43 41 40 40 43 44 44 46 48 50 51 56 62 66 68 69 72 74 77 75 77 76 80 90 87 91 96 92 93 96 103 105
26 14 5 18 26 34 43 54 48 42 40 37 37 36 35 37 39 41 42 44 45 47 48 47 47 47 45 45 46 42 49 62 72 79 83 83 90 86 96 92 88 81 82 94 100
27 14 2 11 23 31 37 44 45 43 38 37 41 39 39 37 37 38 39 38 35 32 27 22 20 22 25 27 36 45 53 61 71 75 82 80 80 78 75 76 75 73 77 96 100
28 13 6 12 21 31 42 46 48 41 36 39 40 36 33 31 30 31 31 30 27 23 20 19 19 22 24 28 37 43 45 44 48 59 68 66 67 52 47 51 61 67 69 79 96
25 11 6 14 21 34 47 49 44 40 40 41 40 34 28 28 28 31 32 29 25 19 17 16 16 19 25 28 27 25 23 32 39 51 49 49 56 54 47 46 51 55 58 60 77
25 13 7 15 24 41 48 48 43 40 42 43 40 33 28 30 32 32 31 26 22 21 17 17 19 22 19 14 13 19 29 35 38 43 43 43 38 41 41 40 38 41 46 45 50
26 12 7 15 24 42 45 46 43 43 47 45 39 31 30 32 31 30 28 24 22 18 17 16 19 15 12 8 11 20 28 33 39 43 44 43 36 29 28 28 27 27 34 39 39
23 8 3 20 26 40 47 45 41 44 48 45 40 33 32 34 33 29 26 22 19 17 16 15 11 11 11 8 14 17 24 32 37 45 46 44 38 23 19 16 13 17 22 33 38
20 9 7 14 30 38 41 42 40 43 47 45 41 36 34 32 28 25 22 19 19 17 15 14 10 7 11 14 11 13 22 29 37 44 46 48 34 31 20 10 1 8 13 22 31
18 9 8 19 30 40 46 47 45 44 49 48 45 38 35 33 31 25 22 21 20 16 14 13 10 8 7 6 6 12 22 29 41 46 44 45 45 34 21 13 12 11 10 16 28

GFSSW_250_spd_012.txt.gz
Wind_Speed
35 37 41 47 54 63 69 73 78 80 81 83 82 82 81 81 82 82 79 78 72 74 74 75 77 75 75 75 72 74 76 73 72 75 81 77 75 77 78 76 77 77 81 81 81
39 36 39 44 50 58 65 72 79 82 82 81 84 82 84 82 82 82 83 78 75 77 73 74 74 76 73 73 71 71 71 70 75 78 77 74 74 74 76 78 79 77 81 79 81
42 38 39 43 49 56 62 70 76 80 82 83 84 84 83 82 80 83 82 85 81 77 76 74 75 74 74 73 71 70 67 71 73 73 75 72 71 75 75 74 74 74 75 78 75
48 41 40 43 49 54 61 67 71 77 83 85 85 86 84 83 81 81 82 83 83 84 79 77 76 76 77 74 72 69 68 69 73 72 71 72 70 67 69 70 70 69 68 68 66
54 49 42 44 48 52 59 65 70 76 79 86 87 86 83 82 81 83 83 83 84 83 84 80 78 77 75 74 75 72 70 72 73 71 70 73 68 69 66 65 70 67 65 67 64
55 51 49 44 48 51 56 63 68 73 78 83 87 87 85 81 81 83 81 82 82 81 83 83 80 79 78 75 77 74 74 72 72 72 71 70 67 69 66 70 67 64 65 65 65
65 54 51 52 48 51 53 59 66 71 74 79 84 82 86 85 81 84 80 79 82 81 81 81 82 84 77 78 76 76 77 77 71 73 72 74 71 67 67 66 64 65 62 62 61
68 67 61 54 57 52 53 55 61 68 73 77 81 80 83 81 81 83 79 76 79 80 80 80 82 85 84 80 78 79 77 77 76 75 74 72 72 74 69 67 63 60 60 61 59
63 65 69 65 55 59 53 55 58 64 70 74 78 82 80 81 80 81 80 77 73 75 80 81 81 84 86 86 85 80 78 79 80 79 78 73 73 76 73 71 65 63 61 61 59
60 57 56 61 53 55 57 56 58 60 66 70 73 77 77 82 83 82 81 80 76 74 75 74 81 83 84 86 85 86 85 82 81 79 78 76 75 77 74 70 68 65 65 61 61
59 54 48 46 47 44 58 59 59 57 58 55 67 72 77 79 80 80 82 81 79 78 75 72 71 82 86 85 88 84 84 85 86 85 85 82 77 76 76 72 73 70 70 70 69
59 49 42 38 33 34 53 59 60 56 53 55 60 63 71 72 73 75 77 82 82 81 78 72 71 74 79 84 89 89 89 88 85 85 82 81 78 79 78 76 74 77 77 78 78
55 47 40 35 29 29 47 59 60 58 54 53 56 60 67 68 69 70 73 73 77 77 80 77 75 74 74 77 83 90 89 90 87 85 84 83 81 82 80 79 80 81 83 82 82
54 45 35 29 25 26 44 57 62 59 56 53 50 53 64 67 69 70 69 72 74 75 79 77 74 69 74 76 78 79 82 85 87 86 83 83 81 83 84 84 86 88 89 87 87
52 43 30 25 22 24 41 53 61 63 57 53 49 51 52 61 65 67 68 68 70 73 73 73 71 65 65 66 66 70 74 82 84 84 83 84 81 74 83 87 91 94 92 94 94
49 40 27 21 15 22 37 46 55 64 59 46 43 43 42 45 56 65 65 66 69 70 69 68 64 59 57 57 60 62 67 75 80 78 77 80 83 68 85 92 99 98 99 98 98
45 33 22 15 11 20 28 36 49 63 52 47 39 37 37 40 45 49 57 60 55 53 52 52 51 49 50 52 54 56 60 65 72 75 74 83 82 78 89 96 102 103 103 107 106
42 30 22 15 6 12 17 29 43 59 55 43 38 32 32 36 39 43 45 44 43 39 42 42 40 43 46 47 48 50 54 62 65 69 71 79 80 86 95 99 102 109 108 108 108
39 30 18 8 3 13 22 27 36 57 52 43 33 29 30 34 37 37 37 36 37 36 36 38 40 39 42 45 48 51 53 58 61 66 69 74 77 80 99 103 104 108 106 99 100
34 30 16 8 5 15 24 36 47 52 47 39 35 31 33 33 32 32 32 33 32 33 34 38 39 40 42 42 45 49 46 45 47 49 51 59 71 82 87 92 96 96 93 93 97
31 28 15 10 9 15 25 35 47 50 43 36 31 28 32 35 35 32 28 29 33 35 35 34 37 39 38 30 23 21 23 30 38 45 49 50 57 76 73 74 77 74 64 67 78
29 27 15 10 8 16 24 35 43 45 39 32 27 30 31 26 23 23 26 30 33 33 33 33 32 25 17 14 15 19 24 28 29 35 39 41 40 58 65 65 63 56 49 52 59
28 30 18 11 12 25 32 40 43 39 34 31 32 32 29 27 26 27 28 29 29 29 30 26 21 17 12 12 15 19 18 18 25 31 37 43 46 60 52 44 48 46 42 42 43
30 26 18 10 14 29 38 41 41 35 29 33 34 31 27 24 26 27 27 30 33 32 26 21 16 12 9 11 15 11 13 19 21 30 36 44 42 54 43 37 36 35 36 34 35
35 26 18 10 10 25 35 38 34 30 32 37 34 28 25 24 23 27 33 34 31 27 22 16 13 9 10 7 10 5 13 14 23 37 37 41 47 36 34 30 24 22 20 21 24
34 26 17 9 7 12 21 23 26 29 38 37 31 27 26 27 28 30 31 29 26 22 18 15 9 9 6 4 4 5 13 14 30 35 39 41 48 36 31 28 24 17 10 4 3
36 26 15 7 12 20 23 26 28 32 38 37 32 30 32 32 31 29 27 25 22 19 17 11 9 7 6 3 6 6 11 18 25 37 35 41 45 40 31 29 28 27 24 18 9

GFSSW_250_spd_015.txt.gz
Wind_Speed
55 47 39 34 36 47 58 65 70 77 81 83 83 83 85 83 83 84 80 81 78 78 79 82 83 83 82 79 80 79 74 74 72 75 83 79 74 72 72 72 73 72 74 72 70
63 53 44 37 35 42 55 63 68 75 81 86 85 85 84 85 84 83 86 81 78 80 78 79 81 82 81 80 77 77 76 77 80 79 79 77 73 73 73 77 77 75 76 75 73
66 61 52 43 37 39 49 60 67 72 76 83 83 85 84 85 84 88 83 84 82 81 81 79 79 79 80 80 77 77 77 79 81 82 81 77 76 75 73 73 72 72 74 76 74
72 65 60 53 44 40 44 58 64 69 75 79 82 86 85 83 83 86 85 85 86 84 81 78 78 78 78 78 80 77 76 76 80 82 79 76 76 75 75 76 73 73 73 72 72
77 73 67 59 51 43 44 50 64 69 73 79 82 87 88 82 85 83 87 86 86 84 84 82 80 77 76 75 77 75 75 75 77 76 74 75 76 73 71 72 72 72 71 71 69
79 78 72 62 56 49 43 49 56 69 73 77 82 86 88 86 85 84 82 84 84 84 84 83 83 79 77 75 73 72 74 73 74 76 75 73 76 71 67 69 70 69 68 67 69
76 72 69 68 55 54 46 45 53 62 73 76 79 83 86 89 89 86 85 83 83 86 85 86 84 83 81 78 72 71 72 73 77 79 75 74 73 69 71 70 67 68 68 65 68
77 71 64 59 52 48 50 46 50 56 66 75 77 78 84 85 93 91 86 84 83 82 84 84 84 82 81 81 77 73 74 73 80 77 76 76 71 75 73 69 67 66 65 66 68
80 72 61 51 46 40 43 46 47 54 62 71 74 75 81 85 91 91 86 87 86 83 81 80 81 81 78 79 81 79 75 78 79 75 75 75 73 78 74 70 68 69 70 68 68
79 67 52 43 36 31 34 45 47 51 58 65 69 72 76 84 92 89 87 87 87 83 77 77 77 77 78 79 81 84 81 76 77 78 75 72 72 78 79 73 71 72 73 72 70
77 60 47 38 32 25 26 42 50 50 54 50 59 69 75 81 84 94 88 84 82 79 78 72 71 73 78 77 79 81 83 84 85 82 79 79 74 73 78 75 75 75 77 77 74
77 60 46 37 32 25 27 37 47 46 49 51 59 63 73 74 78 87 87 86 84 79 75 74 74 74 67 69 73 75 79 84 87 87 83 82 78 77 77 76 77 79 78 79 81
72 58 48 38 30 20 23 32 43 44 49 52 53 59 64 69 73 80 82 83 82 79 76 73 74 71 64 64 68 71 74 79 82 86 87 86 83 84 83 84 84 82 84 84 81
73 57 50 39 26 16 22 29 39 46 50 51 49 55 56 58 65 72 74 78 79 84 81 73 75 70 67 68 69 68 67 70 76 84 84 86 82 82 84 84 84 85 84 85 86
69 55 48 34 21 12 17 26 34 39 48 48 49 50 48 52 56 61 69 73 74 78 80 78 74 73 73 71 69 70 67 68 70 74 79 81 79 81 89 89 90 90 89 90 92
65 54 44 28 18 9 11 18 25 35 44 43 42 39 41 45 49 52 57 63 67 70 73 72 74 74 72 72 71 71 72 67 69 69 66 72 71 69 79 87 91 91 91 93 96
62 51 42 27 17 9 1 14 20 27 40 42 39 36 38 40 43 48 54 56 58 60 63 69 69 71 71 71 71 71 71 64 62 59 58 61 62 60 68 79 86 88 89 93 96
59 48 37 24 14 8 13 14 17 37 38 40 38 33 32 31 33 39 48 51 56 57 60 62 63 68 68 68 66 61 59 54 51 50 49 50 50 56 65 73 79 86 92 96 100
55 44 34 21 13 8 15 19 27 39 42 39 32 27 25 23 28 33 37 46 54 57 59 58 60 60 59 57 52 49 47 43 40 39 41 49 53 57 67 75 78 84 93 99 104
54 42 33 22 13 7 19 25 32 38 39 36 34 29 24 24 26 27 33 39 47 51 52 53 49 45 45 39 37 36 36 34 36 40 44 49 56 59 70 72 77 86 94 101 103
52 38 34 22 11 9 20 29 42 40 36 31 29 23 21 21 24 26 29 31 32 33 37 37 37 36 32 28 28 30 34 35 39 40 38 42 39 55 61 67 74 84 91 97 100
48 38 32 24 13 5 13 31 39 41 38 31 27 19 18 16 21 22 26 29 30 31 29 31 29 24 25 27 28 30 28 22 19 18 27 32 37 50 56 64 71 71 80 79 71
48 37 32 26 15 9 14 31 36 37 32 28 21 17 16 24 25 25 27 29 30 30 30 27 25 26 26 27 25 21 14 13 17 20 25 30 40 44 51 61 62 56 60 61 54
49 39 31 28 17 6 15 30 36 31 26 23 19 19 27 29 29 28 27 26 27 26 28 28 25 28 26 24 17 12 11 14 15 14 25 30 34 45 47 48 43 45 46 45 41
52 38 31 28 22 9 12 19 25 24 22 20 21 29 30 29 27 27 27 26 26 27 28 28 34 27 22 18 15 14 16 9 9 15 20 32 37 45 45 35 35 37 33 31 28
50 37 29 23 18 18 19 17 16 16 15 23 28 27 28 27 26 24 23 24 29 33 33 32 25 22 18 16 16 18 15 8 15 17 25 35 46 39 38 36 33 30 24 19 14
45 38 25 17 10 7 11 15 15 17 25 29 29 26 24 22 20 23 26 30 35 33 28 24 21 19 20 20 19 17 11 12 16 20 27 39 42 41 39 36 31 25 27 25 22

GFSSW_250_spd_018.txt.gz
Wind_Speed
69 66 56 44 35 32 35 44 53 63 73 79 83 85 86 91 91 89 89 96 92 95 96 94 93 93 91 91 88 84 80 76 74 80 85 84 75 70 69 70 72 71 70 69 65
71 65 61 55 42 35 34 40 50 60 70 77 83 87 86 89 92 88 93 93 93 89 90 94 95 95 90 89 89 85 79 79 80 81 84 82 76 73 70 73 75 72 72 69 69
78 71 62 54 49 38 34 39 46 57 66 75 82 87 89 85 90 93 91 91 92 92 86 88 90 89 90 91 88 82 80 81 83 84 80 77 77 76 72 72 76 76 71 74 73
81 75 68 58 53 44 36 37 44 53 63 71 79 85 87 87 86 91 91 92 91 91 89 86 85 85 87 86 86 83 82 81 83 83 80 76 76 74 74 74 77 80 72 75 73
83 73 65 60 49 42 39 37 42 50 61 70 77 83 84 88 90 90 90 92 92 91 89 86 85 82 81 83 86 84 83 80 82 82 78 76 76 78 76 75 77 80 74 72 74
85 76 64 54 44 41 37 37 42 47 57 67 75 79 84 88 93 89 87 89 91 92 91 88 84 81 81 79 80 76 78 77 78 79 80 80 81 82 76 80 78 79 79 75 73
87 76 63 51 40 35 33 37 40 46 55 64 73 77 83 91 94 93 90 87 87 89 91 89 90 83 80 79 77 75 75 74 78 83 81 79 77 75 79 79 76 77 78 76 76
84 73 61 48 39 28 30 35 39 46 52 61 68 74 80 85 94 95 94 90 86 84 88 90 90 89 87 80 78 76 75 74 77 79 78 77 72 77 81 77 74 75 74 74 73
84 70 58 48 40 27 26 31 38 46 52 58 62 72 80 82 91 97 94 92 90 87 84 87 90 89 88 81 78 75 72 73 76 73 75 71 70 77 77 75 74 74 72 71 74
85 69 57 49 40 27 22 28 35 46 51 54 58 65 73 82 85 100 97 93 90 88 85 82 82 83 85 84 82 82 80 76 73 72 72 69 67 75 75 76 76 75 74 74 74
84 70 58 50 40 26 20 28 34 43 48 47 47 57 69 77 79 88 96 95 94 88 82 78 76 74 80 83 83 81 79 78 80 75 70 72 69 73 78 73 74 76 78 77 78
82 70 59 53 39 24 15 25 28 36 43 42 49 59 65 74 79 84 96 93 91 89 83 79 75 77 77 79 79 77 77 81 81 78 75 74 70 74 77 75 75 75 74 77 77
82 68 62 51 35 19 9 19 26 33 40 44 50 54 59 67 74 76 88 95 92 89 86 84 79 73 75 72 70 73 76 78 77 78 78 80 78 79 79 80 79 79 80 79 78
80 68 63 49 32 16 7 16 22 31 43 48 48 50 48 57 66 73 78 85 87 88 85 86 83 77 76 74 69 67 71 72 73 77 76 76 76 81 85 87 88 89 87 86 87
78 69 59 47 28 12 2 9 15 29 43 47 48 47 43 47 57 66 67 74 81 84 87 82 82 76 77 75 70 66 66 66 66 67 70 73 72 75 84 89 92 95 95 95 94
77 67 55 43 27 10 9 7 14 27 40 44 42 37 37 42 48 56 63 68 75 76 79 86 78 72 70 68 64 65 65 64 62 62 59 66 66 61 72 80 87 92 95 97 100
77 65 55 39 29 11 14 12 19 27 36 37 36 35 37 39 42 47 58 61 65 71 74 87 82 75 73 71 68 67 66 65 64 65 63 64 62 64 71 76 79 83 87 92 94
74 62 48 36 28 16 18 19 23 34 36 40 35 34 33 31 34 43 48 56 57 64 70 73 75 72 72 74 71 71 63 64 64 65 65 65 64 71 78 75 74 76 78 82 87
72 63 45 35 27 13 17 28 36 36 36 32 31 30 27 26 27 32 38 45 50 54 61 64 66 68 67 70 72 70 66 66 65 64 67 68 66 72 71 67 66 69 71 75 77
73 63 42 36 32 18 10 25 36 37 37 35 33 25 26 26 27 31 35 38 42 46 49 54 55 59 60 59 61 63 61 64 69 66 62 63 58 61 56 55 58 63 67 73 78
72 62 43 36 34 21 11 25 32 35 34 31 27 24 21 23 26 28 30 32 38 42 44 48 49 46 46 46 50 55 60 61 57 52 46 40 47 45 48 52 58 65 71 76 82
68 59 43 35 37 25 10 22 29 30 31 28 24 18 15 17 18 22 27 29 32 37 42 42 44 45 48 48 48 46 46 40 37 34 33 36 41 35 42 48 57 63 68 75 81
67 57 43 34 33 20 16 21 23 26 25 22 19 13 11 14 15 19 22 24 27 29 33 38 42 44 42 41 38 32 34 32 32 31 31 31 33 36 42 53 58 61 66 65 66
66 57 47 33 29 19 16 20 19 21 19 18 14 11 12 18 23 22 24 26 27 28 28 29 30 32 34 33 31 32 30 29 26 24 24 27 30 35 42 51 54 56 49 51 53
63 54 43 32 25 18 13 15 17 16 15 15 11 11 15 21 26 27 29 30 30 31 32 30 29 29 29 30 29 29 28 21 22 21 24 23 24 37 46 42 39 35 38 43 41
56 48 41 27 20 15 11 11 14 14 12 11 12 14 21 26 28 29 29 30 32 31 30 29 28 29 30 29 29 27 24 23 22 23 21 26 29 33 34 33 29 26 32 34 28
52 45 37 26 13 8 6 6 7 7 10 13 15 21 24 25 27 27 27 25 26 26 27 28 32 34 32 29 25 25 25 28 27 18 19 20 30 34 31 31 29 22 25 25 27

GFSSW_250_spd_021.txt.gz
Wind_Speed
72 67 64 61 55 47 41 43 48 52 58 67 76 81 90 95 97 102 108 112 109 108 106 105 104 102 96 96 92 90 86 79 81 84 85 82 75 69 67 68 66 65 63 64 62
78 71 68 65 61 55 49 45 48 54 58 63 75 79 87 95 95 95 107 114 113 107 100 108 109 104 100 98 94 92 84 82 85 87 88 82 75 72 70 68 69 69 68 66 63
80 76 71 66 63 56 52 46 50 55 58 62 70 79 83 89 94 98 99 105 105 108 108 99 104 104 100 102 94 90 84 86 89 91 90 82 77 74 71 69 72 73 72 69 68
82 77 73 68 59 53 49 47 49 55 59 61 67 77 82 85 93 98 98 99 104 104 106 107 96 101 101 101 97 94 89 89 90 91 90 83 78 77 75 74 72 74 75 73 70
84 80 74 67 56 50 42 44 47 56 59 64 65 72 80 84 92 97 96 95 98 100 100 102 101 96 98 97 96 96 93 89 89 88 83 82 80 78 76 77 77 75 73 74 72
87 83 75 64 50 42 37 39 42 53 61 66 66 70 77 83 93 96 97 94 94 101 99 98 101 97 91 92 92 92 91 90 89 87 84 82 81 78 75 76 78 77 74 72 69
91 85 77 60 44 36 31 33 37 49 62 65 66 68 76 82 90 93 94 96 92 98 101 97 97 95 95 92 90 87 90 89 89 89 86 85 80 75 78 80 76 73 73 73 71
93 85 74 55 44 34 28 29 31 43 59 64 65 66 74 81 85 94 96 96 94 95 99 97 95 95 90 85 86 83 84 84 84 87 87 85 75 79 81 83 73 72 74 76 77
95 88 73 55 46 35 28 27 31 38 54 61 62 64 71 78 84 92 98 99 97 92 98 97 95 95 93 90 84 80 77 79 83 84 83 79 75 82 80 78 74 74 76 78 80
95 88 70 57 46 37 26 24 30 34 49 58 60 62 69 79 81 87 96 97 99 91 90 97 94 92 90 86 83 81 81 81 79 76 75 73 69 77 78 75 74 74 77 78 79
95 85 66 54 48 36 23 21 27 30 43 52 52 57 65 69 75 80 91 98 97 93 88 90 90 86 89 89 88 83 79 75 77 78 72 71 68 71 75 71 72 75 77 76 76
95 83 66 53 48 37 23 19 21 26 34 50 54 59 61 66 73 79 85 95 96 93 88 85 81 82 87 87 86 85 83 81 80 77 72 72 70 69 72 72 71 70 72 75 74
94 83 67 55 46 36 21 13 18 23 32 48 51 52 59 62 69 76 82 88 95 91 86 84 78 80 79 80 84 83 83 85 85 79 75 74 71 72 73 72 71 73 74 75 76
93 81 64 52 42 33 14 2 15 23 34 47 50 50 52 55 63 72 78 80 90 90 89 88 83 82 75 75 74 75 79 79 79 81 79 77 72 77 79 79 79 78 76 77 79
90 76 63 48 40 30 10 6 14 21 35 47 48 46 44 44 52 62 68 73 80 88 91 85 81 82 80 76 74 72 70 72 77 76 75 79 79 77 84 83 83 85 84 85 85
87 74 62 43 36 26 7 10 17 24 38 46 43 37 34 37 43 52 59 67 70 77 85 87 82 79 77 73 71 69 68 67 66 64 63 70 69 67 78 83 85 86 88 89 91
86 73 57 39 33 30 9 8 13 21 35 36 32 33 33 35 37 42 50 57 67 69 77 92 90 80 76 72 70 66 65 63 63 64 63 65 63 65 76 76 78 81 85 87 88
83 71 54 39 34 23 10 14 23 27 32 35 30 29 28 28 31 38 44 51 59 62 69 80 88 83 75 75 76 71 70 69 67 67 65 65 63 70 71 69 70 72 75 79 82
81 69 55 40 33 27 8 13 27 32 31 28 26 24 22 23 26 30 37 42 50 55 55 62 79 85 80 75 75 75 73 71 66 64 61 60 63 69 68 69 70 73 78 80 82
80 69 58 42 38 22 8 23 31 35 30 29 27 23 21 22 24 30 33 36 41 47 50 53 58 66 71 72 79 79 76 66 64 65 64 63 67 65 64 67 70 72 76 81 84
77 69 58 44 36 22 20 26 30 31 29 26 20 18 18 17 19 23 27 29 34 40 44 47 49 53 57 59 62 70 74 66 62 62 67 67 71 67 66 70 74 76 75 75 78
72 65 56 43 32 23 19 20 22 22 23 20 17 13 10 10 10 15 24 29 31 34 40 42 45 48 53 56 56 57 57 59 58 58 59 62 67 61 64 66 65 66 68 72 75
66 60 53 40 31 24 20 17 18 18 18 18 15 14 14 18 17 17 19 24 28 31 35 36 35 34 36 42 48 53 51 48 46 49 49 50 51 48 53 57 57 58 63 66 68
62 57 48 42 29 22 15 15 13 15 13 13 12 8 10 13 16 19 22 24 26 28 32 37 39 41 42 42 43 40 40 40 40 40 35 37 42 48 49 48 48 52 57 58 59
58 53 47 37 30 20 14 9 9 8 8 6 5 5 5 9 17 22 23 26 29 31 32 34 38 39 38 37 36 35 35 34 32 31 33 39 43 43 42 43 44 50 51 48 43
54 51 45 36 28 21 11 7 4 3 3 5 6 6 8 11 17 22 22 23 25 27 28 30 31 32 33 31 29 30 30 31 31 32 38 38 37 32 35 38 42 42 38 30 32
52 47 43 37 26 17 12 7 3 4 6 9 11 11 10 14 19 21 22 23 24 25 28 29 29 28 27 27 30 30 30 31 35 38 36 29 25 27 33 34 29 28 22 22 27

GFSSW_250_spd_024.txt.gz
Wind_Speed
85 76 69 62 61 61 55 56 49 51 57 65 68 76 86 95 100 104 106 125 115 112 112 110 105 103 100 95 90 90 85 80 79 81 83 78 73 70 69 69 68 65 64 62 62
86 77 73 66 64 61 59 55 56 53 58 67 71 74 82 89 97 98 110 119 127 111 110 115 109 106 103 98 93 90 85 85 85 86 88 80 75 72 70 69 66 66 65 64 63
88 80 75 68 65 64 59 54 54 52 55 64 70 74 79 84 92 97 107 115 119 125 108 111 112 109 105 101 95 91 85 87 90 92 93 85 77 74 72 71 71 70 69 68 66
89 83 77 72 65 59 55 49 52 50 52 60 67 74 76 82 89 99 102 111 114 119 121 107 111 111 109 105 99 93 90 91 92 91 91 87 79 75 73 75 75 74 73 72 71
90 85 79 75 67 55 47 44 49 47 46 56 64 71 76 78 86 96 102 104 110 112 114 112 105 109 111 109 105 98 93 93 94 92 91 88 82 79 77 77 76 76 75 72 71
92 87 80 74 64 52 46 41 44 42 42 51 61 67 74 73 85 91 98 102 107 110 107 111 103 103 107 109 107 101 99 98 96 94 91 88 85 81 80 82 79 77 75 74 72
94 89 82 72 59 49 42 38 39 38 40 45 57 64 70 73 79 85 90 97 102 104 106 110 111 105 90 93 102 101 102 100 97 97 94 90 86 75 84 80 80 79 80 75 74
95 88 83 71 58 44 36 34 33 35 35 42 54 63 66 73 74 83 86 91 99 100 101 105 114 109 105 90 83 93 100 98 99 98 95 94 85 80 83 83 79 77 75 74 72
97 91 83 70 54 41 35 29 24 29 33 41 52 63 69 72 78 82 83 89 99 100 102 101 102 107 109 104 91 76 82 92 98 97 97 93 84 84 85 84 80 74 73 73 75
97 89 82 66 52 44 37 25 17 24 32 41 51 62 72 72 73 72 77 84 97 100 100 99 99 98 98 97 100 86 73 80 89 93 93 89 84 87 86 82 80 79 78 77 76
95 89 80 63 53 46 34 21 11 18 31 38 49 62 65 67 64 69 75 82 100 100 98 97 97 91 87 90 96 101 96 78 78 80 80 79 76 80 83 79 80 81 80 77 78
92 84 73 60 55 42 29 15 5 13 25 36 49 59 63 64 64 69 75 82 96 99 104 99 91 90 90 86 87 91 91 82 78 79 78 76 71 72 76 75 76 75 77 78 77
91 84 71 61 51 38 30 14 2 14 23 35 46 57 61 62 61 60 70 79 92 95 96 86 85 86 82 85 84 83 83 87 84 77 73 72 70 72 73 74 74 74 74 77 76
87 83 75 61 46 36 31 15 3 14 23 32 47 54 58 58 57 60 69 76 88 92 90 86 84 88 85 83 83 82 83 84 85 82 74 70 68 70 71 77 75 72 73 74 74
85 82 73 62 44 37 28 13 6 12 17 26 44 51 47 47 50 53 67 76 88 87 93 88 85 86 83 77 80 83 83 81 82 81 78 77 72 74 77 76 77 77 77 77 77
84 81 70 59 42 34 27 14 5 8 17 25 37 38 38 39 44 50 60 65 77 82 86 79 82 83 81 76 74 78 80 79 78 80 77 80 78 76 80 81 81 80 81 82 83
85 80 68 55 39 34 23 13 10 16 19 29 33 30 31 34 37 41 51 57 65 74 79 75 78 75 74 73 72 76 75 72 69 69 71 76 77 82 76 86 86 86 86 85 87
83 79 70 57 48 34 23 19 21 23 25 29 28 26 25 25 26 33 41 51 57 66 75 74 69 72 75 72 70 68 68 67 65 65 65 66 67 71 71 76 78 77 79 82 84
82 77 72 62 53 39 25 19 25 27 29 25 22 20 20 19 22 27 31 42 51 56 61 65 67 71 72 67 66 65 67 68 67 63 66 65 68 67 65 67 70 71 72 74 77
77 72 66 59 52 40 26 18 22 25 23 22 23 21 16 17 19 22 30 35 43 46 51 59 65 68 72 74 70 65 65 62 60 59 62 62 65 66 65 64 66 70 72 73 74
72 67 63 54 47 38 27 19 16 14 15 15 13 11 10 8 12 18 22 28 33 38 42 49 53 57 61 70 75 72 68 61 61 62 65 68 68 68 66 65 64 65 70 73 75
67 63 58 49 41 36 28 19 16 17 16 15 14 11 10 10 9 12 19 24 28 33 38 43 46 48 53 67 77 82 78 76 72 64 66 66 68 60 58 59 61 71 71 73 73
63 58 51 46 37 33 26 19 14 15 14 13 10 7 7 10 13 16 18 20 23 27 32 36 40 42 43 46 53 62 73 79 73 69 71 69 72 66 63 63 61 60 65 67 68
60 54 48 43 36 29 25 17 13 10 10 9 7 4 2 0 4 14 19 22 23 25 27 32 35 39 42 41 42 44 48 54 58 56 52 52 49 51 51 51 56 59 59 55 54
57 51 45 39 34 26 21 16 10 5 3 1 2 1 2 6 9 12 14 20 25 27 28 31 33 34 33 34 37 39 39 41 41 39 36 39 41 43 47 49 49 46 47 47 49
56 49 44 40 33 27 18 12 10 7 7 7 6 7 8 8 8 10 16 17 19 21 25 30 32 35 36 35 34 34 35 36 35 33 34 35 38 41 38 41 40 41 39 45 45
52 49 43 38 33 27 22 17 11 11 11 11 12 12 13 11 8 10 11 14 18 22 26 28 31 35 36 34 34 33 35 35 33 31 29 35 35 32 36 36 38 33 39 41 36

GFSSW_250_spd_027.txt.gz
Wind_Speed
90 85 74 65 60 56 55 55 57 61 54 60 68 72 77 86 96 103 109 120 122 123 118 116 112 110 105 100 96 92 88 84 80 84 86 82 77 77 77 73 70 68 66 68 68
92 86 76 68 64 59 59 60 63 64 59 59 67 73 77 83 90 98 109 115 123 124 123 118 116 113 109 103 97 93 86 85 86 87 86 84 77 74 74 73 73 70 68 68 66
94 87 79 73 68 65 64 61 61 59 61 55 64 71 78 81 86 96 111 115 116 124 124 122 119 117 111 106 100 93 87 86 89 92 89 85 79 75 73 72 71 69 68 68 67
94 88 80 75 71 68 62 58 55 52 52 49 58 65 75 82 86 94 102 112 117 120 125 126 120 117 114 106 101 97 90 89 91 92 90 86 80 77 74 73 70 68 68 68 68
94 88 82 77 75 69 58 51 47 43 42 43 45 57 73 80 81 90 95 105 112 115 124 127 120 117 116 113 106 97 98 97 98 93 91 88 82 79 77 75 73 72 70 70 69
93 90 84 80 76 64 52 45 41 37 36 38 38 48 65 75 77 87 91 99 105 112 114 128 123 114 115 115 112 102 101 101 100 94 89 87 86 80 78 79 78 77 75 71 70
95 89 85 81 72 57 46 39 35 33 33 34 35 44 56 68 75 80 86 92 101 108 113 119 127 123 112 112 113 107 98 100 98 94 90 87 83 79 84 81 81 81 79 76 73
95 90 85 79 65 49 39 34 31 29 29 29 32 39 52 68 73 87 85 88 96 100 110 117 123 128 115 104 108 106 104 99 97 92 90 90 84 81 82 82 82 81 78 76 77
94 90 86 75 58 45 36 33 27 22 22 24 31 41 53 65 73 74 76 81 89 95 103 108 117 120 121 102 94 100 97 101 101 98 95 90 85 84 84 83 83 81 80 80 79
94 87 83 71 58 46 39 32 24 16 16 21 30 42 54 64 69 68 72 76 83 90 98 106 108 110 123 113 93 87 89 97 101 100 98 92 88 91 90 88 86 84 85 83 81
93 84 80 70 55 47 34 27 21 8 11 21 34 46 53 60 63 68 69 73 79 83 92 99 99 104 107 120 101 89 83 89 97 97 96 94 90 91 93 91 91 89 87 85 85
91 86 80 71 57 44 32 28 17 4 14 22 33 41 50 58 60 56 61 66 73 79 86 93 94 99 107 107 108 98 85 75 77 83 89 91 89 96 97 94 92 90 91 90 91
90 85 81 71 55 43 34 29 17 3 13 19 25 37 51 57 55 54 58 60 69 76 82 89 92 95 98 100 101 98 93 80 69 70 72 76 80 87 92 92 90 89 88 89 89
90 84 82 70 53 42 38 28 19 10 7 16 24 36 48 54 52 53 57 60 65 74 79 88 90 91 95 94 96 98 100 97 90 75 66 66 66 74 79 81 80 78 77 78 76
90 83 81 68 55 45 39 26 20 14 10 13 26 34 42 46 45 50 51 57 68 71 79 84 81 86 88 88 91 89 94 93 94 92 84 72 66 73 70 68 69 72 74 77 77
90 84 80 70 59 50 42 29 22 18 14 10 21 33 41 41 43 45 49 57 64 72 79 80 75 81 85 87 86 87 83 83 84 80 78 79 82 77 71 70 70 71 72 72 73
87 83 79 72 60 52 42 28 23 23 21 18 24 32 33 35 36 44 47 53 59 67 73 74 67 74 79 81 81 82 81 78 77 76 75 77 78 81 79 75 73 72 71 72 74
82 80 77 72 62 54 48 35 27 24 23 21 23 24 26 26 31 35 35 40 53 61 62 63 58 64 65 73 76 77 78 75 71 71 73 78 78 77 79 80 80 79 77 79 80
76 73 71 67 61 54 48 38 29 19 18 20 20 18 21 24 28 30 31 37 47 50 56 56 52 56 62 65 70 73 74 76 73 74 76 75 75 76 74 75 79 80 80 84 87
69 67 65 62 55 49 41 32 27 22 17 14 12 16 15 19 21 25 28 33 40 45 52 53 49 51 58 66 67 68 68 73 74 68 68 72 75 72 71 70 69 73 80 80 78
64 62 59 57 51 43 38 33 25 20 17 16 14 14 13 13 14 19 23 28 34 43 49 55 46 50 52 57 60 62 61 62 65 66 64 68 68 65 64 65 67 69 72 74 76
61 56 54 52 46 40 35 30 24 19 16 14 13 10 8 9 11 15 19 24 28 35 43 47 47 47 51 52 56 60 58 58 58 60 61 60 59 61 65 65 62 63 66 69 71
58 53 50 47 43 37 32 27 23 19 17 15 13 10 7 3 3 10 14 18 24 29 35 39 43 47 49 51 52 55 57 61 61 61 57 57 55 54 55 56 58 61 62 67 70
56 50 46 42 40 34 27 22 18 16 15 15 13 10 6 5 3 1 10 16 20 24 29 34 38 41 44 46 46 48 50 57 63 62 62 61 55 54 57 61 63 61 67 65 61
56 49 43 40 35 31 28 21 16 13 11 11 10 10 8 8 3 2 4 10 16 21 25 29 32 35 36 39 40 40 41 45 50 56 62 65 59 62 64 54 65 60 57 53 48
53 49 44 38 34 31 27 19 15 13 10 9 10 10 9 10 7 7 9 11 15 17 19 22 26 32 37 37 38 38 37 36 40 41 47 52 52 52 53 53 50 49 46 38 36
53 47 43 39 35 29 27 24 19 15 13 13 13 13 12 11 7 5 9 13 15 18 20 21 23 27 29 33 35 37 37 38 38 38 38 38 38 40 41 40 41 40 34 34 32

GFSSW_250_spd_030.txt.gz
Wind_Speed
87 83 76 70 65 60 55 50 49 48 52 54 60 68 72 75 81 94 103 115 122 127 126 123 118 114 110 106 102 103 99 89 88 88 86 83 80 81 78 74 77 77 78 79 75
88 83 77 73 68 63 57 54 54 55 56 59 62 66 75 78 83 88 102 114 119 125 128 124 121 115 112 107 104 101 99 90 91 92 90 89 82 79 79 79 75 74 77 80 79
88 82 77 74 71 65 61 58 54 55 56 61 62 65 71 81 83 87 96 110 116 123 128 129 125 121 116 111 107 103 93 98 96 95 94 91 87 81 79 77 78 76 72 74 77
85 83 81 77 72 69 63 57 52 48 49 53 56 58 65 81 83 87 95 104 113 120 125 129 127 122 117 114 108 104 100 97 103 100 98 93 90 83 81 79 77 77 80 77 74
84 84 83 77 73 67 60 52 44 40 42 43 46 49 58 73 80 87 94 94 109 116 122 128 129 125 120 116 113 105 101 102 105 103 98 94 90 86 84 81 79 77 77 78 79
85 83 82 77 72 63 52 44 38 36 37 35 37 43 52 62 80 86 90 94 101 112 120 125 130 128 123 119 116 110 106 107 104 103 98 94 90 86 86 86 81 79 78 76 75
86 84 83 78 68 57 43 36 31 30 32 32 32 37 47 60 74 84 87 95 97 107 114 122 129 130 125 121 119 113 108 110 109 106 99 92 90 84 85 84 84 78 76 76 78
87 86 82 77 66 53 40 33 28 25 24 27 30 35 48 56 68 80 89 86 95 101 110 119 124 132 127 122 118 116 111 110 110 106 100 94 88 84 86 84 81 80 78 78 79
90 88 81 75 63 53 42 33 26 20 15 20 28 36 45 54 63 77 80 85 91 95 103 112 122 126 128 122 117 115 111 110 107 105 100 96 91 87 86 86 85 83 80 79 78
89 87 80 74 62 51 43 31 21 12 10 18 28 37 46 51 58 71 75 79 84 90 94 106 116 121 125 123 115 108 111 111 109 107 104 97 93 91 88 88 88 83 82 79 78
88 86 81 76 63 51 38 28 19 12 5 16 27 38 44 51 59 66 72 75 77 83 86 98 106 111 119 122 120 114 103 112 114 110 106 101 95 90 92 91 92 89 86 81 79
89 88 83 79 66 48 37 29 22 13 1 15 25 33 42 49 60 67 62 61 65 72 80 89 97 102 111 119 121 120 105 99 107 108 104 101 98 99 94 93 93 90 83 86 84
90 88 82 79 67 50 39 28 26 20 13 16 25 31 39 48 52 54 57 62 67 71 73 78 89 95 104 110 120 125 118 102 99 99 99 99 101 103 100 93 92 91 88 89 85
90 88 82 79 69 55 41 32 28 24 18 18 22 29 37 47 51 54 61 66 60 60 69 73 82 88 95 105 109 115 120 106 93 89 90 92 94 98 98 94 93 93 92 92 90
91 87 82 77 71 58 46 35 30 24 22 14 16 21 32 40 46 54 57 54 56 62 65 71 79 83 87 93 102 104 110 112 97 83 81 75 84 90 88 87 89 89 89 91 91
89 86 82 77 73 61 49 41 32 29 26 19 15 22 35 43 49 51 52 56 57 60 64 68 74 78 81 86 92 97 104 107 102 85 74 70 73 76 78 80 83 85 85 86 86
85 82 78 74 71 64 53 44 38 35 27 23 17 20 32 36 39 42 45 51 54 58 61 62 65 68 72 78 86 92 94 98 102 92 74 71 67 64 66 65 69 70 71 72 73
80 76 73 70 67 62 54 44 39 34 24 20 19 23 28 30 29 29 37 41 45 50 54 54 55 58 62 67 74 81 84 92 95 97 93 86 79 75 74 69 66 66 68 70 73
75 71 67 63 60 55 48 42 35 28 22 16 15 16 22 28 27 27 29 31 38 44 48 48 50 50 53 60 68 75 78 83 87 92 95 93 91 87 83 82 77 77 78 77 75
72 66 61 58 53 50 44 39 32 26 20 18 13 12 17 21 25 27 28 29 31 35 38 42 41 43 46 51 59 67 74 75 77 81 88 89 86 79 78 74 77 79 80 81 81
68 62 57 53 50 45 38 34 31 27 21 16 13 9 8 12 16 22 25 27 30 33 35 36 35 35 40 45 52 56 65 68 73 77 80 81 79 79 74 70 71 75 74 76 79
64 59 53 49 46 41 36 33 27 23 20 16 13 9 4 4 11 16 23 26 29 30 33 35 34 36 36 39 46 49 59 64 65 71 72 75 76 74 74 75 75 76 81 80 79
60 55 48 45 42 38 33 28 24 19 17 16 13 9 6 4 3 8 15 21 26 29 33 34 36 33 38 39 41 47 50 54 60 65 67 66 67 72 74 72 68 68 68 68 72
59 54 45 40 36 34 31 27 22 19 15 14 13 11 9 7 2 3 6 13 20 24 30 34 35 34 33 38 42 45 50 53 54 56 58 59 60 63 68 66 65 60 59 62 67
58 52 45 36 33 31 28 24 20 15 13 11 10 9 9 9 5 2 4 7 12 18 23 27 31 32 33 35 39 43 47 52 54 52 55 52 51 51 50 49 52 55 54 56 61
57 52 45 36 30 27 26 24 20 16 12 9 8 7 7 8 8 5 6 7 10 14 19 23 27 32 34 35 36 39 42 47 51 54 52 54 53 51 52 51 50 56 54 58 62
56 50 45 39 31 26 23 21 17 15 12 10 9 7 5 6 3 6 9 10 10 11 14 19 25 29 31 33 34 34 37 37 37 36 40 43 48 48 49 49 53 58 56 58 56

GFSSW_250_spd_033.txt.gz
Wind_Speed
78 74 71 68 67 64 59 54 51 48 48 51 60 65 69 69 76 83 91 100 113 124 129 128 124 120 115 110 109 100 98 97 95 91 90 92 85 86 86 83 85 82 78 79 75
76 72 71 67 67 67 64 58 57 53 51 55 62 67 73 76 78 83 90 100 109 118 128 130 128 126 119 115 110 102 96 98 97 97 95 88 92 84 82 83 85 85 82 81 80
77 73 70 68 68 65 67 63 57 53 51 55 64 71 74 82 82 80 89 98 106 115 122 132 132 129 124 119 113 104 94 103 106 100 94 91 90 89 86 81 80 81 82 82 82
78 75 72 71 67 66 63 58 52 49 48 52 59 70 78 82 86 88 87 96 104 112 119 128 134 130 125 120 114 107 101 105 104 102 100 96 94 85 89 89 84 81 80 78 80
79 76 74 73 71 65 58 50 46 41 40 43 51 63 74 84 87 89 90 95 99 108 115 125 131 131 127 123 120 112 106 103 100 106 104 99 93 90 86 84 83 83 80 80 76
82 78 76 76 72 60 47 41 38 36 35 36 42 51 57 73 85 92 91 93 97 105 112 120 128 133 132 127 122 116 112 108 104 106 106 100 98 92 89 85 85 81 80 77 78
84 83 80 78 72 59 45 38 34 28 29 33 34 40 45 58 73 87 91 91 97 102 111 119 126 132 132 131 126 122 115 112 109 109 105 104 98 92 92 88 87 84 82 80 78
86 85 83 79 71 61 53 41 33 26 24 28 32 35 45 47 59 80 91 93 91 98 106 115 123 129 136 132 131 124 120 116 111 112 108 104 99 99 94 90 87 87 85 84 84
87 86 84 81 73 62 51 42 32 24 18 23 29 34 35 44 55 73 87 90 89 92 101 108 115 122 132 135 133 127 120 117 113 111 110 107 103 97 94 92 92 91 88 87 88
89 87 85 82 76 62 51 43 30 15 9 14 21 30 39 48 58 69 74 83 89 88 95 99 109 115 126 133 132 123 120 116 116 111 110 107 102 98 96 95 93 92 90 88 86
90 88 85 82 77 64 51 39 25 13 6 6 20 30 40 47 54 63 77 86 96 90 90 92 100 107 118 125 131 128 123 116 118 112 111 108 105 100 100 99 96 92 91 86 83
90 88 84 82 78 66 53 40 28 20 12 6 20 31 38 46 55 63 68 82 81 81 82 87 89 102 115 122 125 126 124 117 114 115 113 110 105 101 102 99 98 93 92 87 82
92 90 87 83 80 70 58 40 29 25 17 10 18 27 31 36 40 47 61 71 73 70 73 78 83 90 105 114 116 122 126 120 114 112 114 110 107 105 102 101 100 98 95 90 87
93 91 88 84 80 74 60 45 29 26 21 16 15 22 30 34 40 45 48 60 61 65 68 67 74 80 95 105 113 116 121 121 117 108 113 113 111 107 104 102 99 97 96 94 92
91 89 87 83 80 73 63 48 32 29 25 19 16 19 27 32 39 45 51 56 58 61 62 61 65 72 84 95 103 112 113 120 120 113 109 110 112 107 105 102 100 97 97 96 94
89 86 82 79 76 71 64 49 36 34 28 23 18 20 30 37 44 49 52 56 56 57 57 58 62 69 78 87 93 101 110 113 121 116 111 108 108 105 105 103 101 102 100 99 97
85 82 77 73 72 69 63 53 45 38 30 23 17 19 22 29 37 42 47 51 51 51 53 56 60 66 72 77 83 93 105 109 111 118 112 106 104 106 103 102 103 102 101 100 98
81 77 73 66 65 62 58 51 45 34 30 23 18 13 15 21 30 35 39 42 42 44 45 49 57 60 66 68 75 85 92 102 101 107 110 105 102 100 95 97 100 100 98 97 94
78 74 69 63 58 56 50 44 40 34 27 21 16 10 10 11 14 17 22 26 30 35 37 40 44 49 54 60 64 75 84 89 100 101 109 109 101 90 92 93 91 89 86 88 86
74 71 64 59 55 52 47 42 36 30 24 17 12 8 7 10 14 17 19 21 25 27 32 32 35 40 45 50 55 63 73 81 89 97 104 105 106 89 75 80 86 83 80 82 77
70 67 61 55 50 48 45 39 33 27 23 18 12 6 1 6 13 16 18 21 23 25 27 28 29 33 38 43 50 57 64 69 77 85 95 99 99 95 79 73 72 72 71 69 69
67 63 58 52 45 42 43 36 31 25 19 15 11 8 4 3 9 14 18 21 24 26 28 28 28 31 32 33 41 49 54 62 69 75 80 82 84 94 93 84 79 76 75 78 81
66 62 57 51 43 37 37 34 29 25 20 15 12 8 4 1 7 12 15 19 22 26 28 28 29 30 32 34 36 39 47 55 62 67 70 70 73 78 93 93 90 84 80 81 84
65 60 54 49 42 36 33 32 26 21 16 11 7 6 5 2 2 6 10 14 17 21 23 25 27 29 32 37 36 37 36 40 46 58 63 60 59 59 66 75 83 85 83 82 83
62 59 49 46 42 35 30 29 27 22 18 14 10 5 4 5 4 5 8 11 14 18 21 23 25 26 28 36 40 43 45 43 47 48 49 53 55 65 68 70 72 76 81 84 85
59 56 50 43 41 35 30 27 27 22 18 16 14 12 10 8 7 7 9 9 12 13 15 18 21 24 27 30 37 39 41 45 44 42 43 44 53 57 60 63 64 65 67 69 71
58 54 51 44 40 36 31 27 26 23 18 16 15 14 13 12 9 9 10 12 12 14 14 16 19 22 26 29 30 34 39 40 44 49 51 51 49 49 51 56 58 59 58 58 57

GFSSW_250_spd_036.txt.gz
Wind_Speed
77 71 69 67 65 65 63 59 54 52 50 49 50 55 60 63 67 75 79 90 99 109 117 127 126 123 120 116 115 113 108 98 96 92 89 91 90 87 83 82 77 78 72 69 71
77 74 71 68 66 63 62 63 61 56 52 50 55 58 64 67 68 72 80 88 98 106 115 123 128 126 123 119 120 118 108 98 97 95 97 98 92 88 86 85 83 81 80 77 76
76 73 70 69 66 64 64 61 57 56 51 48 54 61 67 70 70 73 82 88 97 105 113 120 129 128 126 126 122 119 108 102 101 103 101 99 91 91 87 87 85 84 82 81 80
78 75 71 66 63 60 58 55 50 46 45 42 47 56 71 72 77 79 83 89 95 103 109 117 127 130 129 127 122 119 112 110 107 105 106 99 92 95 87 89 89 87 81 83 84
81 78 76 71 66 62 53 46 42 39 36 35 40 52 66 76 81 82 84 89 93 99 107 115 125 132 133 128 127 119 114 112 112 105 99 99 98 96 94 87 84 80 84 85 84
83 81 79 76 71 65 53 40 35 31 31 33 36 45 62 77 80 84 87 88 91 98 104 111 121 131 137 132 129 123 120 117 115 103 102 103 101 97 93 89 82 85 83 80 81
87 84 82 79 74 68 56 43 34 29 25 26 31 39 54 71 78 86 89 88 90 95 101 109 118 128 134 136 132 128 123 118 115 107 108 103 100 94 93 91 87 84 87 83 78
89 85 84 81 76 72 59 47 39 32 23 20 25 34 45 54 71 86 90 88 90 94 98 106 114 125 132 136 134 131 128 122 118 111 111 106 97 97 97 92 91 86 84 82 84
90 86 85 81 78 73 60 51 42 32 23 16 20 29 34 44 64 79 86 87 88 91 96 103 111 119 127 132 136 133 127 124 121 116 114 108 100 98 97 93 92 90 86 83 81
95 89 85 81 77 74 63 54 42 30 17 10 15 25 35 41 52 70 80 86 88 91 96 100 105 113 120 127 129 131 128 125 125 122 114 109 104 98 98 96 95 93 92 87 85
98 92 89 86 80 77 68 59 46 29 17 7 9 19 32 40 49 63 76 86 89 90 91 100 100 100 107 118 123 129 135 130 128 123 119 111 107 100 98 98 98 95 92 89 88
99 94 92 89 82 77 71 62 49 31 24 13 4 15 27 36 45 53 66 79 88 87 90 86 87 94 101 110 117 124 130 130 129 123 119 115 109 105 99 97 98 93 91 89 88
98 96 93 90 83 78 73 66 49 33 27 18 7 12 25 34 43 49 54 64 77 83 78 78 81 88 91 101 109 115 123 130 127 123 121 119 112 107 102 104 101 96 93 92 90
97 95 93 90 85 78 74 67 51 38 28 20 12 12 14 23 36 48 54 68 81 85 85 83 81 79 83 88 99 110 113 122 125 126 124 120 115 111 108 106 104 100 96 93 91
95 92 91 87 84 76 73 68 55 43 32 21 14 17 20 18 24 37 50 60 64 66 72 73 69 71 75 79 90 102 107 112 120 127 125 121 118 115 110 107 105 102 99 98 94
92 89 87 84 80 75 71 66 58 47 36 30 21 9 15 23 26 30 37 49 58 63 64 66 64 67 64 71 80 89 101 109 114 122 123 121 119 115 113 110 106 102 101 100 98
90 85 82 79 75 71 66 61 58 47 34 31 29 17 5 12 22 28 29 34 41 45 50 56 60 59 62 65 71 80 90 102 111 113 118 119 117 115 113 111 107 106 104 101 100
85 83 78 74 69 66 62 58 53 45 36 29 27 24 17 4 11 22 29 34 36 38 40 46 51 55 56 60 67 75 84 93 100 107 109 116 115 114 109 110 111 108 107 104 102
81 78 76 71 64 60 57 54 49 43 35 28 23 18 16 12 0 7 12 17 21 26 31 36 42 47 50 54 59 64 70 79 91 98 102 106 108 110 104 109 107 108 107 105 103
76 75 73 67 61 55 51 49 45 40 33 25 20 16 11 9 7 5 4 6 10 16 21 26 31 37 41 46 50 56 64 69 80 89 95 99 101 102 104 105 104 104 105 104 105
73 70 68 65 58 52 46 43 40 38 33 24 16 12 8 5 1 5 8 12 14 15 18 18 22 27 33 40 44 49 55 62 70 80 87 92 94 93 96 100 102 99 97 96 97
76 67 65 63 56 50 45 41 37 32 29 25 18 12 7 3 1 5 9 11 14 16 18 19 22 24 26 31 37 45 51 57 62 71 79 83 87 91 95 94 93 92 91 89 90
75 67 63 59 53 48 43 38 35 31 26 21 17 14 11 6 2 5 9 11 14 17 19 19 20 22 25 27 31 38 44 52 57 64 73 78 79 85 88 89 88 85 84 80 80
75 69 62 58 53 47 41 37 33 30 25 21 17 13 9 7 7 6 7 12 15 18 20 21 21 23 25 30 32 34 37 42 49 56 64 69 71 79 84 88 89 89 81 68 67
70 69 62 56 51 46 40 36 31 30 27 23 20 15 11 11 10 9 9 10 13 16 19 20 21 21 26 30 33 34 36 38 42 50 51 59 61 67 72 81 88 92 94 94 87
69 65 63 56 49 45 40 34 29 27 27 23 19 18 16 12 12 13 12 12 12 14 16 18 21 22 25 30 34 38 42 42 41 40 46 49 52 59 63 67 71 71 71 73 79
69 65 62 57 50 44 40 35 30 25 26 25 21 18 17 17 15 12 13 14 14 14 15 16 17 20 24 28 32 38 43 42 42 40 39 40 49 57 56 58 56 55 55 58 63

GFSSW_250_spd_039.txt.gz
Wind_Speed
89 79 69 67 62 60 59 60 60 57 52 52 54 53 55 58 62 65 71 81 86 91 101 112 117 121 120 115 114 112 108 104 98 95 93 97 92 84 80 79 74 71 69 69 65
91 81 72 67 60 58 57 57 58 59 55 51 52 56 59 60 62 65 73 81 87 91 97 109 117 122 124 121 118 116 113 104 100 98 96 94 95 89 86 80 75 73 72 72 68
92 82 74 72 65 60 55 54 53 52 48 48 46 51 62 62 63 70 73 81 87 91 95 106 118 120 126 125 122 117 111 109 105 104 101 97 92 92 88 83 78 76 74 74 71
91 84 76 74 68 63 57 51 45 44 41 39 42 45 58 63 69 71 72 80 87 92 95 103 111 119 127 125 123 118 118 114 111 109 104 100 95 93 88 85 82 79 75 73 73
90 83 77 76 71 67 61 54 40 31 34 35 36 43 52 65 73 72 75 80 86 93 95 99 108 118 126 127 126 122 120 116 116 112 107 105 100 96 90 84 82 81 79 76 76
93 83 79 79 75 70 64 52 39 27 25 29 29 35 48 65 70 76 78 79 85 91 95 97 107 117 126 130 129 124 124 120 119 113 112 110 107 100 95 89 82 77 78 82 80
96 86 81 81 78 72 67 54 42 34 25 21 25 31 45 58 69 78 81 82 85 91 95 97 108 114 121 130 131 131 127 124 121 117 115 114 111 102 99 92 85 82 82 82 78
99 91 85 83 82 75 69 57 47 40 27 15 20 29 38 53 67 77 82 82 82 87 95 99 104 111 120 128 132 132 130 127 122 119 117 119 113 105 102 93 90 84 84 83 80
101 95 89 86 84 77 70 61 50 40 30 16 10 21 36 51 62 71 79 82 82 86 93 96 99 106 116 125 131 133 130 126 125 122 120 118 115 109 106 97 92 87 86 84 82
107 98 92 87 85 81 72 66 52 39 29 17 3 18 32 44 52 63 74 81 83 85 88 92 96 101 110 119 122 126 126 126 126 124 123 119 116 113 107 101 94 91 88 87 85
108 100 93 88 86 81 74 69 56 39 32 22 8 9 23 36 44 54 69 77 80 79 79 87 91 92 102 111 122 129 135 132 128 129 125 121 120 116 108 103 99 95 91 88 87
109 101 95 90 88 84 76 70 62 45 36 26 14 3 17 27 36 44 57 67 72 75 77 82 85 90 98 107 118 125 131 133 133 131 127 124 122 118 109 102 100 98 93 91 88
110 101 95 90 87 85 77 70 65 51 38 31 19 8 10 22 30 38 52 60 69 72 72 76 81 87 93 101 109 118 126 133 133 131 128 124 122 119 112 106 103 101 96 93 90
109 101 93 90 85 83 76 70 64 55 41 31 22 11 4 15 25 32 43 58 62 70 69 70 77 81 85 92 99 108 118 124 130 132 131 128 122 120 116 110 107 103 98 97 91
104 98 93 89 85 81 75 67 61 57 45 32 25 16 8 6 17 27 39 49 61 65 66 71 69 68 78 85 89 99 106 116 123 127 130 128 123 118 118 114 108 107 103 99 95
101 94 90 87 85 78 73 66 60 57 48 36 25 23 13 6 9 19 30 47 57 63 70 69 66 65 68 74 78 84 94 105 114 120 125 125 122 120 117 116 114 110 107 103 99
97 91 88 84 81 76 70 65 57 53 48 41 27 20 22 9 7 15 26 35 48 56 61 68 69 66 67 65 67 72 78 93 102 110 113 121 120 119 118 116 114 113 110 107 104
94 88 88 83 77 73 68 63 55 50 46 39 30 22 18 17 6 6 10 25 36 47 53 58 59 58 55 55 59 62 72 80 93 99 105 112 111 114 117 119 117 114 112 109 106
93 87 83 81 73 69 64 59 56 48 44 38 29 24 20 17 15 12 7 10 21 34 43 47 52 54 57 54 56 60 63 70 78 90 100 106 104 106 108 110 115 116 115 112 110
95 84 80 78 70 65 60 54 50 46 42 37 32 22 17 15 13 14 12 10 9 16 21 27 32 41 46 48 48 51 60 62 69 74 86 94 96 98 100 104 107 110 113 114 112
98 83 78 77 70 62 57 50 45 41 38 36 32 25 17 12 9 7 8 10 10 12 13 15 20 28 33 38 44 48 52 56 62 67 74 82 85 90 94 97 101 103 104 105 105
100 85 77 75 70 60 51 45 43 37 32 29 28 25 20 12 7 4 2 5 9 12 14 16 18 20 26 33 37 41 46 50 55 61 68 71 77 83 89 94 99 101 100 99 102
101 88 78 73 70 61 51 43 38 35 30 26 23 19 17 13 8 4 3 6 8 10 13 17 19 22 26 29 33 39 45 48 51 59 63 66 68 78 85 90 92 95 97 98 99
103 91 79 71 66 62 52 43 35 32 28 24 21 19 17 14 10 7 5 8 11 13 14 16 20 25 26 29 31 34 37 41 45 50 56 60 64 70 79 84 87 88 90 91 92
104 94 79 70 64 60 52 45 35 30 27 23 19 18 16 15 12 9 9 8 10 13 16 17 19 20 25 29 32 33 35 38 43 47 50 53 56 64 70 76 81 82 83 85 84
102 96 81 71 63 55 50 44 34 28 26 23 18 15 15 14 13 12 10 9 11 12 15 19 22 23 26 28 30 34 36 37 41 43 49 50 51 58 64 69 73 77 78 79 77
99 93 82 70 62 54 47 42 36 27 25 23 20 16 14 15 13 12 13 12 11 13 14 15 18 23 27 28 31 35 39 41 42 42 43 44 49 53 57 62 68 73 75 76 80

GFSSW_250_spd_042.txt.gz
Wind_Speed
93 85 75 68 63 57 54 54 52 53 58 53 54 56 57 58 61 63 63 74 79 86 93 101 109 115 118 119 116 114 111 105 97 99 95 90 87 82 82 79 76 72 71 67 63
98 82 73 67 63 59 55 52 50 51 54 53 49 53 57 62 62 64 68 73 78 83 92 99 107 113 117 120 123 119 109 104 102 98 97 94 87 86 83 83 79 74 71 70 68
98 85 73 65 61 60 56 50 48 47 47 46 44 46 52 60 64 68 73 73 79 83 91 97 104 111 117 120 123 117 111 111 109 109 101 96 94 88 86 82 80 77 73 69 65
100 88 74 69 64 62 60 54 49 36 40 42 38 41 45 59 68 73 72 74 79 84 89 96 101 106 114 118 118 122 117 115 113 110 106 102 99 94 90 85 82 80 77 74 68
101 91 76 70 67 67 64 59 51 34 27 34 33 31 40 57 68 69 72 74 78 84 87 94 98 103 110 117 116 122 121 119 116 115 111 107 103 100 95 89 85 86 83 77 75
103 92 79 71 70 69 67 62 53 37 24 21 27 26 37 53 60 69 74 74 77 84 87 91 96 101 107 117 119 120 124 119 120 117 114 110 107 105 99 94 86 87 87 81 77
105 94 82 75 71 70 69 64 55 43 30 20 18 23 35 48 60 70 77 76 78 84 88 90 96 99 102 114 121 121 126 125 122 119 115 116 112 107 101 98 91 85 85 85 80
105 98 88 81 76 71 71 65 57 46 34 19 11 18 33 43 58 67 74 78 79 81 87 90 93 96 100 109 120 120 126 125 124 121 120 120 117 112 106 101 96 89 84 81 82
107 102 93 87 79 76 74 68 60 48 35 23 9 14 29 39 51 65 72 79 79 80 84 87 90 94 99 104 116 120 123 122 125 123 121 120 118 116 111 106 97 91 87 83 78
107 102 98 92 83 79 76 71 63 51 38 28 13 6 24 35 46 56 67 73 77 78 80 83 88 91 94 99 107 114 121 126 126 125 123 120 121 121 116 109 103 98 93 90 85
105 103 100 94 88 81 78 73 65 54 41 32 20 5 14 29 41 50 63 71 75 76 74 78 83 84 90 97 103 115 120 124 125 125 125 124 122 123 119 112 105 104 100 96 93
107 104 100 95 91 82 77 74 67 58 47 34 25 13 4 19 31 44 57 66 72 72 75 81 77 84 90 96 102 111 117 127 126 127 127 128 124 123 120 113 108 105 104 101 96
108 104 98 95 89 83 77 72 67 60 52 39 25 18 7 9 23 34 47 59 65 70 74 70 72 80 84 90 97 106 115 122 125 126 127 127 126 125 120 116 111 109 106 104 101
107 105 97 94 89 82 75 69 64 57 53 41 27 19 14 3 15 28 34 52 59 67 71 67 68 75 82 88 93 102 110 117 123 128 129 130 127 126 123 118 114 111 110 108 104
107 104 95 92 88 82 75 68 64 58 51 44 33 19 15 9 7 19 33 45 52 56 57 61 62 69 76 82 88 96 104 113 120 126 129 129 128 126 124 118 113 112 110 110 107
107 103 97 91 88 81 73 67 61 56 49 44 36 21 15 10 8 8 25 39 47 50 54 59 60 62 69 76 82 87 96 105 116 122 127 128 127 126 123 119 117 114 112 111 108
108 105 99 92 89 81 72 65 59 54 49 43 38 28 15 13 11 9 17 33 42 47 52 56 56 60 64 67 75 81 89 97 107 117 121 125 124 120 124 120 117 115 114 111 109
106 105 102 93 89 83 73 63 57 50 46 41 38 30 18 11 15 12 11 23 34 41 46 45 45 50 51 56 66 75 78 84 93 102 115 122 118 117 123 122 119 116 114 112 112
104 104 101 94 85 83 75 62 54 46 42 38 35 30 23 11 10 15 9 13 28 35 40 40 44 47 51 56 58 63 66 74 78 89 100 108 113 118 123 122 119 118 117 115 112
107 104 102 94 85 79 75 65 52 44 38 34 30 29 21 15 9 11 16 18 23 26 32 36 40 44 46 51 55 58 60 62 68 77 86 93 98 104 112 116 118 119 120 117 115
108 106 104 94 83 75 72 64 51 44 36 31 27 23 19 14 9 7 11 16 16 20 22 26 32 37 42 46 48 51 54 60 65 66 72 79 86 96 101 109 112 113 111 110 110
107 104 105 99 81 74 67 62 51 40 35 31 26 20 18 14 9 4 8 10 14 19 22 21 22 23 28 35 40 45 48 53 58 63 70 75 78 85 93 99 103 110 107 106 105
105 104 105 101 89 72 65 59 52 40 31 28 25 20 14 13 9 5 2 8 12 16 18 20 22 23 26 29 33 39 44 48 54 61 65 69 74 79 83 89 95 98 100 104 103
102 106 106 105 91 69 64 57 50 41 29 25 23 19 14 11 8 5 2 3 9 13 15 19 23 27 29 31 33 36 37 42 48 51 57 61 68 71 77 80 83 89 93 96 96
101 104 104 104 91 71 61 57 48 43 31 22 21 19 13 8 7 5 2 3 6 11 16 19 22 24 26 28 31 34 38 41 45 50 49 55 58 63 66 71 74 78 83 88 92
98 101 103 100 95 69 61 54 47 41 32 22 19 19 16 12 8 7 6 6 6 10 14 18 23 27 29 31 32 35 37 41 44 46 48 50 55 60 63 64 69 69 72 79 83
97 102 100 96 94 76 61 52 45 38 33 23 19 19 18 15 12 11 9 9 8 9 12 15 19 24 29 32 35 36 41 40 41 41 43 43 51 52 55 58 60 62 66 70 74

GFSSW_250_spd_045.txt.gz
Wind_Speed
93 81 75 69 63 55 52 51 51 49 47 48 50 52 53 57 61 63 67 73 80 83 86 90 95 101 104 110 116 117 115 109 103 105 101 97 94 86 83 77 74 73 71 67 65
93 86 75 68 62 55 51 49 48 45 44 46 50 49 57 60 61 64 72 76 79 81 86 88 92 99 103 108 116 114 114 109 105 105 104 101 95 91 87 81 78 76 75 70 68
96 89 77 69 62 56 53 51 44 42 40 40 41 42 51 58 64 71 75 78 79 78 83 87 90 96 101 106 112 120 114 113 113 110 107 103 98 96 92 86 82 79 78 74 70
99 92 82 72 63 58 56 55 50 42 33 31 36 34 40 51 63 73 71 75 77 76 81 83 86 91 96 102 110 115 113 113 115 110 107 104 103 99 95 89 85 81 72 77 72
102 93 86 79 70 58 59 57 53 47 34 28 29 30 33 47 58 68 71 76 78 77 77 83 85 89 94 100 108 117 115 116 117 113 109 107 105 99 99 94 89 84 80 73 77
104 97 89 82 75 63 59 59 55 49 39 31 26 25 31 43 49 63 72 79 79 78 77 79 84 88 94 101 108 114 115 117 117 114 112 110 109 104 99 98 92 86 83 82 80
105 100 94 88 81 70 63 61 58 53 41 31 24 21 31 39 49 61 68 75 78 78 76 80 85 88 91 99 106 112 118 118 118 116 115 115 112 106 102 100 96 89 86 84 83
104 102 97 93 85 76 68 63 61 58 43 31 22 16 27 38 47 59 65 69 75 74 74 79 83 87 90 98 105 111 118 117 116 120 118 118 113 107 109 98 97 95 91 88 82
104 99 97 97 87 81 72 67 63 60 45 32 22 13 19 32 44 51 59 64 72 73 76 81 83 84 87 95 101 108 113 113 117 121 120 116 115 113 110 104 101 97 94 92 88
103 100 96 98 89 83 75 70 65 60 49 36 26 14 10 24 37 45 58 65 71 77 78 89 80 82 83 89 92 97 105 112 115 120 121 119 115 113 113 112 108 104 102 95 90
103 102 97 98 92 85 77 72 64 61 52 41 30 16 5 16 30 40 57 66 73 80 80 74 73 74 79 85 92 98 106 110 114 119 119 123 119 113 116 117 115 111 105 99 93
102 100 98 98 93 86 78 73 66 61 54 44 34 18 8 5 24 34 49 63 69 71 75 74 69 75 80 84 90 95 101 109 116 117 119 124 122 119 118 118 118 115 110 106 100
102 100 101 98 94 87 81 73 68 61 55 47 35 23 10 3 13 27 41 56 62 69 72 65 65 70 74 77 85 92 97 106 113 116 118 121 120 121 117 122 118 114 113 108 103
101 99 102 96 97 88 81 74 67 60 56 47 36 26 12 8 7 18 34 50 59 64 65 64 64 70 73 77 81 87 92 100 110 114 118 122 116 117 122 122 121 117 113 111 108
97 95 102 96 98 87 81 74 66 55 53 48 39 30 14 9 6 12 26 42 46 59 60 59 61 65 67 72 77 83 89 95 105 111 115 120 119 118 122 122 121 120 116 113 109
98 96 100 102 98 91 82 75 67 59 48 46 40 30 20 8 8 9 21 33 35 49 54 57 59 59 65 69 74 80 85 92 98 106 113 119 120 119 120 119 123 123 118 114 111
98 95 99 103 98 93 83 76 67 60 49 44 37 30 23 9 6 9 17 28 32 40 46 47 51 56 59 64 67 72 79 85 93 99 107 118 119 118 122 120 121 122 121 116 113
94 97 94 101 102 97 86 75 67 59 50 41 35 29 22 14 4 8 9 19 23 30 35 39 40 47 53 56 60 66 74 80 87 95 100 113 114 114 121 119 120 120 119 115 113
92 98 94 100 105 99 91 74 65 57 49 40 35 30 23 19 10 7 10 11 12 24 33 36 38 43 45 51 57 59 64 73 81 88 96 101 110 115 118 118 119 119 118 118 115
91 97 100 95 105 100 93 79 63 55 46 38 33 29 24 19 15 6 11 11 9 11 24 31 34 34 39 47 50 53 58 63 72 81 88 94 102 109 116 121 120 118 119 118 116
90 93 100 96 106 101 90 79 61 53 45 34 29 25 20 16 15 9 3 11 15 16 18 27 27 27 34 36 44 51 53 57 67 71 75 82 90 98 105 110 115 117 121 120 116
86 91 99 97 101 101 91 75 61 52 44 33 25 21 16 12 9 6 2 7 12 18 21 21 22 26 31 40 47 52 55 60 61 62 70 74 77 88 96 103 108 110 113 116 117
85 93 102 107 93 100 84 68 62 51 42 34 24 19 14 9 5 2 2 6 11 16 20 21 22 25 27 30 32 38 48 55 56 60 61 69 71 82 88 95 101 106 109 108 109
83 91 101 106 99 99 85 60 58 49 40 34 25 18 15 10 5 2 5 7 10 14 18 21 23 25 27 31 35 37 40 45 49 52 63 62 72 78 80 83 88 93 96 101 105
82 91 96 105 101 92 88 64 54 49 39 34 27 19 15 14 9 6 5 8 12 16 18 19 21 24 26 28 29 31 31 34 40 52 54 63 63 69 73 77 79 80 83 87 93
80 88 94 101 109 87 89 66 49 45 41 33 27 19 16 14 12 11 10 10 11 13 16 21 24 26 27 28 28 29 31 34 37 41 47 51 56 64 67 69 72 75 77 79 79
82 88 95 98 107 91 86 72 46 42 37 33 27 22 17 16 14 13 14 14 13 13 15 18 20 25 29 31 32 33 38 37 38 39 43 44 54 55 59 62 66 68 68 69 70

GFSSW_250_spd_048.txt.gz
Wind_Speed
93 91 90 88 80 69 63 54 48 47 49 50 46 49 51 54 59 65 70 77 82 87 96 98 97 97 101 103 102 103 109 110 110 108 107 102 98 91 87 80 77 72 72 72 67
95 93 95 91 83 69 62 55 48 48 44 43 45 44 50 55 58 62 71 79 83 86 92 99 99 98 99 101 104 109 107 102 105 111 109 106 103 96 91 86 80 75 73 73 71
100 97 97 92 86 73 64 57 51 48 43 37 38 40 44 49 58 61 71 78 82 84 88 96 102 102 100 101 102 104 95 99 107 110 113 111 106 99 96 88 83 76 76 75 66
98 96 98 94 89 80 67 59 54 51 43 34 29 33 36 38 50 64 71 78 80 83 86 90 97 101 100 99 97 103 99 102 104 109 112 115 112 104 98 92 88 83 80 77 71
96 100 100 96 91 85 71 62 56 53 45 36 28 25 28 32 42 59 69 72 77 81 83 85 89 100 102 101 101 98 98 105 107 111 112 114 112 109 99 94 93 87 87 83 78
100 100 102 100 94 89 74 64 59 56 49 42 31 25 23 32 40 54 62 74 77 78 81 82 86 95 100 99 99 97 102 104 106 114 113 112 111 108 103 98 99 93 93 88 81
100 101 104 102 94 91 77 69 60 57 51 45 32 23 19 28 39 48 61 69 75 79 78 80 86 88 94 96 96 96 101 100 103 113 114 113 111 105 103 100 99 96 95 90 84
102 100 103 102 96 92 81 73 63 57 53 47 33 26 16 20 33 42 50 64 73 76 78 81 80 84 90 93 92 92 95 101 104 109 111 114 107 105 106 104 102 98 100 97 92
100 100 101 103 101 92 85 76 69 59 54 49 36 29 15 12 21 39 49 60 65 73 78 79 78 81 84 88 87 87 90 97 101 105 113 112 108 110 107 104 103 101 100 98 96
98 101 101 103 103 91 87 78 72 63 57 51 40 31 19 8 15 31 44 55 62 71 79 79 79 78 79 81 77 81 87 92 95 103 110 113 111 110 109 107 105 103 100 98 95
96 102 101 101 102 90 87 80 73 65 58 52 41 32 19 4 9 25 41 49 58 67 73 78 76 73 77 81 81 83 87 92 93 99 106 114 114 110 109 109 107 103 102 99 98
93 101 103 100 103 95 89 83 72 67 58 53 43 32 20 6 5 23 35 44 56 64 71 75 73 71 74 76 79 80 84 89 94 99 106 112 114 113 108 108 109 107 104 103 103
91 96 100 100 101 96 90 84 73 66 59 52 45 34 22 7 5 15 29 40 54 63 68 70 71 71 72 75 76 77 82 86 92 97 102 109 115 112 109 111 111 109 106 106 106
87 93 97 97 97 97 89 85 75 66 59 49 43 34 23 11 5 9 19 27 46 60 66 69 71 68 68 71 74 75 78 82 89 95 98 105 111 112 112 113 112 111 110 108 106
86 90 96 97 94 94 93 85 76 66 58 49 44 38 28 15 4 8 17 22 41 51 57 58 57 59 60 67 69 70 71 77 84 91 94 98 106 108 112 113 111 112 113 112 111
85 90 97 96 90 89 92 87 78 67 59 51 43 37 28 19 4 5 11 13 27 38 45 50 54 55 58 61 64 66 67 72 79 86 89 94 100 107 109 113 115 117 116 115 112
84 88 95 100 92 88 91 85 78 69 59 51 42 36 28 19 8 3 8 8 20 31 34 38 41 49 55 56 56 59 62 66 73 79 83 88 94 102 111 112 114 116 117 120 118
83 88 94 99 96 86 87 83 79 70 56 49 43 36 29 22 11 3 5 5 14 20 21 27 36 43 49 50 53 55 59 64 68 74 80 84 89 98 107 110 110 115 117 119 120
80 86 91 96 93 83 84 86 78 69 55 46 39 33 31 24 16 3 3 7 9 14 19 21 27 38 45 50 51 52 55 59 65 70 75 79 84 94 102 105 109 113 116 118 119
77 82 90 96 97 88 84 87 73 67 56 45 39 31 27 22 16 9 4 8 12 14 17 23 24 29 37 43 46 48 54 54 58 65 69 73 78 87 96 104 108 112 116 118 117
76 82 88 94 99 99 80 82 70 65 58 43 36 30 26 21 15 10 5 7 13 16 21 24 27 31 33 36 41 45 47 51 57 60 65 70 73 81 88 96 104 110 114 115 116
72 79 86 92 100 98 82 79 80 62 58 43 34 29 23 21 17 9 6 5 8 15 20 22 25 26 29 33 37 40 45 48 51 56 61 66 68 76 84 92 99 105 110 115 116
71 76 84 91 101 103 90 85 80 62 55 49 33 26 22 18 16 11 6 1 3 8 15 18 21 24 28 32 34 38 44 52 56 63 61 63 59 74 83 89 95 99 103 107 109
71 75 81 92 102 108 103 85 84 66 52 49 35 25 19 14 13 13 8 4 4 7 11 15 22 24 29 32 37 40 48 53 59 55 55 55 65 78 83 83 84 89 95 99 100
72 76 79 92 98 105 109 88 85 71 47 50 37 25 18 13 9 9 9 8 9 10 12 13 14 16 21 27 31 39 45 46 47 52 55 66 62 74 76 79 79 80 84 90 95
71 74 81 89 98 105 113 98 85 77 45 48 39 27 19 16 11 9 11 12 12 13 15 17 19 21 22 25 27 28 31 34 41 47 51 59 59 69 69 69 74 77 79 82 85
71 74 81 84 94 100 112 103 83 80 51 50 40 31 21 16 15 14 13 14 15 15 17 20 22 25 27 28 28 30 31 32 35 39 42 44 58 60 64 67 70 71 74 77 78

GFSSW_250_spd_051.txt.gz
Wind_Speed
85 85 90 92 92 92 91 84 75 57 45 42 45 43 43 45 53 58 63 74 81 87 91 98 100 99 96 96 97 100 98 111 109 108 108 104 101 98 91 83 76 71 67 66 61
87 90 90 96 94 96 93 87 75 62 48 43 41 42 42 43 51 58 66 76 82 86 89 94 100 99 98 95 97 99 101 98 110 112 109 108 105 103 99 91 82 75 71 68 65
88 89 90 95 97 99 95 89 77 63 52 46 40 37 39 42 45 59 65 76 83 87 88 93 97 101 99 95 96 100 96 99 106 114 113 110 108 107 103 98 90 83 78 75 71
90 91 92 95 97 99 98 92 84 63 54 49 40 33 31 36 40 54 65 74 81 87 89 91 92 96 97 94 98 99 95 98 102 108 114 111 110 107 104 103 97 88 82 79 76
89 91 95 96 98 102 99 94 87 65 57 51 42 32 26 30 36 44 59 71 75 83 87 88 88 92 96 95 95 96 100 101 105 106 107 112 114 110 106 102 99 93 87 84 80
88 90 95 96 98 102 101 96 90 66 58 53 44 33 25 25 34 42 50 62 74 80 85 86 87 90 96 97 96 96 96 98 102 102 103 106 112 113 111 102 97 95 90 87 84
86 88 94 97 98 103 102 98 90 69 60 53 46 35 25 20 25 37 49 59 72 77 81 85 87 87 92 96 95 95 96 98 100 98 100 104 105 102 110 107 102 98 95 91 89
88 87 93 97 99 105 105 98 91 72 62 54 47 36 22 15 20 32 44 53 66 73 79 83 86 86 89 96 97 95 96 99 98 99 99 97 96 101 107 107 106 102 98 95 93
85 87 92 98 97 103 105 101 92 75 63 57 48 38 24 14 13 22 41 55 64 73 76 80 81 83 84 93 99 98 93 95 97 96 96 98 97 102 106 102 106 108 102 97 97
84 85 90 95 101 100 101 98 92 77 64 58 50 41 25 15 9 21 35 49 61 70 76 79 77 80 82 83 89 94 94 93 95 90 92 94 99 103 105 104 104 106 106 101 98
83 82 88 94 100 100 100 99 94 77 64 58 50 41 24 16 6 17 31 43 56 65 73 72 70 72 76 79 84 92 98 100 97 96 93 98 98 100 103 103 102 100 103 105 99
82 84 87 91 97 98 100 97 93 78 66 56 50 40 26 18 5 15 24 33 42 58 65 71 72 75 77 81 83 87 94 99 99 99 97 96 97 99 101 102 102 99 100 103 101
81 82 85 90 94 95 96 94 90 78 68 57 48 39 26 21 10 5 16 22 41 55 61 65 68 72 75 77 78 82 88 94 96 97 96 98 95 92 98 100 99 96 98 101 103
79 81 86 89 90 94 94 91 92 80 70 58 47 39 30 22 13 2 10 25 39 48 56 60 66 71 75 73 73 78 84 87 90 91 90 93 88 91 100 99 95 96 96 101 104
80 81 84 90 91 92 89 91 89 81 70 59 48 40 33 22 15 5 12 18 33 45 53 58 63 69 70 69 71 72 77 80 81 82 85 83 82 87 93 93 97 101 100 102 104
78 77 83 89 88 92 91 90 83 83 73 63 49 39 33 25 15 9 11 15 24 35 41 51 59 65 68 65 65 69 70 74 73 72 75 77 75 84 89 92 101 100 102 104 106
76 75 80 86 90 88 87 86 82 81 72 64 51 39 33 27 17 9 8 10 10 18 28 43 48 52 53 57 60 62 64 66 67 67 67 72 71 80 87 90 96 107 105 108 109
72 74 79 86 93 89 85 84 80 79 73 65 54 40 32 27 18 10 6 13 13 12 16 23 32 37 43 50 54 57 57 59 60 61 65 68 68 76 84 89 93 101 112 112 110
70 72 76 84 94 89 82 82 78 75 70 65 58 40 32 26 21 10 6 11 16 15 13 15 23 33 39 45 50 52 53 53 58 60 61 62 65 73 82 83 87 94 99 115 115
69 70 73 82 90 99 83 75 80 75 65 64 59 44 31 25 20 11 2 10 18 21 20 17 22 28 34 39 44 48 51 49 51 56 57 59 64 71 75 79 82 87 93 102 113
67 68 72 79 89 99 93 75 73 74 67 62 60 51 32 23 19 14 4 9 16 23 25 25 24 27 28 32 39 44 44 45 52 53 55 59 62 67 69 76 81 85 88 95 104
65 66 69 75 85 97 105 78 74 73 66 62 57 52 37 22 16 14 11 8 12 20 24 26 25 27 29 33 35 36 40 43 46 49 52 55 59 64 67 73 80 84 86 88 95
63 63 67 72 82 94 102 101 75 74 64 63 57 49 39 27 14 12 8 3 6 14 22 23 26 27 29 31 34 38 43 47 50 52 53 55 54 61 71 75 78 81 84 87 90
59 63 65 72 78 90 100 107 81 78 68 66 57 47 39 30 21 11 7 4 4 10 16 24 28 31 33 35 37 40 45 47 50 50 56 54 59 66 74 75 75 78 82 86 88
56 59 62 70 78 89 96 102 95 83 72 67 66 49 38 29 23 16 11 5 3 5 10 17 23 28 31 36 38 40 43 46 48 53 58 57 60 72 74 72 72 75 79 81 83
53 57 60 66 74 85 93 93 100 89 83 68 66 57 41 29 22 16 14 11 8 8 10 11 13 18 23 28 31 36 42 45 46 49 49 54 53 67 67 65 66 67 71 76 79
50 56 55 63 69 80 86 95 100 101 80 73 67 57 43 34 24 18 16 14 13 12 12 13 14 17 20 22 25 30 30 32 36 42 44 48 57 55 60 61 63 65 67 69 72

GFSSW_250_spd_054.txt.gz
Wind_Speed
90 93 87 85 82 86 88 88 88 86 83 63 44 39 35 34 40 46 55 64 71 74 79 88 97 100 99 99 102 102 104 109 109 110 112 112 110 105 99 92 87 84 79 75 69
90 94 90 83 83 86 90 88 90 87 84 69 48 38 37 34 36 44 55 64 70 74 77 81 93 99 100 100 101 101 102 106 109 109 110 111 109 110 102 96 92 87 82 76 74
92 92 91 87 86 86 89 90 92 88 83 68 52 40 35 35 34 43 53 64 72 75 77 82 91 98 101 102 101 101 96 101 103 109 107 113 111 111 107 102 95 90 86 80 76
90 93 90 87 86 87 91 92 95 92 85 67 51 41 35 32 33 39 52 65 72 75 80 84 87 94 98 102 101 100 99 100 100 105 106 111 112 108 109 105 100 93 88 84 77
91 93 90 88 85 88 91 92 95 92 87 66 51 42 35 30 31 33 47 61 71 76 81 84 84 91 97 101 101 100 99 97 98 102 104 106 112 113 110 107 104 99 92 87 80
91 93 91 89 86 89 90 92 94 96 89 69 51 43 37 30 27 30 41 54 68 73 80 83 84 88 94 98 100 100 99 98 97 101 102 105 110 115 114 111 106 101 96 91 87
91 93 92 85 84 86 88 93 97 96 89 70 51 45 38 28 24 27 37 48 58 71 78 81 85 88 93 97 98 99 100 99 98 100 102 105 111 107 114 110 109 103 99 97 94
88 91 89 87 82 85 88 94 97 92 90 71 51 45 38 28 21 23 34 45 56 67 75 81 85 88 90 92 96 96 99 99 100 101 102 108 103 111 115 113 109 107 104 100 98
86 88 89 87 82 86 87 93 95 95 88 71 52 45 38 29 19 19 28 44 52 65 75 80 83 86 88 91 94 97 97 97 99 96 99 102 104 108 115 115 112 107 104 104 101
84 87 89 85 81 84 86 91 93 94 85 68 52 44 37 28 18 14 24 40 51 63 73 76 80 84 87 88 88 91 93 93 93 94 98 99 101 103 106 110 112 110 105 102 103
82 87 89 83 81 84 86 89 94 93 83 66 51 43 37 27 16 11 21 33 46 63 72 78 75 75 78 82 86 90 93 92 91 94 98 96 97 101 103 103 104 110 109 106 103
80 86 87 85 81 83 84 86 93 89 80 65 52 43 35 26 15 9 13 28 43 56 65 70 72 76 80 82 83 87 90 93 92 94 95 96 95 98 98 100 99 100 104 108 109
79 84 83 87 82 85 84 85 89 87 76 65 53 43 34 23 14 4 10 25 39 57 63 69 69 75 77 78 79 81 85 89 92 93 96 93 93 92 96 97 96 99 99 101 106
77 83 83 83 83 84 84 85 89 82 74 65 53 42 32 22 12 5 12 21 32 48 61 64 70 72 74 75 77 79 82 88 91 92 92 95 93 89 91 95 93 96 99 99 101
76 80 78 79 85 87 84 84 85 79 72 64 54 42 32 22 11 4 17 25 32 43 54 60 65 66 69 73 75 76 80 83 88 90 91 91 88 89 89 90 92 96 99 100 98
74 77 79 77 84 90 85 82 77 78 71 64 53 43 31 21 12 3 13 22 31 36 46 53 59 64 67 70 73 76 77 78 79 82 83 86 86 88 91 94 93 95 96 96 96
71 73 74 73 83 87 82 81 81 75 68 63 53 43 32 21 14 6 7 16 25 32 41 47 52 59 64 65 69 71 70 69 70 72 75 81 83 86 95 95 96 95 93 91 93
69 69 69 70 80 87 83 80 80 76 69 65 54 46 33 21 15 8 9 15 19 23 27 37 47 52 56 59 63 64 62 60 63 68 74 78 76 82 87 89 92 95 94 94 93
67 65 65 67 77 85 88 79 76 74 69 64 57 47 36 22 15 11 4 14 21 21 20 25 36 42 44 51 56 57 57 60 63 68 71 72 74 79 80 82 84 86 90 94 94
64 61 60 64 73 81 86 79 75 74 71 66 59 50 39 24 16 12 6 10 22 25 26 26 32 34 38 40 45 51 57 60 60 63 64 65 70 72 74 76 79 82 85 87 90
59 58 57 63 69 76 83 86 76 74 71 65 64 55 42 27 16 11 4 10 21 28 29 29 32 34 35 38 45 50 54 55 55 57 60 62 66 69 69 72 75 78 81 83 86
55 54 55 60 67 72 77 82 73 74 71 69 62 60 46 31 18 10 6 8 15 27 31 31 32 32 35 37 39 42 46 49 51 53 57 58 61 66 66 69 72 75 77 79 83
50 50 50 57 63 68 73 81 85 77 74 71 65 60 52 35 23 13 6 3 12 20 30 34 34 33 33 35 38 42 48 50 52 55 55 58 59 62 66 70 72 73 74 77 78
48 47 47 58 59 64 72 80 85 78 77 72 68 62 58 43 29 15 8 1 6 11 22 31 36 39 38 40 42 44 45 49 50 50 53 53 60 65 68 71 70 70 72 74 76
45 45 43 55 57 63 71 78 82 87 78 76 71 65 57 49 34 23 8 3 4 9 16 21 32 37 38 41 42 45 47 49 50 55 52 60 61 68 71 70 67 67 69 73 75
43 43 40 52 53 62 65 78 80 87 84 78 75 71 58 52 39 28 19 10 5 8 12 16 23 30 35 40 43 46 47 48 50 54 56 61 61 71 66 65 63 61 63 67 72
43 40 38 48 52 62 63 73 74 81 87 83 75 71 64 55 44 33 22 16 11 10 11 14 18 21 26 32 36 40 42 43 45 46 48 52 58 59 58 59 61 61 62 66 67

GFSSW_250_spd_057.txt.gz
Wind_Speed
87 88 86 87 90 87 80 75 77 78 80 80 77 67 45 36 31 33 40 48 53 64 71 79 87 97 99 97 97 100 105 105 106 107 108 106 108 109 102 97 95 89 85 83 81
90 88 88 85 91 89 79 76 79 79 82 80 80 69 47 35 33 32 38 49 56 62 69 76 83 92 98 98 98 101 100 103 103 105 103 108 108 110 108 102 96 94 88 86 82
91 92 89 87 89 89 82 77 79 82 84 81 80 71 49 36 34 33 38 49 60 63 70 74 80 89 96 101 100 97 98 106 108 105 103 109 110 110 108 106 99 92 91 88 86
91 92 91 90 87 90 83 79 82 84 85 83 83 69 50 37 32 31 36 46 58 63 68 74 78 84 91 98 100 98 103 105 106 105 105 109 108 113 112 105 103 98 94 91 88
92 93 91 90 90 92 84 80 82 84 85 86 82 66 48 37 31 29 34 42 56 64 71 74 76 82 87 93 100 100 101 104 105 105 108 110 110 111 112 108 105 101 98 94 90
93 93 92 89 89 95 88 79 82 85 87 85 82 66 48 37 31 27 30 39 53 64 71 75 76 80 86 93 98 102 103 103 105 105 108 109 109 109 111 113 110 107 104 98 93
92 93 91 91 90 94 85 78 81 86 87 86 81 65 47 37 31 24 26 37 47 61 69 76 78 79 84 89 99 104 104 103 104 104 107 110 108 105 110 113 112 109 106 100 95
92 92 92 92 91 95 85 79 81 87 88 89 79 62 46 35 29 21 22 32 44 55 67 74 76 79 83 91 96 96 100 102 104 105 106 107 106 108 113 110 111 111 108 104 100
92 90 91 91 90 96 85 78 79 85 90 89 74 58 45 34 26 20 20 28 42 52 63 73 79 81 82 85 92 96 100 105 104 104 104 102 107 110 112 108 107 109 109 107 104
89 89 91 89 90 95 88 77 80 86 91 84 74 56 42 34 26 18 18 25 43 55 69 77 80 80 83 85 86 89 97 96 98 102 100 100 106 105 107 107 108 108 108 108 105
85 86 88 88 88 96 86 77 79 87 90 82 72 53 42 34 25 17 14 19 37 54 60 65 70 70 75 79 82 89 94 92 96 97 98 98 101 103 104 104 106 108 110 109 107
82 84 85 89 89 96 85 73 82 87 86 82 69 52 40 34 24 15 9 15 37 49 57 64 66 72 78 82 80 83 84 86 94 96 98 99 99 101 101 102 105 106 108 111 110
80 82 83 84 90 93 86 71 80 86 86 79 65 51 40 33 24 16 6 15 33 49 57 60 62 69 71 77 79 80 84 88 92 95 98 99 101 97 99 103 105 107 107 109 110
77 78 80 83 89 89 86 74 80 86 84 77 61 48 38 31 24 13 5 18 30 46 54 57 63 69 72 75 78 78 81 85 87 94 96 98 98 96 96 97 103 105 107 106 108
75 76 78 82 85 85 88 72 79 83 83 77 61 47 35 29 21 13 5 17 33 39 45 52 57 61 67 71 74 76 77 83 87 92 94 94 92 94 93 95 98 102 104 106 107
72 74 75 78 82 80 88 70 77 81 80 73 62 48 32 27 20 10 3 14 26 36 46 52 57 62 65 68 69 74 77 80 85 88 87 91 90 91 94 93 95 97 102 105 105
68 70 70 75 76 78 86 70 78 81 75 67 62 48 32 26 18 8 1 12 23 26 34 49 53 58 62 65 67 70 72 74 78 80 82 85 90 92 91 92 94 96 98 101 103
64 66 65 72 69 79 84 77 77 77 73 65 60 47 31 26 19 9 2 7 20 27 34 40 49 55 58 61 63 66 69 70 71 76 80 84 84 88 91 90 91 93 96 95 96
62 61 60 63 62 75 83 81 74 73 71 64 58 46 32 25 19 10 1 10 16 23 30 34 40 48 52 55 58 60 62 64 69 70 74 78 80 86 87 88 90 91 91 92 95
58 55 57 59 57 68 81 80 73 75 70 64 57 48 37 25 20 12 3 11 15 19 22 34 43 45 49 53 56 60 62 65 67 68 71 75 77 81 83 84 88 88 89 90 92
52 51 55 53 53 65 75 76 75 71 70 67 58 51 42 30 22 14 2 11 18 23 26 29 36 43 48 49 51 54 57 60 63 65 70 70 75 77 79 80 84 86 87 88 91
47 49 52 50 49 60 65 72 73 69 72 67 61 56 44 35 25 16 9 7 14 25 26 28 31 34 36 41 46 50 51 55 61 66 67 68 69 74 76 78 80 81 82 82 83
42 44 48 46 46 52 60 64 71 68 68 66 62 55 50 41 29 19 10 4 7 19 29 31 35 37 38 37 39 44 49 53 56 57 60 66 69 72 74 76 76 77 76 77 79
38 43 44 44 42 47 52 64 71 72 66 65 63 58 53 44 36 23 14 8 4 11 19 30 36 39 40 43 44 46 49 51 53 56 62 65 69 72 74 74 73 72 72 74 76
34 40 41 41 42 43 49 56 68 74 70 68 64 61 56 48 40 31 17 10 8 9 19 22 37 42 42 44 47 48 50 53 55 62 60 65 67 69 72 72 71 70 70 72 73
33 36 38 37 40 43 43 55 64 71 72 76 69 61 60 51 45 37 26 12 8 10 14 18 27 36 44 45 51 51 51 52 54 58 59 61 63 67 67 67 69 68 67 67 67
31 34 36 35 37 40 45 51 58 69 72 76 76 74 65 55 54 42 32 23 13 9 12 17 21 28 33 38 45 47 52 54 56 57 59 60 62 63 63 65 67 65 62 62 64

GFSSW_250_spd_060.txt.gz
Wind_Speed
92 95 102 95 94 87 81 80 74 72 67 69 73 74 70 61 48 34 27 34 40 45 56 63 69 77 87 97 96 99 96 99 101 107 111 107 106 107 102 97 90 88 83 81 81
91 98 103 101 97 91 86 84 76 73 69 72 75 74 72 59 48 36 27 33 40 45 54 61 67 76 83 95 99 98 95 100 103 109 110 100 104 105 106 100 97 90 85 83 81
91 97 104 100 99 95 91 86 78 72 69 73 75 75 68 64 48 37 27 32 41 46 53 60 66 72 81 92 99 99 96 99 105 109 104 101 98 105 107 110 102 93 88 87 82
93 97 104 103 102 94 87 85 78 69 70 76 78 73 71 65 50 36 30 33 40 49 54 60 65 73 80 89 97 100 100 102 102 103 102 103 103 110 109 108 104 103 97 90 87
94 98 102 106 103 94 93 85 78 70 74 78 78 77 74 64 47 33 31 34 39 47 54 60 62 72 79 87 97 100 99 98 100 103 104 102 106 107 105 104 105 105 101 98 93
92 99 104 105 103 96 96 89 81 72 75 79 79 78 75 60 44 35 30 33 38 45 53 59 65 72 80 87 95 100 100 101 102 102 104 107 107 105 101 109 110 109 105 101 98
92 97 103 103 104 97 97 89 83 72 75 79 78 80 75 58 44 34 31 30 35 42 50 60 69 71 76 84 92 98 101 102 104 105 103 106 107 106 102 103 108 110 108 104 100
91 96 102 105 106 97 99 96 81 76 78 81 80 80 74 56 43 34 28 27 32 40 50 61 68 72 75 82 87 95 100 103 105 103 101 103 104 107 102 100 104 107 110 106 103
92 95 103 104 105 99 98 95 82 77 79 81 82 79 71 54 42 31 25 24 27 36 48 58 67 73 77 80 84 89 96 99 103 106 107 102 105 104 102 101 103 107 109 109 107
90 93 102 104 104 95 97 100 84 77 80 80 81 79 71 55 39 28 22 21 25 35 49 59 67 73 76 79 79 82 93 97 102 104 102 100 104 103 105 102 101 105 106 107 107
89 91 101 100 98 93 96 98 82 76 79 80 83 76 69 51 37 25 19 19 24 35 45 53 59 66 70 73 78 83 91 90 93 97 100 102 104 103 105 102 102 100 103 104 107
89 91 101 98 95 90 94 97 82 74 80 84 82 78 67 47 33 23 17 15 22 31 46 55 60 68 73 77 82 86 87 95 94 97 99 100 99 100 103 101 102 101 102 103 107
86 90 93 95 89 87 94 96 79 75 79 82 80 78 62 42 29 21 15 13 19 30 42 54 61 69 73 79 81 84 88 87 91 91 90 94 95 98 103 101 101 107 103 103 104
86 95 90 91 84 82 91 95 79 72 77 83 80 74 56 38 27 19 14 12 14 24 35 49 56 61 71 73 75 79 83 83 79 82 85 88 94 96 100 102 101 105 105 102 103
87 85 85 84 82 81 87 93 76 74 75 82 78 70 52 35 25 18 14 9 14 26 29 38 48 54 63 69 75 77 77 77 78 77 82 83 89 93 96 102 104 102 105 106 104
80 80 82 77 78 76 82 87 76 77 81 80 74 65 48 33 24 17 12 5 11 19 30 41 46 51 59 64 64 72 76 74 75 75 73 78 85 90 92 101 102 100 101 104 106
73 77 75 70 73 73 76 78 73 76 79 77 70 63 50 32 23 17 11 3 9 17 24 39 50 55 57 61 67 68 70 72 74 69 70 75 80 88 89 96 100 101 98 100 103
68 68 68 65 67 69 69 76 69 73 79 74 64 57 47 36 23 18 11 9 5 13 19 29 40 49 55 58 62 64 66 68 69 69 72 76 79 85 89 94 97 98 97 98 99
61 62 58 59 62 64 63 73 67 71 75 73 64 58 49 36 24 18 13 6 3 10 18 26 35 46 50 55 58 61 61 62 64 68 69 74 78 82 87 91 93 92 95 97 97
56 54 52 53 58 59 57 67 71 68 72 69 64 57 49 39 26 20 17 7 2 9 18 23 30 40 45 49 53 57 59 61 64 67 70 72 77 79 81 84 88 89 90 93 96
49 46 46 48 53 55 52 61 67 67 67 66 62 54 50 41 30 20 18 9 2 8 15 20 29 38 41 46 50 53 56 60 63 66 70 73 72 74 77 80 83 87 89 90 91
39 39 41 46 48 47 45 56 63 64 66 64 61 55 48 42 33 22 16 12 6 7 16 22 30 34 37 40 46 51 56 58 59 63 66 69 70 73 76 79 80 83 86 87 90
33 34 38 42 44 40 40 48 55 61 62 63 60 54 49 43 35 26 18 12 8 5 14 23 29 34 39 41 44 48 52 55 58 61 63 66 69 70 74 76 79 80 82 82 85
29 29 35 38 40 39 38 43 50 55 58 61 61 56 49 45 39 31 21 13 8 6 8 12 27 33 36 39 43 45 49 51 52 54 61 63 66 67 70 74 74 76 79 81 84
26 27 32 33 35 34 34 41 48 53 58 57 60 57 53 43 40 37 32 19 10 6 7 17 18 31 37 39 41 43 45 48 51 58 58 63 63 65 67 71 74 76 78 78 79
24 26 28 31 32 32 35 35 42 52 55 60 59 61 56 48 38 39 36 30 19 11 7 13 14 23 30 40 42 47 49 51 54 56 56 59 62 65 67 71 74 76 74 75 76
23 23 25 27 28 31 33 35 39 48 55 62 63 63 64 54 48 39 37 34 28 17 13 11 14 17 23 28 35 42 48 53 54 56 57 60 62 64 65 68 71 72 73 74 72

GFSSW_250_spd_063.txt.gz
Wind_Speed
83 87 89 88 91 95 95 97 96 77 66 61 60 59 63 65 64 56 50 42 36 35 44 49 57 66 72 81 89 94 97 97 100 107 111 103 108 109 103 96 93 88 85 85 78
85 88 88 89 94 95 98 101 99 79 67 62 63 63 63 69 67 57 47 37 33 34 42 46 56 63 69 81 87 92 94 98 104 107 104 103 105 106 100 97 97 94 89 86 79
86 89 92 89 94 99 100 102 101 80 69 66 66 63 65 68 65 58 45 36 30 32 38 43 54 62 68 81 87 91 99 103 104 105 102 106 106 107 101 96 95 94 91 88 81
91 92 90 91 94 100 99 107 103 87 75 73 68 64 66 67 61 58 43 36 29 31 35 41 49 60 67 77 87 94 96 102 102 102 104 106 108 107 108 101 97 97 94 91 85
92 93 94 92 94 101 103 108 100 89 81 75 67 66 68 67 60 54 44 35 30 29 37 43 48 60 66 75 86 91 98 101 102 99 106 107 107 103 105 108 106 102 97 93 92
93 92 90 91 95 99 102 106 105 95 84 74 68 69 72 67 62 54 42 32 30 30 37 43 49 59 68 76 85 90 95 97 99 100 107 107 107 103 103 108 109 106 104 95 93
89 93 92 89 95 99 105 108 106 89 83 72 69 71 73 71 68 53 37 30 27 31 35 43 50 59 66 74 85 92 98 96 100 106 105 105 106 107 104 107 109 108 108 101 91
90 89 91 88 96 99 103 103 102 90 79 70 69 74 72 69 67 49 32 27 26 30 34 43 50 61 67 74 85 91 98 99 103 106 109 106 106 107 104 104 106 110 109 106 97
88 85 86 90 95 98 102 105 106 93 78 73 72 73 73 71 65 44 30 26 24 27 34 41 53 62 69 73 83 92 93 94 97 103 106 105 106 107 108 105 105 107 110 110 106
81 80 89 89 93 97 100 103 104 87 78 73 73 73 71 72 60 40 30 24 21 24 32 41 53 62 67 72 75 82 86 93 99 105 101 101 105 107 106 106 103 105 107 107 107
76 82 85 88 94 94 101 101 103 86 76 71 73 74 73 70 53 38 29 23 18 21 30 41 53 62 67 69 75 84 87 93 97 98 99 97 105 102 103 105 105 102 104 105 106
76 81 82 89 90 94 97 94 94 83 73 70 73 73 73 66 47 37 27 19 16 19 29 42 55 60 67 73 77 82 88 91 96 97 101 98 103 100 97 102 105 103 101 104 106
76 79 82 86 89 95 93 86 91 78 69 70 72 74 72 64 45 35 24 14 9 16 29 43 52 60 69 74 75 74 77 82 87 92 94 96 97 100 99 99 103 104 101 102 105
74 76 79 82 87 92 83 84 85 76 66 71 72 72 70 60 42 33 21 12 6 12 25 36 41 52 60 67 72 74 73 78 86 91 90 92 95 97 100 97 97 102 103 102 103
69 73 75 80 81 81 76 79 80 76 66 69 70 69 65 56 39 29 19 10 4 8 20 31 42 55 60 67 68 74 74 76 76 84 89 90 91 93 95 97 97 102 103 102 101
66 68 72 76 76 76 72 72 82 76 66 69 70 66 61 52 37 27 17 11 5 2 19 30 42 51 54 59 66 69 74 74 82 88 84 80 82 88 90 93 98 99 100 103 102
64 66 69 65 68 69 65 67 80 70 65 68 69 61 59 49 35 25 18 14 10 5 13 22 34 42 48 52 59 65 72 76 83 77 76 77 77 79 84 88 94 97 97 100 102
62 60 61 62 61 63 57 63 72 67 62 66 65 60 54 47 33 24 19 13 10 7 12 23 27 33 38 49 56 64 70 76 76 74 70 70 70 70 80 86 89 91 94 97 101
56 58 58 58 57 57 50 56 64 66 62 66 67 58 49 45 36 24 21 16 10 8 11 18 28 36 42 49 52 55 61 66 67 64 65 67 66 66 70 78 85 88 91 96 97
48 52 56 51 53 46 47 52 58 63 61 64 63 57 49 42 37 27 20 18 9 6 11 14 28 35 41 47 51 55 61 61 62 63 66 68 67 65 67 72 80 85 87 92 94
37 42 45 44 45 40 43 43 53 58 61 62 58 54 49 42 37 30 20 17 13 7 10 17 26 32 38 43 46 50 55 60 61 62 62 62 62 65 68 71 71 77 81 85 89
29 39 37 41 35 36 40 38 48 53 58 61 58 53 52 43 38 32 23 17 12 9 9 14 21 29 34 36 41 46 50 53 57 59 61 62 65 68 70 70 69 70 73 78 82
27 31 30 35 29 31 34 35 44 51 54 57 55 54 52 51 43 36 28 20 15 11 6 7 19 26 32 36 40 44 47 51 53 57 59 62 64 67 70 69 68 68 71 75 81
25 27 27 26 25 30 29 32 42 46 49 51 54 56 52 51 45 39 31 25 17 10 9 6 13 20 26 32 36 40 44 47 49 53 57 61 63 66 65 67 68 71 74 78 80
25 22 22 20 21 27 26 28 35 40 44 48 52 52 56 51 48 42 38 30 24 17 10 8 8 12 21 26 33 36 40 42 47 51 52 57 59 61 63 66 70 74 75 76 78
22 21 17 16 18 23 23 23 31 36 39 45 50 54 55 53 47 45 41 38 31 25 20 12 9 13 13 16 31 35 38 42 47 49 52 55 59 59 64 70 72 71 72 74 76
23 19 15 12 15 19 21 22 27 30 36 43 51 54 57 55 54 53 45 39 38 33 27 20 15 14 14 15 22 26 38 43 47 50 52 56 59 64 67 67 67 70 72 72 75

GFSSW_250_spd_066.txt.gz
Wind_Speed
74 75 76 79 85 89 90 91 88 91 84 78 68 58 53 53 50 54 54 54 55 57 56 54 54 52 58 61 67 79 85 92 101 108 111 110 114 117 115 108 107 99 90 86 71
76 75 83 80 87 91 93 93 91 93 83 83 79 53 58 54 57 56 59 58 56 52 53 48 48 48 52 59 63 76 80 86 102 106 109 109 111 115 115 111 106 106 94 87 82
78 80 80 86 89 94 96 88 91 87 82 88 63 57 58 57 60 60 64 61 56 53 46 45 42 45 51 60 68 74 82 90 100 104 109 110 111 113 113 112 110 107 102 90 88
79 82 83 87 89 93 93 85 92 87 82 93 57 56 57 59 61 63 65 61 57 51 41 40 41 43 50 57 65 68 81 87 95 102 108 111 109 109 108 108 108 109 101 96 90
81 86 86 87 90 93 92 89 91 87 84 85 63 57 54 58 61 61 64 62 57 48 35 38 37 42 49 58 65 71 80 84 92 101 107 112 110 105 108 109 108 105 103 100 95
87 83 86 87 94 95 91 88 89 86 89 83 57 60 59 61 63 61 61 57 50 38 31 35 36 40 51 61 70 73 81 87 89 100 106 109 111 104 107 110 111 108 102 100 96
85 86 86 86 93 90 86 87 87 86 90 71 64 58 59 61 63 61 58 49 40 30 28 33 37 43 51 60 72 77 82 87 91 98 105 108 108 107 105 112 111 110 104 100 97
85 80 79 84 89 86 84 86 84 89 87 64 59 59 60 63 63 60 56 42 31 25 26 33 37 45 54 59 65 70 77 86 87 94 102 106 107 105 105 108 111 110 108 104 97
77 79 81 84 87 85 83 84 84 86 83 61 60 62 62 63 61 59 52 37 27 24 25 34 37 44 55 59 65 72 78 83 87 93 99 105 107 105 107 105 110 112 110 107 103
77 77 79 85 86 85 79 83 83 88 77 63 61 65 62 65 60 57 45 33 24 22 26 33 38 46 56 60 63 68 78 85 89 89 99 99 105 107 108 107 109 111 113 109 105
72 77 79 86 85 81 80 81 83 88 80 55 62 61 62 62 61 56 40 29 23 21 26 32 35 44 53 59 67 75 80 86 87 89 95 101 109 113 109 111 107 106 113 112 111
82 81 77 70 73 76 75 80 83 86 64 60 59 63 63 62 62 53 36 26 21 19 24 30 36 45 54 64 69 78 86 91 92 94 94 102 109 110 107 108 111 109 111 115 112
79 80 79 73 73 72 74 75 80 78 66 54 61 60 61 61 58 48 30 22 17 16 23 32 37 48 56 64 70 75 84 89 90 95 96 98 102 102 101 106 110 111 107 112 113
77 73 70 67 66 67 68 74 79 75 52 60 61 61 60 59 57 40 28 19 13 11 18 29 39 46 53 63 67 74 85 87 87 91 95 94 96 98 98 104 108 108 109 106 110
74 69 65 63 63 65 67 70 80 81 57 60 61 61 60 57 51 36 25 18 8 7 17 26 36 44 54 64 69 76 80 83 87 87 92 93 91 94 93 96 102 106 106 108 106
63 68 64 63 61 60 62 68 76 74 59 58 60 58 60 54 47 33 23 13 5 7 14 22 32 40 51 57 65 68 72 76 79 83 88 88 86 87 88 91 97 101 104 105 106
52 58 58 56 59 57 61 66 72 71 55 56 57 56 54 49 43 31 20 9 3 3 14 22 30 40 52 60 65 65 67 71 76 81 82 81 79 82 81 84 89 97 102 102 104
50 47 48 50 50 54 54 61 68 66 53 54 52 52 49 45 39 29 18 9 5 7 14 22 30 34 43 53 57 61 67 71 73 74 75 73 72 75 76 77 84 92 98 101 101
43 41 42 43 45 44 46 53 61 61 50 52 52 49 44 42 37 26 18 11 7 4 14 18 23 26 39 47 52 57 62 63 69 72 75 74 70 70 78 81 84 88 94 98 101
37 34 35 36 37 34 40 44 56 55 47 50 54 45 44 42 36 27 17 15 10 6 8 17 23 25 36 41 46 51 56 61 63 65 71 70 71 75 76 78 75 80 85 89 94
31 30 29 30 28 30 33 37 47 50 46 49 51 38 40 40 36 30 20 17 11 7 7 12 20 30 37 43 47 51 56 62 65 65 67 68 70 71 72 71 68 71 75 81 86
32 28 23 24 23 23 25 32 40 46 45 50 49 43 40 41 38 29 23 18 16 13 4 3 10 18 26 36 41 47 51 55 59 60 61 62 65 68 67 64 62 63 67 71 76
29 24 18 21 17 18 19 26 35 38 46 48 47 43 45 45 40 32 27 23 19 16 12 4 5 11 16 24 34 42 45 49 52 56 56 59 62 63 63 65 66 68 70 73 77
29 21 22 15 12 11 17 22 30 35 42 46 45 45 47 46 40 36 30 27 24 20 13 7 4 6 10 16 25 32 39 43 46 50 53 56 59 61 63 64 64 67 69 73 76
29 25 20 10 8 8 13 18 27 32 37 40 44 48 51 48 43 39 39 33 31 27 21 14 7 3 5 6 14 24 31 39 44 47 50 53 54 56 58 61 63 67 69 70 71
29 27 19 9 5 6 11 16 19 25 30 35 41 47 51 52 49 47 49 45 41 34 26 21 16 10 4 6 8 12 26 31 36 41 47 49 51 55 59 62 65 65 66 67 71
32 27 17 12 5 3 8 11 13 20 27 34 38 43 46 48 52 55 53 50 47 42 35 29 22 16 11 8 10 13 16 21 30 38 43 47 50 54 59 62 63 65 67 69 70

GFSSW_250_spd_069.txt.gz
Wind_Speed
81 83 84 83 88 91 86 91 92 90 86 86 84 72 72 66 52 54 51 53 53 55 58 63 66 65 58 62 63 67 68 70 63 78 89 99 103 108 108 108 110 107 103 92 86
82 91 95 93 90 94 93 89 90 90 87 86 81 75 72 62 52 51 51 54 55 57 59 62 67 63 60 64 60 62 60 64 68 81 94 103 105 110 108 107 105 108 104 94 89
90 98 99 95 90 99 95 97 96 90 87 87 79 77 73 56 55 51 52 56 58 60 59 61 66 67 59 59 52 56 56 61 64 84 95 104 109 112 113 109 103 103 104 99 93
97 97 91 94 95 96 95 96 92 88 89 87 81 77 76 56 54 54 55 58 61 62 62 63 65 60 54 49 50 52 56 56 71 81 96 104 110 112 112 111 104 103 106 105 101
102 98 91 95 96 102 100 91 92 87 85 83 81 74 61 49 55 57 59 61 63 62 63 63 58 48 46 48 49 50 53 58 70 74 93 104 110 109 109 111 105 104 97 104 102
100 93 99 102 104 98 92 91 85 87 85 82 76 72 55 56 58 58 62 62 64 61 61 54 47 40 42 44 44 48 53 62 70 80 92 101 107 111 109 111 107 99 97 102 98
111 105 110 99 94 89 86 86 82 80 84 79 73 64 56 54 57 59 62 62 62 59 50 45 39 36 38 43 49 52 61 66 71 78 88 96 104 112 111 112 107 100 96 96 104
108 105 98 97 89 86 87 81 82 81 81 75 78 62 51 55 57 59 61 60 60 52 38 37 33 33 38 46 51 55 59 60 69 80 86 95 101 114 113 111 112 104 99 94 93
109 102 94 90 89 84 87 82 78 81 79 78 71 52 54 57 57 59 60 56 53 42 31 32 28 32 43 49 54 55 56 58 66 76 83 89 99 113 115 113 114 112 108 106 108
99 97 91 85 85 83 80 81 81 78 76 75 59 53 58 58 57 60 56 52 44 32 26 27 26 35 46 50 52 54 62 69 71 75 77 93 97 110 115 113 114 116 113 111 109
87 89 89 85 80 79 77 77 75 74 76 73 61 51 59 56 57 57 54 49 37 26 22 24 25 39 43 48 52 53 58 67 75 79 82 84 94 104 116 115 112 112 114 111 107
76 77 76 79 80 77 75 76 71 72 72 68 46 58 54 55 55 55 50 43 32 21 21 18 27 39 44 49 51 50 57 66 75 82 75 85 92 100 111 117 114 114 114 111 109
69 70 68 71 71 70 73 70 68 70 70 62 54 53 52 53 54 53 49 39 28 19 18 16 28 37 45 48 50 50 58 67 73 81 81 86 90 97 108 114 119 116 115 111 104
64 59 63 67 63 63 66 65 63 64 67 46 56 54 53 54 54 52 45 35 25 17 15 16 28 38 44 49 52 53 60 66 71 79 81 88 91 90 101 114 125 123 116 113 117
55 50 57 59 53 60 61 62 61 66 35 54 57 51 52 50 53 51 42 32 22 16 13 18 31 39 48 55 57 57 60 68 72 76 80 80 88 88 98 107 116 128 129 124 118
47 48 54 50 46 48 53 55 58 65 58 56 53 51 48 50 51 45 37 26 19 11 7 19 33 43 49 52 57 60 63 69 72 75 78 79 86 91 91 98 107 117 120 123 125
41 48 49 40 39 41 44 47 52 56 50 47 49 46 49 50 48 41 33 23 15 7 8 14 23 37 42 49 55 64 67 72 74 75 76 81 79 86 89 92 97 106 112 115 117
43 46 37 34 33 33 37 44 51 52 43 42 44 44 47 44 41 35 27 17 12 3 5 14 20 31 40 49 56 57 67 73 76 77 78 79 77 75 84 90 88 94 105 112 113
44 38 30 29 25 25 32 37 46 48 38 39 38 41 43 40 38 32 26 14 9 7 6 13 22 32 40 47 51 55 63 60 66 71 78 76 75 77 77 80 82 86 90 99 106
44 31 29 21 19 20 24 33 44 40 34 34 37 37 36 36 34 28 22 14 12 10 6 10 16 22 35 42 49 53 59 57 58 66 70 72 75 72 71 71 71 73 76 82 93
37 34 25 20 16 12 22 31 37 34 29 33 39 33 35 34 33 28 19 16 14 13 9 8 22 28 37 42 44 47 47 52 61 64 66 68 70 68 69 68 66 65 68 75 79
39 31 26 19 13 7 17 25 30 30 28 36 35 32 34 33 31 26 22 19 18 14 14 9 8 16 24 31 37 43 48 50 54 59 61 67 68 65 66 67 67 66 68 72 77
38 32 25 19 13 6 13 18 25 27 27 34 34 34 36 32 31 29 27 24 22 18 18 14 12 5 11 20 30 36 40 42 49 56 60 62 61 61 60 62 66 70 72 74 73
44 36 26 21 13 5 8 12 22 27 32 33 38 37 38 38 42 38 33 29 30 24 21 15 16 11 6 3 16 26 33 38 43 46 49 52 55 58 58 60 62 64 66 70 72
43 36 29 23 15 5 5 10 18 25 31 36 39 41 43 44 45 42 40 38 38 35 29 24 17 10 7 6 3 6 19 28 36 40 43 45 48 51 54 56 59 62 64 68 70
44 37 33 25 15 8 7 6 13 21 26 32 38 45 47 48 44 44 44 46 53 47 41 33 26 18 13 9 3 4 8 12 21 29 34 37 43 47 52 57 60 62 66 66 66
45 41 34 27 17 12 10 5 10 16 23 29 35 38 42 43 45 47 48 50 51 49 46 41 37 30 23 15 10 8 8 12 16 21 25 30 36 41 47 51 54 57 59 62 66

GFSSW_250_spd_072.txt.gz
Wind_Speed
83 83 85 81 78 77 76 87 91 97 94 95 99 99 103 89 74 70 67 62 63 59 60 65 69 71 69 67 68 72 70 74 72 67 72 79 82 87 87 99 98 100 105 94 96
86 86 87 85 81 80 86 92 95 96 97 96 101 100 94 82 77 73 64 61 60 59 60 66 67 70 69 69 68 69 68 73 73 73 76 77 75 87 89 97 96 108 110 95 96
89 91 90 89 86 87 94 96 97 104 98 102 100 105 91 82 74 70 63 64 60 63 61 63 65 65 69 69 67 69 65 72 71 73 72 72 74 86 87 94 102 114 110 100 94
95 96 96 95 95 97 94 97 103 103 106 104 102 97 83 81 76 67 64 61 64 63 63 63 63 65 67 70 70 67 69 68 70 70 70 69 78 84 88 99 110 109 109 103 96
99 101 100 97 97 99 101 104 109 104 105 103 100 92 85 75 74 67 60 59 62 65 63 64 65 67 71 71 69 62 65 66 68 65 65 69 78 84 89 101 110 105 112 103 96
107 105 105 103 102 105 106 111 109 104 105 103 93 86 79 74 72 65 60 62 64 64 64 67 69 68 70 67 60 60 60 62 61 63 62 69 77 84 91 100 110 105 100 101 102
109 112 112 109 110 111 109 109 105 104 100 93 83 78 75 69 65 65 62 64 61 63 64 69 66 63 63 54 51 53 54 56 56 59 65 71 78 81 92 100 112 93 80 92 103
110 112 113 109 107 110 106 104 106 101 95 88 79 73 71 66 62 61 62 61 60 63 65 64 61 59 52 43 45 44 46 47 55 58 63 68 73 79 92 103 104 103 87 92 91
91 96 100 95 93 98 99 96 95 93 87 76 72 67 66 58 58 58 59 59 62 63 61 59 52 47 39 41 40 38 41 48 54 59 64 69 76 82 94 104 115 93 95 88 95
85 89 86 83 79 83 82 86 82 78 75 68 67 61 62 49 55 57 57 60 62 60 54 49 42 38 37 36 34 37 40 48 55 63 66 67 70 78 96 107 113 106 92 92 93
78 75 65 64 70 74 71 74 74 72 65 64 60 60 45 53 55 54 56 59 60 51 45 38 33 34 36 35 37 42 47 53 56 60 59 70 76 78 99 108 115 116 98 96 94
73 63 53 57 63 66 66 66 66 64 61 61 56 51 54 55 53 52 54 56 51 43 35 28 26 30 33 36 38 44 49 53 53 60 67 68 71 81 103 110 116 117 98 99 100
68 56 55 57 59 59 59 59 58 58 58 57 52 52 55 52 49 50 54 51 43 35 25 21 23 28 31 34 39 45 49 50 58 58 55 67 70 77 104 110 120 124 110 104 99
63 52 48 55 52 50 52 50 54 53 51 54 49 51 47 47 46 51 50 45 35 24 19 18 21 24 29 36 41 43 45 44 49 59 58 64 70 80 98 114 122 120 125 110 103
61 50 42 45 40 45 42 44 47 48 48 49 44 46 46 43 47 50 46 39 28 19 14 16 19 23 31 36 37 36 41 47 54 62 65 71 77 80 94 122 117 126 121 120 115
52 45 45 37 36 38 35 40 42 45 46 40 42 43 40 42 47 47 41 31 22 15 11 12 19 26 32 36 39 41 42 49 58 62 65 73 80 84 95 111 124 118 124 119 117
55 51 42 35 35 29 34 34 39 40 33 33 39 36 37 41 44 41 34 27 18 12 9 11 21 29 34 36 40 42 44 54 54 59 63 66 75 78 79 95 125 122 121 123 122
54 47 41 37 30 27 27 31 35 30 27 31 31 35 36 38 39 34 28 22 11 6 4 11 14 20 25 34 39 48 50 51 51 55 62 67 72 73 75 85 105 128 123 122 125
49 47 41 31 27 22 25 27 28 18 22 23 28 31 34 36 33 28 23 17 9 5 4 10 11 12 17 25 35 45 52 50 56 57 61 64 66 68 71 76 92 113 128 126 122
47 46 37 29 21 21 20 20 10 15 19 22 24 27 29 29 28 24 18 12 11 10 5 7 13 16 20 27 32 38 43 50 53 55 60 62 63 61 66 69 80 96 113 128 127
49 42 35 28 21 16 17 7 8 14 19 22 23 24 24 26 24 21 19 16 16 13 12 9 5 13 19 27 32 34 36 41 45 51 53 57 61 61 61 70 73 79 92 110 129
46 42 38 29 20 15 10 6 9 17 23 23 23 23 26 26 26 27 25 21 18 20 17 11 5 4 11 15 21 25 30 34 36 40 45 47 51 55 54 53 68 71 72 79 95
52 46 38 29 18 10 3 10 13 21 25 23 23 26 26 30 32 33 32 27 23 23 23 20 16 9 5 11 17 22 27 30 33 35 39 42 44 45 48 48 51 53 62 68 70
55 47 40 29 18 9 8 17 17 20 23 25 27 27 31 35 38 38 39 36 35 32 26 21 17 15 13 7 3 10 17 24 27 30 36 40 43 43 47 50 51 54 57 59 63
54 48 41 31 22 15 15 17 20 24 25 29 32 32 35 39 39 42 47 50 47 46 41 37 28 18 12 8 6 8 5 12 16 23 30 36 41 44 46 50 55 58 59 62 64
54 47 40 31 23 19 19 16 19 23 28 33 37 39 44 47 49 48 51 51 51 50 53 50 47 40 34 25 17 10 5 6 11 17 22 28 35 39 43 47 52 57 60 62 64
54 47 41 32 24 21 20 18 19 22 29 34 38 42 48 46 49 49 50 48 51 54 55 54 52 50 48 40 37 28 21 12 5 9 17 23 29 34 38 42 47 51 56 61 63

GFSSW_250_spd_075.txt.gz
Wind_Speed
87 86 89 89 87 83 80 79 80 77 82 80 81 80 83 83 85 88 92 85 85 77 70 70 67 67 68 67 71 71 65 67 71 69 72 71 71 74 70 66 70 74 80 87 80
92 91 90 93 91 87 87 86 83 82 82 83 85 84 86 89 89 93 94 86 84 76 70 68 67 68 71 71 69 65 59 63 72 69 75 74 73 77 78 73 68 74 81 88 79
100 99 100 98 96 93 88 88 89 88 87 89 90 88 88 90 94 96 94 88 81 71 68 66 68 68 72 71 69 59 56 63 68 70 74 74 75 76 78 76 73 82 85 93 86
109 109 106 107 107 101 94 90 94 93 93 94 94 94 91 96 95 94 91 82 73 69 66 65 66 70 68 70 65 60 59 62 68 70 74 75 77 77 78 75 88 89 91 100 91
112 113 109 111 111 109 106 98 93 98 98 97 98 96 93 97 96 93 86 73 68 66 64 63 68 69 70 71 67 62 64 65 70 72 76 78 79 75 73 77 86 90 94 103 96
92 97 99 107 111 112 109 106 97 97 99 100 100 97 95 92 88 82 74 64 62 61 61 63 68 66 68 70 66 68 67 67 70 71 73 74 72 70 73 76 85 93 99 107 101
82 86 93 90 97 100 104 104 100 98 99 100 99 89 87 82 78 72 64 58 56 60 61 62 64 66 69 67 69 68 68 67 68 70 70 73 67 69 77 81 89 96 104 99 89
83 83 85 85 84 83 92 90 93 97 95 90 87 81 79 69 64 61 56 51 54 56 60 62 63 65 64 67 67 65 63 61 61 59 59 59 61 73 76 83 90 95 98 87 79
85 80 78 77 79 76 74 70 77 82 80 73 74 69 63 61 56 52 49 54 54 55 58 61 63 63 65 64 62 58 51 49 45 45 49 50 62 68 77 83 86 94 92 93 76
81 76 73 74 71 67 65 61 70 73 69 69 65 58 59 52 47 42 46 52 54 54 57 62 63 63 61 57 52 45 41 37 39 38 42 50 59 70 75 83 88 100 99 89 97
72 68 68 65 62 56 58 60 65 59 57 55 53 54 51 41 41 42 48 51 51 54 59 61 60 59 53 48 42 37 34 34 37 37 42 53 60 67 70 80 89 111 111 97 78
64 64 64 62 56 52 52 51 50 46 47 47 47 44 38 36 42 41 42 45 50 55 56 55 52 48 42 36 33 31 31 36 36 37 45 49 60 61 67 81 94 122 110 103 88
63 63 59 59 52 51 43 50 42 41 44 44 40 34 31 33 37 39 39 45 50 51 47 44 43 37 31 29 27 30 32 35 37 43 50 57 58 64 72 84 104 116 117 106 97
55 50 53 54 56 49 45 43 38 38 41 38 30 30 29 35 34 35 41 45 48 45 36 33 31 26 25 23 26 29 31 35 39 45 52 56 62 67 75 88 115 125 117 112 96
40 37 39 52 57 46 43 39 37 38 32 25 21 25 31 33 32 38 40 42 42 34 25 22 19 18 19 21 25 28 32 36 38 43 48 56 62 68 74 88 117 127 124 112 99
35 33 44 50 49 44 38 37 35 26 24 13 17 25 29 29 33 38 37 35 32 23 17 15 12 12 17 21 24 27 28 27 31 38 51 58 63 62 74 85 108 125 132 123 109
27 35 36 41 39 35 32 30 23 10 8 11 17 24 24 30 31 32 31 29 24 16 12 8 8 11 16 19 20 23 26 26 33 38 47 48 53 61 75 84 105 130 126 120 115
27 24 29 29 31 32 27 17 2 3 6 12 17 20 24 25 26 28 25 23 19 13 9 4 4 7 12 19 22 24 25 28 36 40 43 38 42 64 75 87 104 125 127 124 116
28 32 29 30 33 27 17 13 13 8 8 11 12 15 20 22 22 21 19 17 14 11 6 2 5 5 9 13 23 26 29 31 37 40 38 41 46 60 72 85 101 121 124 123 125
36 40 37 37 28 20 19 20 15 12 4 5 8 14 18 18 18 16 15 13 11 11 11 8 6 9 7 11 21 27 29 34 38 38 38 42 47 55 66 85 102 111 127 129 129
42 42 37 33 28 31 26 22 14 10 9 9 12 15 15 14 15 14 16 16 15 16 17 16 12 7 9 12 14 16 24 28 31 32 35 38 41 46 52 71 86 110 115 128 128
47 41 41 40 38 32 27 22 20 19 15 15 17 15 17 18 18 17 23 23 24 22 17 19 19 13 12 7 8 9 13 16 23 26 29 31 37 39 44 47 66 84 109 122 128
48 48 45 43 36 31 33 29 25 24 22 23 20 21 23 26 28 29 31 33 33 30 29 26 23 19 16 15 12 10 11 10 11 15 20 21 30 34 39 45 47 58 79 116 124
55 49 46 42 38 39 37 32 28 29 31 22 24 28 30 33 39 41 42 41 40 38 37 33 30 28 25 19 15 12 10 9 7 11 17 19 20 26 28 31 36 42 54 68 105
54 53 48 41 38 40 40 36 33 34 32 28 32 35 40 45 51 51 47 50 53 55 51 45 41 39 36 30 25 21 15 10 4 8 10 12 17 21 25 30 34 37 42 45 51
50 49 47 44 41 39 36 37 36 38 37 38 38 42 45 50 51 53 56 58 60 57 52 51 53 50 46 41 39 35 29 21 15 10 9 11 16 18 21 26 30 34 38 44 50
47 46 47 46 41 37 35 34 39 41 42 43 45 49 52 54 56 55 57 59 57 56 54 54 53 51 48 46 43 41 39 34 31 26 20 12 12 16 21 28 32 36 41 45 50

GFSSW_250_spd_078.txt.gz
Wind_Speed
100 99 100 97 92 86 86 88 87 83 82 84 87 80 78 77 76 74 74 71 72 72 72 72 72 71 69 66 69 66 58 55 59 69 69 70 71 71 67 58 53 50 60 70 78
109 107 103 102 102 102 98 92 87 87 84 83 85 85 83 83 79 79 79 76 74 72 73 77 75 74 68 68 69 70 61 57 67 66 69 68 67 65 62 58 56 53 64 70 77
97 108 109 109 106 111 109 104 99 96 92 89 89 90 89 86 85 82 79 76 74 73 76 79 78 70 66 70 70 68 58 63 61 65 66 65 64 64 64 60 58 59 65 70 72
91 91 92 104 105 103 108 108 104 103 101 97 92 92 94 90 89 84 80 74 73 76 79 79 78 70 67 69 70 65 65 62 60 61 62 66 63 60 63 63 61 60 64 69 72
83 87 87 90 94 98 102 102 105 106 106 99 94 93 94 94 89 81 77 76 76 76 77 74 71 66 69 67 70 65 67 58 54 57 61 62 61 63 63 67 64 63 63 71 73
76 79 83 90 91 92 93 91 90 93 95 93 90 91 91 92 84 76 73 74 74 73 71 69 62 66 63 67 67 66 62 57 53 57 60 60 59 57 67 69 67 64 67 77 77
75 76 80 83 85 86 87 85 85 83 84 90 83 84 85 83 76 72 70 68 68 64 64 58 59 61 63 64 63 62 58 56 56 59 61 62 57 60 67 69 68 69 77 79 83
77 76 78 79 80 80 82 82 81 80 77 81 79 80 75 71 67 66 63 59 58 56 56 55 57 61 63 60 60 61 60 57 59 60 64 59 66 68 66 65 72 73 83 87 91
75 77 79 79 78 78 74 77 78 73 75 76 69 68 63 63 64 59 56 52 53 49 51 54 57 61 60 60 59 59 60 57 59 64 64 59 67 69 69 67 71 78 86 95 103
73 72 74 76 77 73 72 69 68 67 70 64 62 56 54 55 55 52 46 43 43 47 51 55 56 59 57 56 57 57 57 60 60 58 52 55 62 67 64 67 71 77 88 98 106
75 68 63 67 69 65 64 62 59 57 57 52 51 49 47 48 49 42 32 35 42 47 51 54 55 52 53 55 55 56 57 50 46 45 47 50 51 53 57 64 71 81 86 97 94
64 63 57 56 57 55 55 55 54 50 47 46 44 42 42 38 32 25 29 37 41 47 49 50 51 52 51 52 53 50 43 40 37 35 36 41 49 53 57 62 74 87 93 103 112
55 54 49 46 50 52 48 45 48 43 39 34 32 33 24 22 19 23 29 31 38 42 46 48 47 47 45 45 42 38 35 31 30 32 35 43 47 48 51 61 75 85 90 102 92
47 49 43 37 43 47 45 45 41 34 32 29 25 18 15 18 19 24 26 30 34 40 43 42 39 39 39 37 33 30 28 26 25 28 30 35 39 43 53 65 76 84 88 106 102
41 39 35 32 43 47 42 39 30 31 25 17 14 12 16 14 17 22 23 26 33 36 37 32 32 31 28 25 24 23 21 20 21 27 28 37 42 45 57 67 75 89 105 108 101
30 25 24 35 44 45 36 30 32 18 14 12 12 12 8 13 14 18 22 26 28 29 24 24 22 20 18 16 18 15 17 18 21 25 31 37 42 47 56 75 86 101 118 114 112
19 24 35 37 36 34 32 27 18 16 15 15 12 6 6 9 12 18 20 20 21 16 14 14 14 12 10 11 12 12 13 14 17 21 28 39 46 57 68 72 90 109 125 114 107
15 18 20 23 31 26 27 22 20 22 18 12 7 5 3 9 13 14 13 11 9 8 6 5 3 4 8 9 13 11 10 11 14 17 23 33 41 49 68 75 91 120 123 106 115
19 24 29 34 38 35 28 30 29 23 17 13 7 3 6 8 8 8 6 5 3 2 3 6 7 9 9 12 13 13 13 12 16 21 23 31 39 46 61 75 91 121 119 108 104
43 46 47 44 41 42 41 36 29 23 18 11 7 6 5 3 6 6 5 4 8 10 12 13 11 14 12 11 12 12 16 17 18 20 21 23 25 34 54 71 90 121 126 115 106
51 43 43 49 47 45 40 33 29 22 17 15 12 9 8 11 12 10 11 12 14 15 15 16 16 17 17 15 12 13 15 16 18 22 25 24 28 28 41 69 83 106 131 127 121
50 51 48 52 48 43 38 35 31 25 23 17 14 15 16 17 16 17 20 22 21 23 23 21 23 21 22 19 16 11 9 12 11 14 21 25 30 34 40 59 76 87 124 133 129
50 55 53 52 50 45 40 37 34 29 24 23 22 21 22 25 26 27 27 29 28 29 30 29 28 24 22 21 22 23 15 7 6 7 9 7 11 23 32 41 67 80 115 122 136
58 57 54 54 52 48 43 39 38 34 33 28 28 30 33 37 41 43 41 40 40 40 37 36 34 32 27 20 19 19 18 15 12 12 10 10 9 8 12 21 30 64 93 121 129
57 59 58 58 53 49 45 41 41 43 37 35 36 39 43 48 50 53 55 53 51 51 49 48 45 42 35 32 28 24 21 17 14 10 6 3 4 9 14 18 22 26 38 72 118
60 61 62 57 52 50 48 46 44 45 42 47 47 49 53 53 50 52 53 55 56 53 50 46 47 47 46 45 45 40 33 26 22 20 16 12 7 3 7 13 19 27 36 44 55
62 57 62 56 54 50 50 49 46 44 47 50 52 54 57 58 58 57 58 59 57 56 52 51 49 47 46 45 43 39 38 36 34 29 26 23 19 17 13 6 2 11 21 31 41

GFSSW_250_spd_081.txt.gz
Wind_Speed
88 90 95 99 106 107 110 105 103 99 98 93 94 91 89 91 88 84 82 80 78 71 71 73 72 71 70 69 68 65 60 54 57 57 65 71 68 68 68 68 63 61 53 47 48
77 76 82 88 93 95 98 99 100 102 103 100 96 94 89 89 88 90 87 83 83 82 74 74 74 76 74 73 70 70 65 60 61 63 68 71 69 61 66 65 62 60 55 55 45
70 76 77 83 82 88 93 99 97 96 102 104 103 99 96 93 90 92 96 89 85 79 81 78 78 75 76 75 73 74 65 66 63 68 72 71 65 63 65 62 62 62 55 56 50
77 75 72 75 84 84 89 91 96 98 94 96 102 104 99 97 94 92 96 92 87 84 82 81 79 79 77 75 77 71 72 68 69 71 71 64 64 63 64 60 62 59 52 53 51
78 79 76 73 77 81 84 89 91 94 96 94 92 98 98 100 98 94 95 96 92 86 84 83 81 81 79 77 76 74 73 70 69 71 63 64 63 64 62 59 59 59 53 52 54
80 83 84 78 78 79 81 85 89 88 91 90 89 87 87 89 94 93 95 95 93 87 85 84 82 79 77 77 75 75 72 72 69 61 62 61 64 62 55 58 58 59 55 52 56
87 86 86 83 82 80 79 81 83 85 86 86 89 88 87 82 84 87 87 90 90 87 85 81 79 76 75 75 76 74 70 66 63 61 60 62 60 52 64 53 59 60 59 57 60
93 90 85 83 81 77 79 78 78 79 80 82 82 81 76 77 80 75 74 78 79 79 82 78 73 72 71 72 73 70 63 62 61 56 59 55 54 62 54 54 62 61 61 59 63
96 89 83 80 79 77 76 75 76 73 75 76 74 71 67 72 72 63 65 65 70 72 73 73 69 69 69 66 66 62 60 57 58 57 57 54 63 56 52 54 60 60 61 60 64
83 81 78 74 75 77 75 73 68 69 70 70 64 61 64 65 57 59 56 57 60 62 67 68 67 65 61 60 60 57 56 58 57 57 58 58 59 54 55 57 59 62 62 64 67
70 70 67 68 65 72 74 70 63 64 60 61 57 58 55 51 53 51 47 49 51 53 59 60 58 54 54 53 54 57 57 60 57 56 59 61 61 62 63 65 65 65 64 66 70
62 62 58 58 53 59 66 66 58 54 51 46 50 48 42 41 40 37 37 42 44 49 50 51 47 49 51 53 54 54 57 58 59 59 60 61 61 64 66 66 65 65 65 69 76
52 50 47 45 42 47 54 57 52 42 39 41 39 32 30 31 26 28 31 36 39 40 40 41 44 48 51 53 54 54 57 59 57 54 50 47 47 49 55 60 63 63 70 76 88
38 36 36 34 34 38 45 50 45 38 36 36 28 21 19 19 24 25 28 32 34 35 38 43 45 46 49 48 51 52 46 40 37 35 35 38 39 43 46 51 54 64 71 80 92
22 22 23 21 26 34 42 45 39 36 31 24 21 19 18 22 23 25 29 29 31 36 39 42 44 42 41 43 37 30 29 29 28 28 28 30 34 38 42 48 55 64 70 80 98
10 15 15 16 25 31 37 39 32 28 28 25 21 18 19 21 22 22 25 29 32 32 36 37 30 31 32 26 23 22 20 18 19 20 23 26 29 32 40 46 48 59 66 82 102
4 6 9 16 22 28 28 27 34 35 30 25 18 18 19 20 19 20 21 26 24 28 27 19 20 23 18 17 15 14 14 14 14 15 19 22 26 31 39 45 53 62 75 90 101
17 12 12 18 23 32 40 43 38 34 27 23 20 18 18 16 13 14 17 17 20 17 10 12 14 14 12 13 13 13 12 11 14 13 14 18 23 29 38 49 63 75 81 97 104
32 30 32 37 42 43 44 40 36 31 27 22 20 18 13 10 11 11 10 12 10 6 8 9 12 11 13 14 14 17 15 15 15 14 15 19 30 41 49 61 72 79 94 96 104
43 41 44 47 49 47 44 42 37 32 27 23 20 15 12 10 6 6 6 4 5 7 8 11 13 13 14 16 16 16 16 15 16 16 17 21 32 46 59 69 69 84 102 96 100
47 45 47 47 48 48 44 39 36 33 28 23 20 17 13 12 11 8 9 8 9 10 10 11 13 18 19 19 17 16 13 13 14 17 18 20 28 41 60 66 71 82 92 98 101
47 44 45 48 46 42 40 40 37 34 29 26 22 20 18 15 14 12 13 15 14 13 13 13 17 21 23 24 18 17 15 12 13 13 14 16 19 33 49 62 72 83 89 96 110
47 46 42 44 45 44 42 42 39 36 31 28 28 23 20 20 22 21 20 21 21 20 21 19 17 21 20 23 24 21 21 17 16 11 10 9 12 20 29 44 68 81 98 98 107
47 48 45 45 45 44 45 43 41 39 35 33 30 27 29 30 32 31 30 31 30 29 28 28 27 25 22 19 18 21 19 20 18 18 15 12 9 9 14 29 47 70 98 105 106
50 50 50 48 48 49 47 45 47 44 40 40 38 38 38 42 45 45 44 43 42 41 41 39 37 34 31 28 24 24 22 16 13 17 15 15 15 16 19 18 26 45 85 107 107
55 54 55 54 55 52 54 53 48 47 44 45 48 51 53 54 52 51 50 52 52 52 51 49 45 46 45 43 41 39 33 28 24 20 19 14 11 8 9 18 28 37 57 85 105
54 58 58 57 58 58 58 57 53 52 53 56 58 59 61 61 59 57 57 56 53 52 53 51 49 47 44 44 42 42 39 35 33 32 31 29 24 20 15 9 3 14 30 60 89

GFSSW_250_spd_084.txt.gz
Wind_Speed
60 64 67 74 80 80 84 90 99 103 107 108 109 105 103 99 99 99 98 100 99 94 90 90 85 82 77 77 76 75 68 64 67 68 69 67 65 65 64 60 58 61 61 63 55
67 64 66 69 73 81 82 84 85 89 99 102 106 107 108 106 103 101 100 99 100 99 94 92 88 85 82 81 79 78 73 70 75 75 71 71 70 70 69 63 62 62 64 62 55
78 77 69 71 70 74 83 88 88 90 91 91 94 99 101 104 104 106 103 100 99 97 94 90 89 87 87 84 82 80 79 79 79 79 79 75 74 74 72 64 67 67 67 67 58
84 77 77 74 71 75 75 78 85 85 92 94 93 93 96 97 95 99 101 103 103 100 98 95 92 91 92 90 88 83 83 81 82 83 81 79 79 74 76 67 74 70 67 67 60
85 81 78 77 77 77 80 79 84 80 85 90 92 94 91 91 92 93 95 99 103 104 101 100 97 93 92 91 89 86 85 85 83 83 84 83 80 76 73 74 76 72 70 69 62
91 85 81 81 78 82 82 84 84 85 81 81 86 88 87 87 89 88 92 93 94 103 103 102 99 96 93 92 90 89 89 87 86 84 86 84 81 79 74 82 76 74 71 63 61
98 90 89 86 86 85 87 87 86 84 87 85 84 86 93 90 87 84 86 87 85 90 100 99 99 99 96 91 88 87 86 89 92 90 85 85 77 74 77 81 72 72 65 61 62
94 94 91 90 90 91 91 89 87 85 86 84 79 82 88 87 84 80 79 77 78 81 85 88 93 97 94 92 91 89 92 90 89 88 86 81 71 73 78 73 70 70 58 58 61
83 85 87 87 86 89 90 89 88 85 81 81 76 79 80 81 77 70 67 67 72 75 76 79 81 84 89 89 93 93 89 83 82 82 81 75 71 74 71 70 68 60 55 57 60
72 73 74 75 76 78 79 81 85 82 74 74 71 74 74 72 64 56 56 63 64 65 67 68 68 71 76 82 84 81 76 75 72 71 67 63 63 67 67 61 58 55 52 57 60
62 60 61 63 65 67 68 72 72 71 71 69 68 66 65 59 49 48 49 50 52 56 56 55 60 66 67 68 70 69 66 68 64 61 58 59 60 62 62 58 58 53 53 56 58
51 50 51 49 50 53 54 62 59 65 59 60 62 59 49 40 40 41 40 43 45 49 50 54 56 55 56 56 57 56 59 59 58 55 55 57 59 57 59 60 56 52 58 57 63
37 36 38 35 36 39 44 48 49 51 51 52 49 41 32 31 33 30 33 36 43 45 47 44 44 45 45 45 48 50 54 55 54 54 53 53 55 58 58 58 59 59 60 62 65
27 25 25 22 26 29 34 31 37 41 40 38 34 29 29 27 26 29 31 39 37 37 35 35 36 37 40 42 44 48 49 51 51 51 55 58 60 60 61 62 62 63 62 63 64
17 14 12 15 18 22 24 26 31 28 30 30 31 27 24 25 27 26 30 33 27 29 32 31 34 34 37 40 43 46 48 52 55 55 52 49 48 48 49 50 52 53 57 61 66
7 2 4 12 18 22 22 22 23 29 33 32 30 29 27 28 27 26 25 24 24 28 28 30 32 36 39 39 42 44 44 41 39 36 35 33 33 34 38 42 45 47 51 56 60
15 11 12 13 17 20 22 25 29 32 33 33 32 31 29 27 27 25 22 19 25 24 26 30 31 32 34 36 34 28 27 27 25 24 23 23 25 26 28 32 37 41 50 59 65
27 23 22 25 27 29 31 33 36 36 36 36 35 32 31 27 21 21 17 23 19 22 22 21 24 26 26 21 18 17 17 17 17 18 19 19 23 24 25 27 33 43 55 70 71
36 32 32 32 32 34 37 39 41 39 39 38 35 32 27 21 19 15 18 14 16 14 13 16 18 15 11 13 14 16 16 17 16 17 15 16 18 24 29 35 41 52 72 83 83
47 44 42 41 44 43 45 43 44 42 40 36 31 26 21 19 16 14 11 11 8 8 7 8 7 9 14 14 12 13 13 14 15 18 17 18 23 27 32 44 51 69 89 81 83
50 44 39 39 39 41 45 43 42 40 36 30 26 23 20 17 15 13 10 8 7 6 8 7 10 14 14 15 16 16 13 16 14 17 18 19 26 31 39 48 58 69 87 87 82
46 44 36 36 38 40 40 38 37 35 32 29 25 25 21 19 18 16 15 12 12 11 10 11 14 15 16 18 19 19 19 17 15 15 15 16 25 34 41 54 56 63 83 89 80
39 43 35 35 36 37 36 36 38 36 34 33 30 28 26 25 25 23 22 22 20 19 18 19 14 15 16 16 22 21 21 21 19 18 16 10 10 21 28 41 48 55 68 97 98
37 37 37 36 39 40 40 41 42 41 40 39 37 35 35 34 34 35 33 33 33 33 29 26 25 25 21 16 16 15 15 16 20 18 17 17 11 6 15 25 32 48 64 85 96
44 46 47 46 44 45 46 46 50 47 45 44 44 46 46 45 47 47 47 45 42 41 38 37 35 33 29 27 26 25 20 19 14 11 8 12 14 16 17 28 43 39 58 77 80
51 56 55 54 55 54 53 53 54 53 53 52 52 53 52 52 52 54 53 51 50 49 50 47 47 44 43 41 39 36 32 28 24 21 19 15 9 6 6 12 20 37 39 61 82
58 60 63 59 60 55 55 53 52 53 55 57 57 59 59 59 58 59 57 56 55 54 53 52 49 49 49 48 45 42 42 42 39 34 33 29 26 22 20 15 10 5 11 24 54

GFSSW_250_spd_087.txt.gz
Wind_Speed
74 71 65 62 63 60 61 77 83 89 95 101 106 108 109 109 103 102 98 96 96 96 96 98 99 101 101 99 93 90 84 79 79 77 76 77 76 75 72 65 65 63 60 55 51
81 77 73 73 69 71 68 67 73 87 88 96 99 100 101 109 107 109 105 103 100 98 96 98 99 101 100 99 98 93 88 83 87 84 79 79 77 77 76 73 69 70 66 61 58
84 84 79 78 77 74 73 77 76 77 86 89 96 98 95 94 98 104 107 107 107 104 102 100 99 100 101 100 100 97 91 89 87 87 86 82 79 79 79 76 73 74 73 68 63
91 88 87 85 84 83 80 75 80 81 78 82 90 95 96 95 92 94 97 104 108 106 109 104 104 102 102 100 98 95 93 88 87 88 87 83 81 81 79 79 83 79 80 76 70
98 95 94 91 89 87 85 84 80 84 83 81 85 91 91 97 96 95 92 92 95 100 103 105 108 104 103 102 100 96 92 89 89 89 90 87 83 81 80 82 86 84 83 80 77
102 103 100 98 95 94 91 88 87 85 84 83 88 92 89 88 91 94 90 90 92 92 93 98 100 102 104 106 103 98 92 89 88 90 91 88 85 81 81 87 86 88 85 82 81
101 102 102 101 100 98 94 92 90 90 87 86 86 89 92 88 88 91 88 86 82 82 85 87 90 94 96 101 102 98 94 89 92 91 90 91 86 88 88 91 86 87 84 85 83
83 84 87 91 94 94 94 91 91 88 89 90 87 89 89 91 91 89 90 86 81 73 69 74 77 83 93 95 94 92 92 94 93 91 92 90 90 92 88 84 84 84 82 84 82
71 72 76 76 79 82 83 85 84 88 88 87 90 88 88 88 87 87 87 90 84 76 70 72 77 81 86 90 91 88 86 93 96 94 91 84 86 87 86 82 83 86 83 85 84
56 55 58 59 64 68 70 76 74 81 81 84 84 82 84 85 83 81 79 79 81 76 72 72 73 76 76 77 79 81 81 87 90 89 83 79 77 77 79 79 81 81 85 83 80
40 41 44 46 47 51 56 59 61 68 73 73 72 75 77 72 71 68 67 72 71 66 64 66 65 64 63 67 71 72 75 76 77 73 73 70 68 65 71 74 74 75 77 77 75
31 31 32 35 38 42 45 45 47 55 62 57 63 60 60 59 58 58 58 57 52 52 51 51 53 55 59 62 62 63 69 69 66 63 59 60 62 63 64 66 70 70 68 65 63
21 19 18 21 25 30 35 39 42 47 49 46 49 46 45 45 48 48 44 36 43 42 40 43 47 52 54 54 50 50 51 52 53 53 53 54 56 59 60 62 63 62 60 58 58
14 10 8 12 16 21 25 31 34 33 30 33 39 32 36 38 36 32 32 35 38 35 37 42 43 41 39 38 41 42 42 44 45 45 46 47 51 54 56 56 56 58 59 57 61
12 8 3 4 12 16 19 22 24 23 26 31 27 29 32 30 29 29 34 37 29 30 32 33 31 31 32 33 34 36 38 40 42 43 44 45 47 50 53 55 55 55 55 56 58
14 14 10 9 11 16 20 23 24 27 29 29 31 31 30 30 31 33 34 26 26 26 25 26 25 24 26 26 28 31 34 37 38 41 43 45 46 47 49 51 53 56 57 58 59
20 19 17 20 20 20 23 26 26 29 31 34 35 34 33 32 29 28 23 24 23 21 20 20 17 19 20 24 29 32 34 35 35 34 36 36 36 36 36 39 42 45 48 49 51
34 28 24 24 26 28 29 30 32 35 37 37 38 35 31 29 26 24 22 17 16 13 14 12 15 17 22 24 26 26 25 25 25 25 26 25 24 25 26 28 30 34 38 40 40
45 38 35 32 32 33 34 34 35 34 36 38 36 34 32 28 25 19 16 13 11 10 9 10 11 13 14 14 15 16 15 15 16 15 17 18 20 22 23 22 25 29 34 39 48
56 48 38 37 39 38 39 39 42 42 40 36 34 30 28 22 19 15 13 11 9 7 5 6 9 9 8 8 7 6 6 9 10 12 14 15 17 20 24 26 30 37 42 51 58
51 52 42 39 40 42 37 37 37 37 37 33 30 26 22 19 17 15 14 13 14 12 13 11 10 6 7 5 4 5 7 8 8 9 11 13 15 20 25 37 47 52 57 60 66
43 48 42 40 38 37 34 33 34 32 31 29 28 28 27 23 22 22 20 18 17 16 13 15 14 13 10 10 9 10 13 11 11 10 10 9 12 17 27 44 54 58 62 68 66
39 41 38 35 34 33 30 34 38 41 41 40 37 36 33 31 30 28 26 23 24 23 22 21 17 15 13 11 12 12 14 17 14 12 11 10 13 13 21 38 48 54 65 66 64
45 46 45 43 43 42 41 43 46 46 47 45 45 43 41 39 40 41 38 37 36 33 31 28 26 24 24 21 19 18 14 17 12 12 14 13 12 12 7 22 34 49 66 69 75
57 62 57 52 52 50 51 53 55 53 53 54 53 52 50 49 49 48 45 44 43 42 39 38 35 33 32 31 31 29 28 27 24 20 17 18 12 9 5 5 25 9 38 60 67
69 67 63 62 62 63 63 63 62 61 61 62 61 59 59 59 56 54 53 51 50 49 50 48 48 46 43 44 43 40 41 39 35 32 25 21 18 15 12 8 3 19 32 39 57
67 64 64 64 65 66 65 66 66 65 63 64 64 63 61 61 60 59 56 57 56 57 57 55 54 51 50 51 48 45 46 46 41 38 34 35 33 29 26 26 23 20 15 11 41

GFSSW_250_spd_090.txt.gz
Wind_Speed
85 81 78 76 79 74 76 70 67 70 80 92 98 103 108 106 114 115 113 112 111 107 106 101 101 100 97 99 99 98 93 90 89 89 84 86 80 77 74 73 75 72 68 66 63
92 88 84 82 82 82 82 78 75 75 72 82 87 96 92 102 108 110 112 111 109 107 105 103 101 100 100 98 99 101 100 99 96 93 90 90 86 85 79 77 80 78 75 70 67
100 97 93 92 91 89 87 81 78 79 80 80 80 85 90 94 98 101 104 109 112 110 109 107 106 102 101 101 101 99 100 103 98 100 99 97 93 90 86 80 83 83 78 75 73
104 105 104 103 100 96 93 89 83 82 85 81 79 88 87 87 90 97 99 99 100 100 103 109 110 108 106 104 104 101 99 99 101 100 99 99 93 91 88 85 85 85 87 80 76
97 101 104 105 104 103 99 97 92 90 86 87 88 78 86 88 88 88 93 96 93 93 95 97 100 105 110 109 107 104 103 99 98 99 97 94 93 93 88 89 87 86 89 88 80
84 91 93 94 94 99 100 100 98 95 92 89 86 83 85 85 91 91 90 90 92 92 90 89 92 94 100 107 108 107 106 105 101 98 93 91 89 86 91 96 92 90 88 92 86
73 75 78 82 87 88 91 98 100 97 93 93 91 89 86 85 85 91 90 90 91 88 86 85 83 87 88 94 99 102 105 105 105 100 92 87 85 91 93 90 89 90 90 89 89
68 69 65 66 71 75 81 88 93 94 94 94 92 92 90 85 89 88 91 93 93 92 89 85 83 79 82 84 86 90 91 98 103 99 92 83 84 90 91 89 89 89 91 88 87
46 50 54 56 60 67 74 79 85 87 89 90 93 93 92 87 87 84 86 87 88 88 91 86 85 75 72 71 72 78 84 93 94 90 87 83 85 88 88 89 90 91 89 85 84
34 34 40 46 54 60 66 72 77 77 81 85 89 87 86 87 86 81 83 83 84 84 84 80 81 75 71 62 65 73 77 84 84 81 81 78 77 78 78 84 90 91 88 84 82
25 27 29 34 42 51 57 63 69 72 72 78 82 82 82 79 78 76 77 78 79 79 77 72 72 69 62 62 70 71 73 76 75 74 76 70 68 68 72 77 84 87 86 85 85
18 17 20 24 32 37 45 54 59 63 65 69 74 69 67 71 69 68 67 68 68 69 68 60 62 58 62 62 63 65 68 68 69 68 68 65 65 66 66 65 72 79 82 81 83
13 9 10 15 20 29 37 38 38 46 49 53 58 56 53 53 53 52 52 52 53 54 51 53 50 51 48 51 54 57 61 62 58 55 53 53 53 54 54 57 61 64 69 73 78
12 3 3 7 14 21 26 26 30 36 43 42 41 41 34 32 36 39 41 43 44 44 39 43 42 41 46 44 45 45 45 46 45 46 46 44 46 48 50 52 56 59 62 64 64
21 13 8 7 10 14 19 23 27 32 33 28 29 27 26 28 29 32 35 38 32 32 36 33 33 36 33 36 36 35 35 38 39 40 39 38 42 44 47 49 49 51 54 56 57
31 22 17 15 16 18 19 22 24 26 23 22 26 26 28 28 31 32 29 26 30 29 23 24 26 27 28 27 27 26 27 28 30 31 31 32 34 35 37 38 41 45 49 50 51
42 33 25 22 19 18 22 24 26 27 28 28 29 31 30 30 28 27 26 24 23 19 20 21 20 20 17 15 17 18 20 22 25 27 29 31 32 34 36 39 42 45 47 49 51
49 41 35 33 29 29 30 29 27 26 29 30 28 29 32 31 27 24 23 21 17 16 14 14 12 12 12 11 12 15 18 20 22 22 24 25 26 28 31 35 40 42 44 48 52
54 50 45 39 36 35 33 33 32 32 32 34 32 31 30 27 25 23 21 18 16 14 13 11 8 7 5 4 8 11 13 14 14 15 16 17 21 23 24 25 26 26 31 37 41
62 59 53 51 45 42 40 37 35 33 33 31 31 29 27 27 25 23 22 16 13 13 12 12 10 6 4 5 5 5 5 5 6 5 8 10 11 13 16 19 20 23 28 31 35
58 60 58 55 51 48 44 40 38 38 35 34 31 29 29 26 22 19 20 20 19 19 18 16 14 10 6 6 6 5 2 2 1 2 1 3 6 10 14 18 20 25 28 35 38
50 52 48 46 44 43 40 38 37 35 35 30 28 28 29 28 29 26 25 24 23 22 19 19 15 12 11 13 11 10 8 8 7 8 9 4 7 11 15 16 20 25 34 41 42
54 52 50 47 43 40 38 38 40 41 42 43 41 38 37 36 36 34 31 29 27 26 22 21 19 18 19 18 17 13 15 16 16 17 16 13 10 8 15 14 10 20 34 35 43
63 60 56 55 49 46 44 46 47 47 48 48 49 48 46 43 44 42 39 36 35 33 30 29 28 28 29 27 25 24 25 25 22 21 20 16 12 6 10 7 6 18 32 34 41
68 64 63 63 62 59 55 52 57 58 56 56 55 55 56 53 50 47 45 44 42 39 40 37 37 36 35 32 30 29 28 28 27 27 25 25 22 12 7 9 4 15 4 28 27
73 71 68 69 68 67 64 64 65 66 65 65 64 63 61 62 59 58 55 53 52 50 49 47 46 45 43 41 38 37 37 37 38 38 35 38 39 31 15 3 5 6 13 16 35
70 69 69 69 68 68 67 67 69 69 69 70 69 66 64 64 62 61 59 58 56 54 52 51 50 48 48 46 48 47 43 41 39 38 37 38 41 39 38 31 22 11 7 18 29

GFSSW_250_spd_093.txt.gz
Wind_Speed
95 94 93 93 90 91 88 81 78 73 79 75 77 71 82 97 103 107 107 108 106 106 104 102 101 99 99 97 96 95 90 89 88 88 89 88 86 86 77 77 81 75 71 66 67
93 96 99 99 98 95 95 94 86 79 80 82 80 76 70 82 90 99 108 110 111 112 111 109 104 103 104 103 101 98 96 96 96 93 92 94 94 91 88 84 87 85 79 72 71
80 84 89 95 98 100 99 98 97 88 85 83 86 82 75 77 84 89 94 102 109 111 114 116 111 111 112 112 108 105 101 99 98 98 98 99 99 99 92 91 92 91 87 82 76
76 79 84 87 89 93 97 101 102 96 92 89 87 81 82 77 78 84 91 94 95 100 106 112 116 115 115 114 114 113 108 105 105 100 101 103 102 103 99 98 97 95 90 87 84
81 80 82 85 83 90 98 99 103 103 98 93 91 85 86 84 83 83 84 90 92 93 95 98 101 104 110 115 113 110 108 106 103 105 101 101 101 99 99 100 104 101 96 90 86
84 83 83 88 92 94 93 96 100 107 104 99 96 90 88 88 84 84 85 86 86 89 93 93 91 95 94 96 99 103 108 108 106 107 103 100 100 97 98 105 98 97 96 93 87
69 72 79 79 83 90 90 91 96 100 107 104 98 97 95 90 88 87 86 87 86 90 94 92 93 94 91 88 87 90 94 100 104 102 102 102 100 99 102 97 97 93 92 86 84
49 55 61 64 68 71 74 79 85 93 98 101 101 100 93 94 94 90 87 88 91 89 88 93 96 95 91 88 82 80 82 89 96 97 100 100 101 106 103 96 94 93 91 90 86
35 41 44 50 53 56 57 62 72 81 88 93 99 98 96 98 93 90 89 91 91 91 91 92 92 92 93 88 84 78 77 77 79 86 92 94 94 107 98 91 90 93 96 92 88
22 25 30 39 42 46 56 59 64 70 79 84 94 94 95 97 94 91 92 90 87 87 87 90 91 91 90 91 81 73 72 72 73 80 82 88 83 96 90 84 89 88 89 93 92
20 17 18 26 35 41 53 62 67 65 67 74 84 89 92 95 92 89 87 87 84 84 85 86 85 84 83 78 72 67 66 71 76 74 74 82 79 83 78 77 74 77 83 87 89
19 11 11 17 28 38 48 54 60 64 63 69 73 74 83 89 88 85 83 80 80 81 81 80 81 78 75 71 65 64 70 66 71 69 71 78 72 70 68 67 69 71 74 78 82
17 11 4 9 21 30 36 47 51 56 59 62 66 67 70 73 75 75 74 72 71 68 68 72 73 70 64 60 59 60 58 60 62 66 65 64 61 62 60 60 62 64 67 72 74
19 10 4 6 9 16 21 26 36 44 48 54 58 61 57 53 53 55 57 58 57 57 60 61 58 52 54 53 49 48 50 51 54 55 56 56 55 57 57 57 58 59 62 65 67
27 18 12 13 12 14 18 22 25 30 37 39 44 47 45 38 38 40 45 48 46 45 43 41 43 44 41 36 36 38 38 40 42 44 44 43 45 45 46 47 49 51 52 53 55
35 31 26 21 19 21 21 23 23 23 23 26 27 29 30 27 25 28 30 31 34 33 30 31 34 27 24 26 26 27 29 29 31 32 31 32 35 38 39 41 42 44 46 49 51
43 40 36 31 27 27 26 25 23 20 19 20 21 21 21 21 22 24 27 27 23 20 22 19 17 17 17 18 18 20 19 20 20 21 23 24 26 29 31 32 35 37 38 40 42
56 49 44 37 34 32 31 29 26 27 25 23 25 26 26 27 25 23 21 20 19 17 15 13 11 12 14 15 16 14 14 14 13 14 17 20 22 23 25 29 31 33 35 38 40
61 59 54 49 42 38 34 31 30 29 28 30 26 24 24 24 25 24 22 20 18 17 15 13 13 13 11 8 6 3 3 4 6 9 9 11 14 15 18 21 26 30 35 40 42
61 64 61 58 54 49 45 39 36 35 35 33 32 31 30 29 29 27 25 22 20 17 16 15 15 13 9 6 6 6 2 3 2 1 1 2 3 4 8 11 17 20 23 27 32
58 59 58 58 56 54 50 45 44 43 42 39 36 36 34 32 29 25 23 22 21 21 21 19 16 15 12 10 9 5 7 7 6 5 5 7 5 1 1 4 6 9 14 18 21
63 59 56 56 51 49 46 44 43 42 40 37 35 34 32 29 28 28 28 28 27 26 24 22 19 17 16 16 14 11 15 14 12 12 10 10 10 9 6 5 5 4 2 7 15
71 62 58 55 51 50 48 47 47 45 44 44 42 40 39 40 38 36 35 34 32 30 26 25 24 20 19 21 20 18 18 16 15 15 15 15 14 10 11 8 8 6 1 7 14
74 67 63 63 59 56 52 53 55 54 54 54 53 52 52 50 48 45 43 41 37 35 32 30 30 28 27 27 26 24 22 20 20 16 16 18 17 23 13 9 8 13 3 2 12
76 73 70 67 65 64 63 59 58 59 58 58 58 56 52 52 50 49 49 46 43 41 39 37 35 35 33 32 30 30 29 27 26 24 20 21 23 18 20 17 9 10 15 7 10
76 76 73 72 72 71 70 68 69 69 69 69 68 64 62 62 61 59 57 55 54 52 50 48 49 48 46 43 41 39 38 37 40 38 31 27 20 17 17 18 16 8 5 10 16
66 68 69 68 66 66 66 66 66 66 66 66 66 66 65 63 62 60 57 56 53 51 50 50 48 46 43 40 41 40 40 39 36 35 35 36 36 34 28 24 13 10 5 14 17

GFSSW_250_spd_096.txt.gz
Wind_Speed
87 93 101 102 102 102 100 98 95 88 87 84 76 79 76 77 80 87 95 102 99 98 97 98 96 94 93 91 90 89 84 86 86 81 80 79 83 82 80 77 78 72 71 74 68
74 81 85 94 102 104 106 106 103 98 91 91 86 81 80 82 73 80 84 86 97 99 102 102 100 97 96 95 95 95 93 94 92 90 88 90 89 86 82 81 81 81 79 76 78
84 79 81 79 86 92 100 107 107 105 100 94 96 89 83 82 76 77 80 81 83 90 99 102 105 102 102 101 101 102 101 99 99 99 99 98 95 91 87 85 89 86 86 85 83
89 87 77 74 72 79 86 93 103 109 106 103 101 95 93 86 83 80 82 77 78 80 82 89 102 108 107 105 105 104 103 105 106 102 97 97 97 99 96 94 95 96 94 91 89
83 85 84 80 76 76 76 85 92 99 103 105 106 102 97 93 89 82 80 81 82 77 80 81 85 94 106 110 109 108 108 110 110 109 104 97 100 103 100 99 98 97 98 96 92
70 73 75 76 77 76 73 72 84 91 94 102 108 106 99 97 95 90 84 82 81 80 78 81 85 85 88 94 97 103 111 116 116 114 109 106 107 107 105 103 100 101 102 99 98
61 60 65 70 75 73 71 72 75 84 88 90 103 106 105 99 99 93 87 84 82 81 82 77 80 84 83 83 84 86 90 93 99 104 106 107 109 110 108 108 108 104 100 99 97
53 52 56 61 67 72 70 71 72 75 76 82 87 95 106 103 102 98 91 86 84 82 81 82 81 83 87 88 88 86 84 85 89 88 89 90 87 99 109 104 104 102 102 97 95
37 37 43 51 54 55 63 68 72 69 73 73 76 81 94 101 100 98 96 90 87 86 84 83 82 84 89 91 92 89 86 79 79 81 80 85 82 93 101 99 96 98 100 100 93
26 26 28 32 42 47 49 55 63 64 70 78 82 84 86 92 100 98 96 92 88 88 88 86 87 88 86 87 92 91 87 83 81 77 76 80 82 86 91 83 86 93 99 95 89
20 17 17 22 28 35 40 50 56 56 67 81 84 84 85 90 88 91 96 96 94 91 92 92 89 88 89 89 91 90 91 89 86 78 73 75 77 78 86 81 84 91 92 93 89
16 8 7 12 17 24 33 41 47 48 60 73 80 84 86 87 86 89 94 96 94 92 91 90 89 90 89 90 87 89 89 83 77 66 65 70 76 79 81 79 78 82 84 84 83
22 12 6 1 5 12 26 32 39 46 58 67 77 81 84 84 83 85 85 87 91 92 91 89 87 87 89 89 88 86 80 73 67 61 64 70 73 74 72 72 71 69 71 70 71
27 18 13 10 8 11 17 21 28 37 49 57 64 69 70 72 73 76 77 76 80 82 83 83 83 82 82 80 78 74 69 64 59 54 60 60 62 62 63 60 59 59 57 60 61
33 26 23 18 13 12 12 16 23 32 42 51 56 57 64 65 68 70 70 69 68 67 67 68 67 65 64 62 62 58 55 48 45 47 52 53 52 52 51 50 50 50 50 52 53
38 34 31 28 25 21 16 15 17 20 28 34 41 43 44 47 50 52 54 56 56 54 53 54 54 52 51 45 43 38 36 35 36 38 39 38 39 41 41 41 42 42 43 47 48
53 46 38 32 29 29 27 23 20 18 17 18 22 26 24 25 31 34 35 37 41 45 44 41 36 30 30 26 25 24 21 23 23 24 24 26 27 28 29 30 33 34 37 40 43
60 54 49 41 35 33 32 29 28 26 24 20 20 20 20 24 28 31 30 28 26 22 20 20 21 19 18 14 15 12 15 17 14 16 17 17 18 19 20 22 23 24 26 29 32
64 58 57 50 44 38 35 30 28 27 27 28 27 26 25 24 23 21 22 20 17 16 17 17 16 13 9 6 7 7 9 8 7 8 8 8 11 14 16 18 20 22 23 24 28
67 62 60 57 53 47 44 39 34 32 29 28 28 28 27 28 28 27 25 24 24 21 18 14 13 9 9 9 8 7 7 7 7 6 7 5 5 4 5 5 8 12 17 23 28
73 63 57 55 56 50 52 46 45 43 41 39 37 36 33 31 32 30 27 24 21 20 19 19 17 17 15 16 12 12 12 12 13 13 12 10 10 10 10 10 10 6 2 6 12
78 69 64 58 54 52 50 48 47 46 45 43 39 37 35 32 29 26 26 29 28 28 27 25 22 22 17 14 16 18 18 17 16 15 15 14 17 18 16 17 18 17 15 11 8
85 75 68 67 59 55 53 53 53 51 50 48 46 43 42 42 41 42 41 38 34 31 29 27 25 23 19 19 20 20 20 21 20 20 19 18 18 20 19 19 18 17 19 22 15
87 83 81 75 70 67 63 57 57 55 56 56 53 50 49 50 48 47 46 43 43 42 39 36 33 29 28 28 27 25 23 20 21 20 19 23 22 19 20 23 21 20 15 14 19
77 79 80 78 76 73 71 66 65 64 63 63 61 58 57 57 55 52 49 48 46 45 43 41 39 36 35 35 34 32 31 29 25 23 21 21 22 19 22 19 14 18 20 14 11
67 68 71 73 74 73 74 71 69 68 67 67 66 65 65 63 60 60 58 56 54 52 49 47 46 44 45 45 42 41 41 40 38 29 19 22 20 20 18 17 16 15 12 9 13
60 61 62 63 64 65 64 64 63 63 62 61 61 60 59 57 54 53 53 50 48 45 45 44 43 41 38 34 32 32 31 30 31 30 28 26 25 25 23 22 21 19 16 11 10

GFSSW_250_spd_099.txt.gz
Wind_Speed
82 81 81 86 93 98 104 104 102 100 96 92 91 85 82 83 78 78 83 93 95 94 94 94 93 89 93 94 90 88 86 86 86 83 81 79 79 77 75 74 73 72 69 70 67
89 88 84 83 83 84 90 100 105 106 104 99 95 93 91 88 80 79 79 80 82 92 98 93 93 90 88 93 95 94 92 92 91 89 88 88 86 85 82 80 79 73 72 73 73
87 88 89 86 86 84 81 86 92 100 108 106 103 99 96 92 89 84 80 79 80 79 82 91 98 95 95 92 92 93 94 94 93 93 94 93 91 89 88 86 86 80 80 75 76
75 81 85 84 78 76 76 79 86 89 96 109 108 106 100 100 93 88 83 77 79 77 80 81 84 90 97 100 99 93 93 95 94 95 96 94 95 95 92 91 91 89 86 84 85
59 64 68 74 74 72 68 67 81 81 83 94 108 107 104 101 97 92 89 81 78 76 76 75 75 78 83 86 93 99 101 98 100 99 96 97 98 97 97 97 97 97 94 93 92
52 56 59 61 66 65 64 65 70 76 82 84 92 101 105 106 102 96 89 89 84 81 80 75 73 75 74 78 84 86 93 99 102 102 99 96 99 101 105 103 101 100 100 97 94
48 52 56 59 60 60 62 61 62 63 72 77 82 85 105 104 105 102 95 92 90 83 79 80 76 76 77 78 80 78 80 84 90 96 102 103 107 107 107 105 106 106 104 102 99
39 45 48 44 46 57 62 61 56 55 65 67 75 77 87 101 106 106 99 95 93 88 86 81 79 79 77 78 78 79 82 83 82 84 87 95 101 113 111 111 112 112 109 107 99
25 30 31 33 37 43 52 60 57 54 59 66 72 75 78 85 99 106 102 99 97 94 90 86 84 82 79 81 81 82 84 83 82 81 83 85 87 96 98 100 102 103 102 99 101
15 16 17 20 28 35 38 44 58 58 59 68 71 75 74 77 83 98 99 100 99 98 92 89 88 86 83 82 82 82 83 87 90 88 86 84 84 87 89 89 92 94 95 96 96
16 12 9 9 12 20 25 31 41 51 54 62 67 71 67 67 72 77 88 96 96 95 95 91 93 89 87 85 85 85 86 89 90 88 90 84 77 75 78 83 84 86 91 92 90
22 15 9 3 5 9 16 24 30 42 56 61 69 69 69 68 69 69 73 81 91 97 95 95 91 90 90 90 88 87 89 92 95 90 85 81 77 71 70 77 83 86 84 86 87
31 24 18 14 10 9 12 19 28 43 56 58 63 64 66 66 66 63 63 66 76 86 87 88 90 90 90 90 90 91 92 91 89 85 83 82 79 78 74 77 79 76 73 75 75
41 34 31 28 24 20 16 16 26 40 54 56 62 65 65 65 65 62 61 62 64 71 81 86 86 88 88 89 92 91 93 90 84 81 79 79 65 75 69 67 68 65 63 61 59
53 44 37 36 34 29 21 14 19 33 45 51 55 56 58 61 62 61 61 61 66 67 70 76 81 83 83 85 85 85 80 76 72 66 64 61 53 55 58 57 53 50 51 50 50
59 52 45 39 36 33 29 24 19 26 34 42 48 52 55 58 61 61 63 62 63 61 63 68 71 70 71 69 67 64 61 59 54 52 49 42 43 44 44 44 42 40 38 39 40
64 58 50 42 37 36 35 33 26 22 21 26 34 40 45 48 51 51 50 48 50 49 50 49 50 50 51 52 49 47 45 41 36 35 35 34 33 34 34 33 32 31 32 34 36
73 64 54 49 43 36 34 36 34 25 24 19 21 23 27 30 32 33 31 34 38 39 38 34 33 34 33 31 28 25 23 23 22 22 23 23 23 23 21 21 20 20 23 28 31
73 68 62 57 52 45 39 34 31 28 26 27 27 26 26 27 27 29 31 25 24 24 26 25 23 17 15 13 14 15 14 9 6 8 9 11 12 11 11 12 13 15 16 18 21
84 70 62 63 60 55 50 42 36 32 27 23 20 18 17 16 15 17 16 17 18 17 16 15 14 13 13 13 14 12 11 9 7 5 6 8 4 4 7 7 8 8 12 16 18
95 79 69 64 59 62 59 52 46 41 38 35 30 27 24 23 23 22 22 23 23 22 18 19 21 20 18 16 15 16 16 14 12 14 14 16 16 15 15 11 10 8 6 5 5
98 88 79 75 72 63 56 54 50 48 47 45 41 39 37 33 30 29 29 28 27 27 28 27 26 23 19 18 18 21 19 20 20 21 19 19 21 21 18 19 20 18 20 17 18
86 85 90 92 79 74 67 61 57 54 53 51 49 47 45 45 43 42 41 39 40 37 36 33 31 29 28 28 24 24 25 26 30 26 21 23 22 26 22 23 25 25 22 20 18
76 78 81 83 82 82 80 74 68 62 59 59 56 55 54 53 53 52 50 48 46 42 40 39 39 37 35 34 30 24 23 24 24 24 23 24 21 23 21 20 21 21 18 17 16
67 69 70 71 72 73 75 74 73 72 70 67 65 64 63 63 62 61 59 56 54 53 51 49 49 50 49 46 41 37 32 29 27 23 20 18 15 16 20 19 16 13 14 13 10
63 59 61 64 64 64 66 66 66 65 65 64 63 61 60 59 57 56 55 53 51 49 47 45 42 42 41 39 38 37 36 35 31 29 28 26 23 24 23 22 19 15 14 12 8
85 65 57 58 59 60 59 57 56 56 55 55 54 54 53 52 51 49 47 45 42 40 39 36 35 33 32 31 30 29 27 25 24 23 22 21 21 19 19 18 17 14 12 11 8

GFSSW_250_spd_102.txt.gz
Wind_Speed
97 96 93 90 93 93 89 100 108 109 105 102 97 93 89 86 80 83 87 93 96 101 98 96 93 93 90 90 86 85 84 78 78 81 80 77 75 74 73 71 69 66 67 67 65
85 89 91 91 89 93 95 90 97 110 111 107 104 98 92 86 88 83 81 82 87 89 100 99 100 98 96 97 92 89 88 84 85 84 84 82 82 80 78 77 78 74 74 72 70
65 70 79 83 89 88 93 97 91 97 112 112 108 105 98 94 91 85 84 80 77 77 81 91 96 96 97 95 95 95 93 92 89 88 88 87 86 86 85 85 86 81 82 80 78
56 57 61 70 79 85 87 92 95 93 97 109 112 109 106 100 95 90 86 81 80 77 75 76 78 83 91 91 91 94 94 94 92 91 92 91 91 91 90 94 90 89 87 86 84
54 55 55 58 64 74 80 81 88 94 90 89 103 110 107 105 100 94 89 85 82 81 78 74 73 71 75 87 92 92 95 97 93 92 90 88 93 95 98 97 97 96 93 92 93
42 44 50 53 55 61 67 73 73 83 92 90 89 95 104 109 105 99 91 90 87 85 81 77 76 74 75 75 79 83 89 95 97 94 92 93 95 93 96 95 94 97 98 96 97
30 33 39 45 50 53 56 57 66 75 83 92 90 89 89 96 104 100 97 94 91 88 87 84 81 77 75 76 77 80 82 84 88 91 93 100 103 101 100 97 96 96 99 99 98
21 25 29 32 38 42 44 49 59 62 65 86 89 86 85 86 93 98 100 100 96 93 89 88 83 80 77 75 76 77 78 79 79 78 81 89 91 94 95 99 103 103 103 103 102
15 13 17 20 23 28 36 46 51 52 57 72 85 85 84 84 87 85 92 103 98 96 93 90 88 84 81 80 79 80 80 80 79 78 79 80 84 87 90 95 98 102 104 106 107
18 10 4 9 15 21 30 40 49 46 54 63 77 83 87 84 78 76 80 92 96 96 92 93 89 86 85 83 82 83 82 83 83 81 84 83 86 86 85 87 91 94 96 97 101
21 13 6 4 10 17 24 35 42 45 50 59 67 71 77 75 71 74 69 79 91 93 92 92 93 91 88 88 87 84 85 85 83 83 86 87 89 85 85 84 85 87 90 93 94
31 25 19 13 8 10 19 29 37 48 51 54 60 62 69 68 68 68 64 65 71 83 92 96 93 93 94 91 89 89 88 86 89 90 90 92 95 92 92 86 84 84 86 85 86
31 32 29 26 22 18 22 27 34 44 50 49 52 59 63 63 62 63 64 65 66 68 78 91 93 91 91 94 94 92 93 93 93 94 96 99 98 101 91 84 80 77 78 80 83
41 38 38 37 33 28 25 25 32 43 49 49 51 57 58 57 58 58 60 59 59 58 63 73 81 86 89 91 90 93 94 94 97 97 94 89 89 94 89 86 72 71 72 74 74
55 45 39 35 38 32 27 25 26 35 41 43 43 47 50 53 54 52 53 51 51 53 55 61 69 78 85 87 89 90 89 87 86 82 82 78 75 75 76 58 58 61 62 58 58
62 54 44 38 35 36 31 26 24 28 34 33 35 38 44 47 48 49 49 48 48 49 49 52 55 58 60 63 66 69 71 71 68 66 64 65 62 59 54 49 47 45 44 43 45
68 61 51 43 39 38 35 30 25 25 26 29 30 33 36 40 42 42 43 43 44 45 46 47 48 49 50 53 56 60 64 62 61 55 50 49 45 43 41 38 36 33 33 35 36
74 67 59 53 48 39 37 31 27 20 17 15 19 23 27 30 31 33 35 36 40 41 40 41 42 44 45 45 49 49 49 47 42 35 27 26 28 29 31 29 27 24 24 25 27
83 73 63 58 53 46 40 37 27 22 20 18 16 16 15 15 18 23 26 28 30 32 34 32 31 31 33 35 34 33 28 22 20 18 16 17 17 16 18 19 19 16 16 16 19
96 83 72 63 59 57 58 46 39 34 27 20 16 13 12 11 9 14 5 8 14 16 19 18 20 21 19 15 12 11 14 11 8 6 7 5 4 3 7 8 9 9 11 11 11
97 92 84 78 71 68 58 54 49 44 41 36 32 29 24 21 18 16 14 14 13 12 11 11 11 11 11 12 14 13 12 14 14 15 16 20 16 15 13 11 9 6 6 7 4
87 84 88 92 92 78 68 61 53 49 48 45 42 40 38 36 32 30 27 24 24 24 22 19 17 17 20 21 18 17 19 19 18 19 17 17 21 20 18 16 16 18 17 16 15
81 75 80 91 84 84 79 74 66 62 57 53 51 49 47 46 45 42 39 38 37 35 33 31 32 30 27 26 26 26 25 23 22 20 19 20 21 21 19 18 18 20 15 15 16
93 78 75 74 72 72 74 74 73 72 69 66 63 60 58 57 57 57 56 53 51 49 48 45 42 37 32 29 28 25 23 22 19 17 15 13 11 14 14 12 13 12 12 16 10
95 93 75 70 65 64 65 65 66 68 67 67 65 64 63 62 60 58 56 55 54 52 50 49 48 46 42 38 36 35 31 29 26 22 18 16 12 11 12 14 13 11 11 9 7
86 87 90 85 66 63 58 55 55 56 57 57 56 56 54 53 53 51 50 48 46 44 42 42 40 38 36 34 33 31 30 29 28 27 24 23 21 21 20 17 14 15 14 11 10
74 80 80 84 83 70 58 58 53 50 49 49 48 48 48 46 46 45 45 44 42 41 39 39 37 34 31 30 28 26 24 23 22 20 18 17 17 16 15 15 13 12 11 10 10

GFSSW_250_spd_105.txt.gz
Wind_Speed
89 95 99 104 108 106 99 100 100 101 112 110 104 100 97 94 91 96 105 99 103 100 92 90 89 87 83 82 80 81 80 79 78 74 71 73 74 73 71 70 70 68 65 61 61
68 74 79 87 95 104 106 101 101 101 99 106 108 106 100 97 96 92 90 97 101 100 101 94 94 94 87 88 86 83 83 83 82 79 76 73 74 73 71 73 76 74 73 70 67
63 61 62 68 76 86 96 102 98 102 101 98 102 109 106 99 99 95 92 89 97 99 103 96 96 95 93 91 93 90 88 88 84 84 81 79 79 80 78 80 79 78 76 76 77
53 53 59 61 62 71 82 91 94 98 99 98 96 104 109 104 99 95 92 89 86 88 93 99 101 99 98 93 95 93 96 95 94 92 88 86 88 86 85 85 80 80 82 82 82
40 42 49 56 59 60 69 76 85 89 95 98 96 94 104 107 101 97 93 91 88 83 81 81 84 91 98 102 101 100 98 97 94 94 94 94 94 91 92 88 89 88 88 87 87
29 31 36 46 50 56 58 65 71 78 85 94 94 94 92 99 104 100 97 95 89 83 80 78 76 76 77 76 80 87 98 99 98 96 97 99 97 95 96 96 95 92 93 94 95
21 20 25 33 40 48 54 57 62 68 79 85 92 92 91 90 97 104 102 97 92 86 81 79 77 75 74 72 72 74 76 80 86 90 93 93 97 96 95 95 96 94 96 98 97
12 13 16 21 31 36 44 48 55 60 70 77 85 88 86 88 87 94 105 101 95 89 86 82 79 77 76 75 76 73 74 74 73 72 74 81 93 96 96 96 98 100 98 98 100
15 9 8 14 20 27 33 41 48 53 57 67 76 81 83 86 85 86 92 102 96 93 87 85 84 82 78 78 77 76 76 77 75 75 75 76 80 83 86 88 90 92 95 100 103
17 10 4 5 14 22 31 41 42 44 51 62 72 78 81 80 81 79 78 91 99 95 92 89 88 85 82 80 80 80 80 80 78 79 80 80 82 81 78 84 85 83 86 89 93
22 16 9 5 10 20 31 38 36 39 47 55 63 66 75 75 76 74 74 72 88 98 92 91 89 89 86 85 86 84 85 85 83 82 83 84 85 85 83 83 82 84 87 90 92
26 20 15 12 12 16 25 32 36 40 43 44 51 65 70 73 75 70 68 65 69 76 84 93 93 94 93 90 87 88 88 87 86 85 86 88 89 90 90 88 87 87 88 87 87
33 27 23 19 18 19 22 29 35 37 35 38 47 54 61 63 66 69 65 64 65 64 66 74 82 89 92 90 90 90 91 90 89 89 89 91 90 93 92 92 94 94 94 88 85
44 35 32 29 26 22 21 26 35 37 31 35 42 49 54 57 62 65 61 61 62 60 61 65 70 76 81 90 94 93 93 92 91 93 93 93 92 95 95 97 98 94 88 80 78
60 49 40 35 35 31 26 25 30 30 27 29 34 40 45 50 53 56 58 59 58 58 58 57 56 61 68 76 85 89 90 91 92 93 91 89 90 96 97 94 90 90 85 64 59
66 61 53 48 40 36 36 33 31 27 25 24 28 35 43 47 51 55 55 54 53 53 53 51 50 52 57 64 72 78 80 81 83 86 86 84 84 82 77 76 76 70 64 50 49
72 63 57 53 48 43 36 33 29 28 24 22 22 27 34 39 43 45 46 46 46 47 49 49 49 51 53 52 51 52 55 57 61 64 65 66 66 66 65 62 58 50 45 38 34
82 70 59 54 50 46 40 32 26 23 22 19 18 21 28 33 35 37 39 41 41 42 44 44 43 40 38 39 40 42 46 51 55 56 54 52 52 50 46 43 40 34 29 28 28
91 77 67 58 52 49 50 47 37 28 23 19 16 16 19 22 26 28 29 31 32 32 32 34 35 35 36 39 41 46 44 44 42 41 39 33 30 28 25 21 21 20 19 21 21
96 87 74 69 65 60 56 46 43 41 37 30 25 22 19 15 16 18 20 22 24 27 30 31 32 33 34 34 31 30 29 27 23 18 13 13 7 2 5 7 7 8 10 16 18
90 81 79 80 79 73 58 52 48 44 41 37 34 31 26 23 19 17 16 15 17 17 18 19 18 19 19 18 16 14 11 9 7 10 9 10 13 17 13 10 7 3 2 2 4
91 81 78 85 92 80 70 63 57 52 49 47 44 41 39 36 32 29 26 23 19 18 16 14 12 9 9 8 10 11 13 16 14 15 11 11 10 10 6 10 9 9 6 5 6
89 87 81 83 78 76 77 77 71 65 61 59 54 51 49 47 44 40 37 34 30 28 25 24 22 20 18 17 15 15 15 14 12 11 11 11 9 9 8 7 7 5 4 2 4
87 87 82 76 68 65 66 67 68 69 69 69 68 66 64 62 61 59 57 53 49 44 40 38 36 33 31 28 24 22 20 17 15 12 12 12 9 12 9 11 9 9 8 8 11
84 85 86 73 67 64 60 57 57 58 58 58 57 57 57 56 55 54 53 51 50 48 46 44 42 40 37 35 33 31 27 26 24 23 21 20 18 15 13 14 14 15 14 13 13
77 79 79 80 72 64 57 56 53 52 51 50 50 49 49 49 48 48 46 45 43 41 39 37 35 33 32 30 28 27 25 23 21 18 16 16 16 16 17 17 17 16 17 17 18
64 67 69 80 75 71 64 59 48 45 46 46 45 44 44 43 42 41 39 37 35 33 32 30 28 26 24 23 22 20 19 16 14 13 12 13 13 13 14 15 16 17 18 19 20

GFSSW_250_spd_108.txt.gz
Wind_Speed
88 96 102 107 107 108 106 102 99 97 97 105 108 105 103 101 97 94 91 94 98 95 90 88 88 83 86 86 83 81 77 75 70 68 72 73 71 69 67 66 64 62 60 57 62
71 77 82 88 94 102 110 111 105 104 101 101 99 106 108 105 101 97 93 89 91 93 94 91 91 87 87 87 85 85 83 79 79 74 72 70 72 71 72 73 69 68 67 67 66
56 61 68 75 77 83 95 105 111 108 109 105 102 98 107 109 104 100 95 90 87 88 90 93 94 92 87 87 84 82 85 86 83 79 78 78 76 75 75 73 70 71 73 75 73
46 49 56 62 65 71 75 84 96 105 107 108 105 100 98 100 107 104 99 93 90 89 89 85 94 94 90 89 89 87 83 83 83 80 79 79 80 81 81 78 78 77 75 74 75
34 35 41 49 52 58 67 73 80 89 99 103 106 102 97 96 90 104 102 98 92 89 86 84 85 89 94 94 92 92 89 86 86 85 85 83 81 81 81 82 83 80 79 79 79
27 28 31 37 43 51 60 65 69 77 85 95 100 102 97 95 90 97 106 100 95 91 88 84 82 81 87 92 90 95 95 89 88 89 90 87 87 89 87 87 87 87 87 85 86
21 20 21 25 33 40 48 58 59 63 73 81 93 98 98 95 90 87 99 102 98 93 89 85 84 79 80 81 84 89 90 93 92 89 92 92 90 92 94 93 94 94 95 94 94
17 13 10 15 24 31 39 46 53 53 61 70 80 88 96 95 92 89 87 93 99 96 92 87 84 83 80 79 79 80 84 88 88 92 89 93 96 96 100 99 98 98 98 99 99
25 14 6 6 14 20 26 36 48 49 54 62 72 81 89 92 92 86 82 82 92 95 93 88 84 82 78 76 75 73 73 73 71 71 74 80 82 82 83 89 95 100 101 105 104
28 19 13 3 9 17 25 33 39 38 41 50 59 69 81 90 87 85 82 76 75 89 92 89 86 83 80 78 74 73 71 71 69 70 71 73 76 76 75 75 77 79 79 81 83
34 25 17 12 8 17 25 28 33 38 40 44 51 60 75 82 82 80 78 70 71 71 88 90 88 87 84 81 77 74 73 73 72 73 75 77 77 79 75 75 75 78 80 82 83
43 31 25 17 13 13 17 26 29 25 26 34 45 56 67 72 74 74 72 65 65 70 71 84 90 90 87 84 82 80 78 78 77 79 80 80 80 78 80 81 82 83 83 87 88
48 39 31 26 20 19 20 20 18 21 28 32 39 50 61 68 71 71 69 65 63 61 63 68 79 86 87 85 83 81 80 81 82 83 84 85 83 85 86 87 88 86 88 90 93
56 48 39 36 32 28 26 19 15 17 19 24 33 47 55 60 63 62 60 60 58 57 58 60 58 67 78 85 84 84 86 87 86 86 87 88 87 90 91 89 89 90 93 96 92
64 56 47 38 41 39 31 27 24 22 19 19 28 39 43 49 56 59 58 56 54 53 51 51 49 49 59 73 83 86 86 90 92 93 94 92 93 95 94 93 93 94 92 86 81
65 59 53 44 38 34 31 29 27 26 24 22 25 30 38 45 51 55 53 51 50 47 42 43 44 45 50 54 58 60 65 70 77 83 87 90 92 94 94 92 87 82 76 73 71
71 60 52 48 42 34 30 28 27 31 23 23 25 28 34 38 43 46 47 47 45 43 43 41 43 46 48 49 50 54 56 56 59 63 67 72 77 77 75 70 69 68 66 62 58
79 66 50 48 45 42 37 36 34 29 25 23 23 25 26 29 32 35 38 39 40 40 40 41 43 44 44 46 47 46 47 48 52 53 55 56 55 55 57 59 56 52 45 39 34
90 75 65 53 49 46 44 39 33 31 30 28 24 22 23 24 27 30 31 33 34 35 35 37 38 40 42 43 45 45 44 44 44 45 46 47 46 43 41 37 33 31 30 28 25
93 84 74 69 66 59 54 40 38 34 31 30 26 23 21 22 23 24 26 27 29 31 33 34 35 35 37 39 39 39 38 39 38 37 34 30 26 22 22 17 16 16 19 20 19
89 81 79 82 81 75 65 55 48 43 38 34 26 23 18 17 16 19 20 22 23 26 27 28 30 31 32 31 32 29 27 23 20 17 12 11 7 8 6 3 8 7 9 13 13
90 83 77 78 84 81 76 70 64 60 55 49 40 31 25 20 15 14 12 13 15 17 18 18 18 17 15 12 9 7 9 8 3 1 0 4 2 4 3 7 7 10 7 17 10
89 85 81 79 76 71 69 70 69 70 70 65 57 51 46 42 37 32 29 28 25 23 21 20 18 17 16 16 14 12 12 10 7 9 11 10 9 8 10 11 9 13 12 12 13
87 89 86 84 76 70 67 65 62 61 61 61 61 61 61 58 54 52 49 46 44 42 40 37 36 34 30 29 28 25 22 19 18 19 20 18 16 15 13 12 13 13 12 12 13
74 80 88 81 77 73 68 62 60 59 57 55 54 53 53 52 51 49 47 45 44 42 41 39 37 35 33 30 29 26 24 21 19 17 15 14 12 11 12 14 15 16 17 19 20
70 67 70 77 78 73 69 64 61 57 54 51 49 49 48 47 44 42 39 37 36 35 33 32 31 29 27 26 25 23 21 20 18 18 16 17 17 18 19 19 20 21 21 22 23
59 63 68 67 69 74 70 66 63 57 54 51 50 46 41 39 38 37 35 34 33 32 30 29 29 27 25 24 22 21 20 18 16 16 15 14 15 17 19 20 21 23 24 24 24

GFSSW_250_spd_111.txt.gz
Wind_Speed
78 80 84 92 101 96 99 97 96 94 97 104 111 117 114 110 105 101 101 101 100 97 95 94 92 90 88 87 82 81 78 74 67 69 75 71 69 67 63 60 59 58 56 57 59
62 66 72 79 87 94 99 99 100 97 96 96 97 105 115 112 107 103 102 99 98 98 97 94 93 92 89 88 85 81 80 78 77 74 70 68 73 71 69 66 64 64 64 63 64
50 50 51 60 73 83 85 89 102 104 102 99 95 95 102 112 110 107 104 100 97 94 95 95 94 92 92 86 85 84 82 82 82 80 75 73 73 71 70 69 71 70 70 70 69
39 39 40 48 57 68 74 75 89 102 106 103 101 96 95 96 109 108 105 102 97 93 92 91 92 94 93 91 86 84 83 82 80 81 80 79 76 75 74 71 70 69 69 73 73
30 30 30 35 46 55 60 63 78 93 103 108 102 101 96 93 92 102 109 105 99 94 90 89 86 88 89 90 90 86 84 85 82 78 83 80 80 79 80 79 78 77 76 75 75
20 20 21 25 33 42 49 56 68 79 86 99 107 104 101 96 92 93 104 104 100 95 91 87 85 83 83 82 84 88 85 81 82 82 79 81 79 82 85 85 84 82 80 81 83
21 16 15 18 25 31 37 47 59 68 75 82 94 103 104 99 100 91 92 101 99 96 91 86 84 84 82 79 78 78 82 84 84 85 83 81 82 82 81 83 84 84 83 83 82
25 16 10 8 14 20 27 35 45 57 68 70 78 89 98 101 99 94 90 89 101 101 96 91 87 84 81 78 77 77 78 75 79 83 85 84 85 85 87 87 86 86 86 90 87
31 22 13 5 4 10 19 29 39 49 58 64 68 78 91 101 104 99 92 87 87 96 98 93 89 86 82 79 77 75 75 74 73 73 82 86 84 86 89 91 94 92 90 89 92
36 29 22 13 6 10 16 23 31 40 51 56 58 64 72 86 101 102 94 90 86 84 89 92 91 89 85 79 77 76 75 73 71 70 71 76 82 82 85 86 89 92 95 96 99
42 38 33 24 14 11 15 21 28 35 39 40 44 52 61 74 97 99 97 90 84 77 78 74 83 91 87 84 80 77 76 74 72 74 74 74 75 79 79 78 77 81 79 80 83
45 44 43 39 30 21 17 17 20 26 31 33 38 46 56 66 80 93 94 89 82 77 73 67 68 77 85 85 81 79 75 73 73 73 75 76 77 76 76 76 75 77 81 81 82
55 46 43 40 35 30 24 19 16 18 20 25 33 41 49 59 69 81 83 83 81 76 70 66 63 62 70 79 84 81 78 76 76 77 76 78 76 77 78 79 80 80 81 83 84
56 53 46 42 38 32 28 25 20 20 21 24 30 38 45 54 64 74 79 79 77 72 65 59 56 53 51 60 74 79 79 79 79 80 80 80 79 83 85 84 85 88 89 88 87
58 52 48 45 43 38 34 29 26 23 19 20 25 31 38 47 56 62 67 67 67 61 57 52 48 49 50 51 57 68 76 78 80 84 84 84 82 85 87 87 88 90 90 89 85
61 54 46 44 44 42 39 35 31 29 23 20 23 25 30 38 45 52 56 55 54 53 50 47 44 44 46 47 48 50 58 68 75 80 84 86 85 86 88 88 88 86 82 77 70
75 63 49 45 46 45 44 44 40 32 26 25 24 26 28 33 39 45 50 51 47 46 45 43 43 40 40 42 44 46 44 46 49 54 61 66 69 67 68 69 68 66 66 63 58
91 74 63 54 52 51 49 47 43 35 32 28 25 25 25 26 32 39 44 44 42 40 39 40 39 38 39 40 40 39 38 41 45 46 49 53 55 55 54 54 53 55 55 54 48
92 88 76 68 62 60 55 46 39 40 38 33 28 24 24 24 26 31 36 38 37 37 37 37 37 36 35 35 35 36 40 41 43 45 46 47 44 42 44 46 44 42 40 35 28
90 85 85 88 79 68 60 47 43 39 39 35 33 29 26 22 21 24 27 29 32 33 33 33 34 33 33 31 32 35 36 37 37 39 39 39 40 34 29 27 25 24 20 19 18
91 86 86 84 86 86 69 57 48 42 41 36 33 31 29 24 22 19 19 20 21 23 25 25 25 25 26 29 30 31 33 34 35 33 28 20 13 10 11 8 9 11 13 16 11
87 80 84 86 86 79 77 77 69 59 52 43 35 30 27 23 22 18 17 16 15 16 17 17 20 22 23 24 27 28 25 13 2 2 4 5 7 7 8 8 8 11 9 9 11
85 84 84 84 80 77 74 72 71 71 69 63 54 46 40 31 26 19 15 12 10 10 10 11 13 11 8 11 16 17 17 17 14 13 13 13 12 10 10 9 8 10 11 12 13
79 79 79 84 80 74 70 69 66 66 65 64 61 59 57 52 47 43 38 34 31 29 27 27 27 27 27 25 26 26 25 22 20 18 16 14 12 12 12 12 13 14 15 17 18
68 73 73 75 75 76 74 68 65 63 59 58 57 55 53 51 48 47 45 44 42 41 39 37 34 32 30 28 26 23 21 20 18 17 16 16 16 15 15 17 17 18 19 20 21
61 63 68 69 73 70 75 71 68 61 58 57 55 52 49 46 45 43 42 40 39 37 36 34 32 30 28 26 24 23 23 24 23 22 21 18 17 17 16 15 16 19 20 22 23
54 57 60 62 62 66 67 68 66 65 63 59 54 51 48 48 46 44 42 42 41 38 36 35 33 31 29 27 25 25 24 23 22 21 21 22 23 23 24 23 22 21 23 24 23

GFSSW_250_spd_114.txt.gz
Wind_Speed
68 70 73 74 81 87 90 97 99 104 113 118 121 123 119 117 115 112 111 108 107 104 102 99 96 92 88 88 82 79 77 73 69 68 72 69 67 62 61 61 59 56 58 58 55
53 55 59 66 76 81 87 91 93 97 99 106 113 117 118 120 117 115 113 110 108 103 103 101 99 95 92 89 87 82 79 77 76 75 74 73 66 66 67 66 65 61 62 63 61
45 45 44 50 61 71 82 85 90 97 101 99 99 104 110 115 119 118 114 110 106 104 102 100 98 98 95 90 90 87 85 83 79 78 75 73 71 71 68 69 68 67 66 68 68
38 38 37 40 46 59 69 75 80 85 96 101 100 96 99 106 112 116 112 111 106 102 100 99 97 95 94 90 90 89 89 87 86 82 79 79 76 75 74 72 72 69 70 72 72
25 26 30 34 40 50 57 63 67 76 86 97 103 100 95 96 95 103 113 112 109 105 100 96 93 92 91 90 88 88 87 88 86 86 84 83 81 78 77 77 75 74 72 70 72
26 20 18 24 31 39 47 53 57 66 76 85 97 101 98 93 88 93 100 108 108 106 100 95 90 88 87 86 87 88 86 84 85 85 83 80 82 81 79 79 79 79 80 76 75
28 22 15 12 18 27 35 42 49 54 67 77 84 94 98 95 90 82 88 96 103 104 101 96 93 90 87 84 83 82 84 84 85 84 83 81 80 81 81 81 79 78 78 81 83
31 22 15 7 8 14 23 29 38 47 58 72 78 86 97 98 94 83 82 84 91 98 101 99 96 92 88 85 82 79 79 81 83 84 84 83 83 83 80 80 81 80 80 80 84
34 26 21 14 5 4 13 23 31 42 56 66 73 79 90 99 94 87 88 82 83 86 92 97 94 91 87 84 80 77 76 76 74 76 78 80 80 78 80 81 80 82 86 86 84
45 34 28 24 16 10 8 15 24 34 45 53 63 68 77 91 95 95 92 84 77 76 77 86 89 89 87 84 80 78 76 74 73 71 70 69 72 73 75 75 79 84 88 90 88
52 45 37 32 26 19 15 11 18 27 34 43 54 62 66 81 93 99 90 84 79 76 73 75 79 87 88 84 80 77 74 71 72 71 68 67 71 69 71 75 77 78 81 87 89
56 50 45 40 33 28 21 18 17 17 27 36 47 56 61 70 87 93 90 84 81 78 76 70 69 77 84 83 80 76 75 74 74 72 70 69 72 72 74 74 73 75 77 79 83
59 52 47 42 37 32 28 22 20 21 21 27 37 46 50 58 72 81 85 88 86 80 77 72 66 65 75 80 80 77 76 76 76 75 74 74 75 75 76 76 76 79 79 80 80
61 57 49 45 41 36 29 25 24 22 20 23 28 37 45 49 59 68 74 83 86 81 78 71 65 61 59 60 67 71 74 78 80 79 78 77 75 80 79 78 79 80 80 81 83
68 60 52 46 43 42 37 32 27 23 19 18 21 26 32 43 51 59 68 78 82 79 77 70 64 59 55 49 50 53 53 57 67 76 80 80 80 83 80 81 81 82 85 87 87
74 64 56 54 51 50 47 40 34 30 24 21 22 22 25 32 41 48 57 70 76 76 69 65 60 54 51 47 47 46 48 47 50 56 62 68 72 76 79 82 83 86 86 83 80
84 71 65 61 61 59 54 50 43 37 27 23 22 21 25 28 32 36 47 58 64 66 63 59 57 53 48 46 42 44 46 47 48 50 52 53 58 64 68 71 72 69 68 69 69
92 83 73 66 63 63 60 56 45 41 37 34 30 25 25 24 26 31 37 42 46 48 51 50 45 44 43 41 40 41 43 42 44 44 46 48 47 46 48 49 52 56 60 60 57
90 87 86 77 68 64 65 58 50 47 44 40 35 31 29 25 23 27 31 33 37 38 38 36 38 38 41 41 42 41 40 40 41 42 42 42 43 43 43 45 48 48 49 47 35
90 86 85 87 84 75 64 53 52 52 49 44 40 33 31 27 26 26 29 33 34 35 35 34 37 39 40 40 40 38 37 38 38 37 37 36 37 38 39 39 34 23 15 10 11
89 86 81 81 82 83 75 62 54 51 52 49 43 38 34 30 26 24 26 29 31 32 33 34 36 36 36 35 34 34 32 30 30 30 31 32 31 22 11 7 5 6 7 6 6
82 84 79 82 81 75 72 74 72 66 56 47 43 41 36 34 29 23 22 21 22 23 25 26 27 26 27 26 24 24 23 25 27 23 10 7 2 4 3 3 6 9 9 9 10
78 78 78 79 76 74 71 68 67 67 68 64 57 48 40 35 31 27 24 21 18 15 14 13 13 15 14 15 16 17 14 10 5 7 10 12 9 8 7 7 7 8 9 11 14
68 72 75 73 75 75 71 69 67 63 61 60 60 60 59 55 49 41 35 29 24 20 17 13 10 9 11 15 20 21 21 19 18 15 13 10 8 8 9 10 11 13 15 16 17
63 64 63 68 70 71 70 70 66 63 62 58 56 55 54 53 51 49 47 45 42 39 37 34 32 30 28 26 24 22 20 18 16 15 16 15 15 15 16 15 15 16 16 16 18
51 56 58 59 58 65 67 68 63 63 63 59 55 54 53 51 48 47 45 43 41 39 37 34 32 31 28 26 24 23 22 22 23 25 24 27 27 25 25 20 22 21 21 21 21
44 45 48 51 54 55 57 61 63 62 59 57 55 54 52 51 49 46 43 42 41 41 42 42 41 40 38 39 39 36 33 31 30 30 26 26 28 27 25 26 29 33 31 31 28

GFSSW_250_spd_117.txt.gz
Wind_Speed
64 67 66 69 71 73 80 90 96 100 109 119 126 127 118 120 117 113 113 107 106 104 100 100 94 90 85 83 83 80 76 72 69 66 67 66 66 63 58 58 57 58 57 55 53
51 50 52 57 60 66 76 86 90 99 103 110 126 124 122 123 122 117 114 110 107 105 101 99 100 94 92 85 85 84 80 76 73 73 72 70 66 65 65 63 60 62 63 62 59
42 40 41 43 49 57 66 75 79 91 102 105 110 123 128 127 124 121 116 112 108 106 103 100 98 96 94 91 87 84 84 80 79 76 74 74 69 67 67 66 66 66 64 68 65
28 31 31 33 36 44 55 64 70 78 94 104 105 107 119 128 126 120 116 112 109 106 104 102 98 96 94 95 91 88 86 86 84 82 81 77 72 72 72 71 69 66 69 68 69
27 22 23 25 28 35 42 51 61 66 77 98 103 102 109 117 119 119 118 113 109 106 104 101 101 99 97 94 95 92 90 88 87 85 82 80 79 77 75 73 71 71 70 71 74
32 25 16 16 22 27 33 38 48 53 61 79 98 101 102 101 109 117 118 115 109 105 104 100 98 98 97 95 91 90 90 89 87 86 84 82 81 81 81 80 79 78 76 77 77
36 27 18 11 15 19 24 32 38 41 53 67 84 99 102 99 92 107 114 113 110 108 103 103 99 96 95 94 91 88 88 87 86 84 83 83 82 82 81 81 81 81 81 80 81
42 31 19 11 5 12 17 23 30 39 46 61 77 90 102 97 98 94 96 107 110 107 106 103 101 98 96 93 91 88 87 86 84 82 81 80 79 79 79 79 79 81 82 80 78
44 38 27 18 8 3 12 20 26 35 46 56 69 80 91 101 101 94 86 89 93 98 100 101 99 99 97 94 90 86 83 82 81 79 77 75 76 77 78 78 78 79 80 82 83
48 43 35 24 15 7 9 14 23 31 41 50 59 72 81 101 102 99 85 82 81 82 86 90 92 93 94 92 86 85 82 78 77 74 73 71 71 71 72 74 76 79 81 83 85
51 43 39 31 24 17 13 13 14 22 33 40 49 62 76 89 103 92 83 82 79 75 72 74 78 83 89 89 87 85 82 79 77 74 72 69 69 67 68 69 68 69 71 74 75
56 47 41 37 34 29 22 18 18 22 28 32 39 52 66 76 86 89 86 85 79 72 66 64 67 71 76 81 84 83 82 78 75 73 71 70 69 67 68 69 70 71 71 71 72
61 52 45 39 37 36 34 27 23 20 23 26 34 48 57 67 77 88 89 84 77 70 63 59 57 59 62 67 71 76 77 76 74 73 71 70 70 69 70 70 72 73 74 76 78
66 58 49 42 37 37 35 35 32 24 22 23 28 39 50 57 66 79 74 77 75 69 65 60 51 48 48 48 52 60 67 70 71 73 72 72 69 72 74 73 75 77 79 80 80
70 66 61 51 44 41 37 32 31 30 25 22 26 32 38 44 50 59 67 75 75 73 67 59 51 45 43 42 42 45 48 56 65 69 70 70 69 74 77 80 82 83 84 84 86
72 68 66 64 59 52 44 38 34 30 24 21 23 24 29 34 37 43 49 64 74 71 65 60 54 49 46 43 40 40 38 40 48 57 60 62 62 65 64 67 70 73 76 77 78
84 71 67 66 65 62 56 49 42 36 27 24 23 24 23 24 26 31 40 58 71 71 67 61 57 49 45 42 40 38 37 37 38 43 49 54 56 56 55 56 57 58 59 63 65
88 84 72 66 67 65 62 57 50 40 34 31 28 24 22 23 25 30 37 44 56 69 68 65 57 50 45 42 41 38 37 38 42 46 49 50 53 54 52 50 51 50 51 54 56
85 83 84 74 67 66 67 62 56 52 47 41 37 30 27 25 26 25 26 30 37 44 55 53 50 47 44 44 42 40 40 42 44 47 48 48 47 46 47 47 47 48 48 49 51
85 84 80 83 81 71 64 57 56 55 52 48 46 39 35 33 30 27 28 29 34 38 42 45 46 45 41 39 38 39 40 44 47 46 46 44 42 43 43 42 41 42 41 37 32
82 83 80 78 81 81 71 58 56 55 54 51 47 45 42 38 35 33 32 30 29 31 33 35 37 38 37 34 34 38 42 44 44 42 38 37 37 37 38 33 25 17 13 10 9
76 76 80 77 77 72 71 74 64 55 53 52 47 44 43 40 34 32 30 30 29 28 25 26 27 30 31 36 38 38 38 38 35 33 32 30 23 16 10 7 4 4 6 7 10
69 73 74 75 77 72 69 68 69 70 64 53 46 44 42 39 33 29 26 25 26 26 27 28 29 30 29 29 28 28 27 26 22 14 9 8 5 2 2 3 4 7 10 12 13
64 65 69 73 73 73 69 66 66 65 63 61 60 55 47 39 34 30 27 24 21 17 15 14 15 16 17 17 17 14 10 9 9 9 8 8 8 10 13 17 19 20 18 20 19
56 59 63 64 69 70 69 67 67 66 60 58 57 54 52 51 48 46 43 39 35 31 28 26 24 22 21 20 18 16 16 15 16 20 24 25 27 27 28 28 26 27 26 24 22
44 47 53 56 58 59 64 64 64 65 65 63 59 56 52 50 47 45 43 41 39 37 34 32 29 27 26 25 27 30 31 29 28 26 26 26 27 25 27 27 26 26 25 24 25
34 39 42 45 50 50 54 54 56 59 64 61 58 58 58 56 53 51 48 45 43 41 40 39 38 37 37 36 35 33 32 30 30 31 34 33 31 33 32 30 29 29 32 31 28